Date StartTime U_cm/s V_cm/s W_cm/s Ustd_cm/s Vstd_cm/s Wstd_cm/s Uvar_(cm/s)^2 Vvar_(cm/s)^2 Wvar_(cm/s)^2 KE_(m/s)^2 TurbulentKE_(m/s)^2 HorizWindSpeed_cm/s FrictionSpeec_cm/s DragCoef SpeedOfSound_m/s SonicTemperature_C Pressure_mb 
04/24/2014  00:00:00     -334.549     -157.940      -15.372      146.621      118.439       57.056    21497.603    14027.858     3255.418        8.793        1.939      369.957       62.770        0.029      338.356       10.950      860.659
04/24/2014  00:01:00     -214.097     -107.570        8.784      161.404      107.619       68.490    26051.177    11581.856     4690.933        4.990        2.116      239.601       83.829        0.122      338.333       10.910      860.658
04/24/2014  00:02:00     -263.339      -93.125      -18.058      105.165       97.793       45.581    11059.651     9563.379     2077.656        5.052        1.135      279.320       44.767        0.026      338.327       10.901      860.675
04/24/2014  00:03:00     -338.770      -56.534      -12.119      160.697      128.915       66.669    25823.549    16618.967     4444.812        8.249        2.344      343.455       63.512        0.034      338.306       10.865      860.681
04/24/2014  00:04:00     -312.093     -178.391       -6.939      192.247      123.966       77.846    36958.831    15367.583     6060.002        9.382        2.919      359.479       84.395        0.055      338.281       10.824      860.680
04/24/2014  00:05:00     -283.240      -93.096      -12.860      144.971      147.640       73.833    21016.721    21797.708     5451.240        6.865        2.413      298.148       81.323        0.074      338.324       10.897      860.703
04/24/2014  00:06:00     -282.899      -23.481       -3.054      193.882      107.334       67.509    37590.321    11520.584     4557.510        6.712        2.683      283.872       85.828        0.091      338.341       10.924      860.727
04/24/2014  00:07:00     -143.549      -32.191       22.237      149.917      127.804       74.145    22475.148    16333.948     5497.444        3.321        2.215      147.114       75.660        0.264      338.353       10.945      860.758
04/24/2014  00:08:00     -313.553     -146.973       -4.166      169.192      151.253       64.091    28625.809    22877.496     4107.681        8.776        2.781      346.290       70.544        0.041      338.312       10.876      860.789
04/24/2014  00:09:00     -257.822     -117.154        2.650      157.694      109.424       72.167    24867.526    11973.558     5208.138        6.112        2.102      283.192       81.288        0.082      338.348       10.937      860.826
04/24/2014  00:10:00     -240.212     -114.742        3.223      183.330      146.474       76.924    33610.005    21454.768     5917.234        6.592        3.049      266.209       87.019        0.107      338.308       10.868      860.857
04/24/2014  00:11:00     -228.084     -131.452      -13.079      171.697      130.969       64.345    29479.742    17152.897     4140.246        6.011        2.539      263.253       85.548        0.106      338.350       10.940      860.884
04/24/2014  00:12:00     -233.605      -91.534       -8.066      191.352      137.895       63.605    36615.548    19015.116     4045.600        6.133        2.984      250.898       93.486        0.139      338.352       10.944      860.915
04/24/2014  00:13:00     -128.431      -38.810       10.945      131.811      111.055       66.549    17374.041    12333.219     4428.822        2.612        1.707      134.167       77.106        0.330      338.369       10.972      860.950
04/24/2014  00:14:00     -263.060      -96.774        7.086      236.588      152.939       94.387    55974.115    23390.442     8908.950        8.343        4.414      280.296      115.451        0.170      338.395       11.015      860.964
04/24/2014  00:15:00     -201.538     -106.557       17.847      203.583      138.591       86.981    41445.889    19207.523     7565.740        6.024        3.411      227.974      106.265        0.217      338.395       11.014      861.004
04/24/2014  00:16:00     -399.911       -7.524      -27.370      226.723      149.689       81.981    51403.418    22406.821     6720.960       12.062        4.027      399.982       94.805        0.056      338.456       11.116      861.041
04/24/2014  00:17:00     -351.526       11.408      -15.553      189.736      121.208       77.015    35999.646    14691.480     5931.321        9.027        2.831      351.711       93.543        0.071      338.487       11.169      861.061
04/24/2014  00:18:00     -151.645        7.896       14.265      173.106      116.149       64.011    29965.695    13490.615     4097.372        3.540        2.378      151.850       72.547        0.228      338.486       11.168      861.075
04/24/2014  00:19:00     -201.907      -31.967       -8.254      126.141      102.474       60.482    15911.614    10501.001     3658.077        3.596        1.504      204.422       55.358        0.073      338.522       11.227      861.093
04/24/2014  00:20:00     -259.226      -86.238       -4.895      135.831      108.147       47.775    18450.000    11695.757     2282.437        5.354        1.621      273.194       46.816        0.029      338.496       11.184      861.097
04/24/2014  00:21:00     -116.605      -74.205        2.609      118.246       86.186       55.153    13982.006     7428.007     3041.799        2.178        1.223      138.214       62.786        0.206      338.512       11.213      861.108
04/24/2014  00:22:00     -275.615      -90.376       -9.360      143.880       85.128       47.380    20701.434     7246.701     2244.896        5.720        1.510      290.054       49.095        0.029      338.528       11.237      861.105
04/24/2014  00:23:00     -249.133       -0.249       -1.309      118.348      106.131       61.416    14006.178    11263.860     3771.945        4.555        1.452      249.133       55.731        0.050      338.586       11.337      861.085
04/24/2014  00:24:00     -131.464      -51.058       -2.227       82.959       78.605       44.917     6882.118     6178.683     2017.498        1.748        0.754      141.030       43.860        0.097      338.570       11.309      861.075
04/24/2014  00:25:00     -180.515      -67.940        3.992      137.536       80.913       47.159    18916.106     6546.887     2223.990        3.245        1.384      192.877       58.699        0.093      338.564       11.301      861.079
04/24/2014  00:26:00     -245.991      -30.791      -23.215      142.623      139.659       58.255    20341.274    19504.749     3393.614        5.261        2.162      247.911       65.544        0.070      338.488       11.170      861.068
04/24/2014  00:27:00     -347.918      -79.461      -14.320      155.652      108.303       62.869    24227.563    11729.537     3952.526        8.373        1.995      356.877       69.329        0.038      338.463       11.127      861.054
04/24/2014  00:28:00     -156.848      -87.120        0.804       97.402      126.774       60.399     9487.102    16071.535     3647.982        3.069        1.460      179.419       57.883        0.104      338.463       11.129      861.038
04/24/2014  00:29:00     -262.873      -41.812       -9.799      130.690       94.462       47.878    17079.896     8923.105     2292.320        4.962        1.415      266.177       51.651        0.038      338.456       11.116      861.040
04/24/2014  00:30:00     -269.928      -80.132      -14.237      119.239       74.009       51.920    14218.035     5477.331     2695.663        5.093        1.120      281.572       61.557        0.048      338.400       11.023      861.016
04/24/2014  00:31:00     -196.295       12.634      -10.395      104.632       64.904       51.628    10947.932     4212.481     2665.433        2.831        0.891      196.701       49.456        0.063      338.488       11.171      861.001
04/24/2014  00:32:00     -243.109        3.040       -9.804      104.059       88.772       45.121    10828.218     7880.425     2035.939        3.997        1.037      243.128       40.137        0.027      338.459       11.122      860.972
04/24/2014  00:33:00     -253.467     -154.204       -9.557       98.033       97.695       52.227     9610.531     9544.359     2727.671        5.499        1.094      296.689       44.939        0.023      338.444       11.094      860.954
04/24/2014  00:34:00     -393.628      -39.731      -36.478      164.447      101.090       71.671    27042.915    10219.162     5136.674       10.012        2.120      395.629       73.319        0.034      338.494       11.179      860.955
04/24/2014  00:35:00     -310.799     -130.091       -3.433      148.684      155.103       69.058    22106.875    24056.802     4769.045        8.222        2.547      336.927       69.718        0.043      338.512       11.210      860.960
04/24/2014  00:36:00     -257.308      -41.689       -3.036      156.431      115.985       67.759    24470.524    13452.497     4591.283        5.523        2.126      260.663       81.629        0.098      338.586       11.336      860.966
04/24/2014  00:37:00     -278.968      -24.349      -15.809      152.267      126.011       68.632    23185.305    15878.860     4710.284        6.121        2.189      280.029       72.392        0.067      338.556       11.285      860.977
04/24/2014  00:38:00     -461.426      -84.120      -18.228      233.720      161.807       92.294    54625.037    26181.646     8518.162       15.481        4.466      469.031      105.493        0.051      338.532       11.244      860.954
04/24/2014  00:39:00     -507.434     -127.908      -24.371      166.578      142.006       70.283    27748.176    20165.682     4939.758       16.364        2.643      523.306       78.695        0.023      338.500       11.189      860.947
04/24/2014  00:40:00     -453.749      -96.786      -21.030      183.998      184.751       87.571    33855.097    34133.001     7668.710       14.566        3.783      463.956       91.400        0.039      338.511       11.210      860.953
04/24/2014  00:41:00     -384.009      -58.014       -6.263      165.492      106.178       77.777    27387.592    11273.812     6049.325        9.778        2.236      388.366       83.931        0.047      338.514       11.213      860.970
04/24/2014  00:42:00     -277.390     -100.835       -1.720      146.348      119.032       61.456    21417.634    14168.565     3776.783        6.323        1.968      295.149       61.812        0.044      338.526       11.233      860.983
04/24/2014  00:43:00     -296.356      -52.617       -7.096      155.705      107.651       60.623    24244.081    11588.744     3675.116        6.507        1.975      300.991       78.104        0.067      338.559       11.290      860.968
04/24/2014  00:44:00     -252.799     -104.982      -15.691      126.777       87.008       47.612    16072.388     7570.307     2266.883        5.054        1.295      273.730       48.754        0.032      338.516       11.219      860.932
04/24/2014  00:45:00     -234.476      -64.460       11.314      168.860      142.927       80.876    28513.535    20428.248     6540.977        5.736        2.774      243.175       87.259        0.129      338.575       11.317      860.913
04/24/2014  00:46:00     -178.998     -128.674        2.812      146.516      111.037       68.941    21466.890    12329.116     4752.899        4.357        1.927      220.448       74.885        0.115      338.524       11.231      860.876
04/24/2014  00:47:00     -370.258     -217.123      -33.065      166.879      130.864       70.513    27848.687    17125.385     4972.016       11.763        2.497      429.224       75.315        0.031      338.559       11.291      860.876
04/24/2014  00:48:00     -403.247     -251.671      -14.416      210.065      132.604       93.964    44127.123    17583.791     8829.170       14.833        3.527      475.338      106.144        0.050      338.589       11.341      860.867
04/24/2014  00:49:00     -282.195     -138.215       -7.460      180.825      137.090       73.969    32697.512    18793.674     5471.392        7.787        2.848      314.226       79.321        0.064      338.607       11.371      860.881
04/24/2014  00:50:00     -232.727      -91.010       12.709      205.866      135.578       80.053    42380.733    18381.324     6408.441        6.488        3.359      249.889      103.484        0.171      338.629       11.407      860.892
04/24/2014  00:51:00     -342.239     -155.295      -14.334      159.934      124.019       78.930    25578.828    15380.789     6230.006        9.431        2.359      375.824       81.218        0.047      338.591       11.343      860.899
04/24/2014  00:52:00     -262.630     -165.941       -2.272      208.819      168.632       91.065    43605.329    28436.588     8292.764        8.841        4.017      310.662      108.611        0.122      338.575       11.318      860.875
04/24/2014  00:53:00     -290.673     -146.885      -12.547      144.098      116.174       76.183    20764.122    13496.380     5803.863        7.314        2.003      325.678       71.535        0.048      338.556       11.286      860.868
04/24/2014  00:54:00     -300.513     -148.088      -19.976      130.921      125.209       67.669    17140.237    15677.204     4579.125        7.501        1.870      335.019       55.463        0.027      338.556       11.285      860.868
04/24/2014  00:55:00     -342.472     -202.163       -2.292      201.532      175.343       91.266    40615.157    30745.190     8329.478       11.891        3.984      397.690      108.592        0.075      338.575       11.316      860.846
04/24/2014  00:56:00     -173.027     -102.557        5.202      162.442      141.225       83.407    26387.549    19944.437     6956.692        4.688        2.664      201.138       74.915        0.139      338.583       11.331      860.807
04/24/2014  00:57:00     -164.020      -83.439       15.994      158.951      125.327       91.072    25265.420    15706.761     8294.141        4.168        2.463      184.024      103.851        0.318      338.566       11.302      860.767
04/24/2014  00:58:00     -147.341     -132.154       -6.448      169.062      111.178       69.041    28582.025    12360.625     4766.597        4.245        2.285      197.924       77.898        0.155      338.571       11.311      860.750
04/24/2014  00:59:00     -275.486     -188.543       -0.402      150.048      104.582       72.109    22514.472    10937.431     5199.664        7.504        1.933      333.828       85.226        0.065      338.541       11.259      860.741
04/24/2014  01:00:00     -268.749     -125.539        6.468      140.714      115.084       61.286    19800.563    13244.297     3755.982        6.241        1.840      296.625       67.683        0.052      338.548       11.270      860.744
04/24/2014  01:01:00     -408.285     -204.504       -8.172      182.453      143.813       84.483    33288.986    20682.270     7137.310       13.483        3.055      456.638       85.903        0.035      338.557       11.286      860.747
04/24/2014  01:02:00     -322.663     -157.456        0.159      180.432      130.851       78.117    32555.627    17122.044     6102.322        9.233        2.789      359.032       67.430        0.035      338.576       11.318      860.782
04/24/2014  01:03:00     -244.057     -148.380       -3.902      165.995      115.112       74.000    27554.183    13250.700     5476.038        6.393        2.314      285.623       84.714        0.088      338.590       11.342      860.801
04/24/2014  01:04:00     -237.339     -117.368       -6.198      123.680      114.338       67.589    15296.709    13073.106     4568.282        5.153        1.647      264.774       64.471        0.059      338.594       11.348      860.822
04/24/2014  01:05:00     -129.153      -46.638       17.057      147.280      143.418       84.409    21691.296    20568.771     7124.878        3.426        2.469      137.316       80.903        0.347      338.646       11.438      860.805
04/24/2014  01:06:00     -133.979      -52.732       20.941      129.628      117.157       73.098    16803.496    13725.683     5343.367        2.851        1.794      143.983       84.427        0.344      338.603       11.365      860.806
04/24/2014  01:07:00     -118.294      -43.528        8.139      128.135       81.822       60.632    16418.676     6694.849     3676.253        2.137        1.339      126.048       66.843        0.281      338.585       11.334      860.802
04/24/2014  01:08:00     -191.454      -81.770        1.072      154.047       95.251       66.039    23730.554     9072.809     4361.098        4.025        1.858      208.185       82.405        0.157      338.593       11.346      860.787
04/24/2014  01:09:00     -274.385     -147.469       -4.486      121.193       87.868       58.512    14687.662     7720.857     3423.711        6.144        1.292      311.504       32.162        0.011      338.569       11.307      860.769
04/24/2014  01:10:00     -254.017      -47.613       -1.421      120.740      112.652       57.515    14578.116    12690.424     3307.950        4.868        1.529      258.440       47.188        0.033      338.607       11.371      860.777
04/24/2014  01:11:00     -198.461      -89.164       -3.252      178.062       89.095       65.620    31706.107     7937.957     4305.995        4.564        2.198      217.570       75.981        0.122      338.570       11.308      860.765
04/24/2014  01:12:00     -245.193      -24.418      -15.998       89.688       78.711       41.144     8043.875     6195.431     1692.832        3.845        0.797      246.406       32.496        0.017      338.566       11.300      860.775
04/24/2014  01:13:00     -269.845      -58.022      -32.273       87.637       97.570       56.156     7680.282     9519.871     3153.481        4.878        1.018      276.012       41.538        0.023      338.563       11.295      860.779
04/24/2014  01:14:00     -287.080      -45.331      -14.262      169.710      103.631       62.737    28801.329    10739.474     3935.897        6.407        2.174      290.637       79.341        0.075      338.608       11.372      860.792
04/24/2014  01:15:00     -366.109     -105.369      -26.585      116.690       84.739       60.958    13616.629     7180.657     3715.907        8.517        1.226      380.970       59.488        0.024      338.525       11.234      860.796
04/24/2014  01:16:00     -251.657      -74.170        1.349      146.919      113.348       65.102    21585.146    12847.880     4238.242        5.374        1.934      262.359       70.363        0.072      338.529       11.240      860.792
04/24/2014  01:17:00     -339.395      -25.015      -24.615      106.057       98.342       63.347    11247.992     9671.217     4012.861        7.067        1.247      340.316       63.228        0.035      338.548       11.273      860.788
04/24/2014  01:18:00     -309.703      -30.186       -9.158      135.242       99.265       70.060    18290.266     9853.500     4908.393        6.498        1.653      311.171       75.764        0.059      338.558       11.288      860.799
04/24/2014  01:19:00     -237.544     -104.169       -7.605      130.990      114.470       56.091    17158.484    13103.321     3146.195        5.037        1.670      259.380       54.803        0.045      338.571       11.310      860.805
04/24/2014  01:20:00     -377.569       -2.516      -21.748      164.935       92.074       61.635    27203.531     8477.613     3798.874        9.125        1.974      377.577       65.081        0.030      338.623       11.397      860.803
04/24/2014  01:21:00     -241.119      -83.924       -9.922      136.930      105.751       56.251    18749.820    11183.355     3164.191        4.918        1.655      255.307       66.845        0.069      338.572       11.312      860.782
04/24/2014  01:22:00     -293.552      -68.746       -7.971      101.691       67.901       49.437    10340.996     4610.538     2444.048        5.418        0.870      301.495       45.213        0.022      338.595       11.351      860.768
04/24/2014  01:23:00     -240.261     -109.979       -4.745      145.146       90.686       59.549    21067.404     8223.989     3546.133        5.133        1.642      264.236       64.252        0.059      338.564       11.299      860.755
04/24/2014  01:24:00     -250.242      -90.758       19.585      156.531      112.442       63.720    24501.988    12643.306     4060.298        5.622        2.060      266.191       74.467        0.078      338.536       11.252      860.728
04/24/2014  01:25:00     -172.391      -46.990        1.042      108.036      108.111       48.609    11671.813    11688.020     2362.803        2.882        1.286      178.681       51.380        0.083      338.643       11.432      860.718
04/24/2014  01:26:00     -310.177     -141.713      -17.148      145.379      116.726       69.820    21135.131    13624.923     4874.865        7.810        1.982      341.016       69.801        0.042      338.557       11.286      860.699
04/24/2014  01:27:00     -152.294     -115.235        5.521      102.765       96.018       53.023    10560.622     9219.465     2811.483        2.954        1.130      190.978       51.771        0.073      338.556       11.286      860.695
04/24/2014  01:28:00     -233.472      -95.688      -14.291      123.169      131.912       66.063    15170.623    17400.905     4364.380        5.040        1.847      252.320       63.458        0.063      338.544       11.266      860.685
04/24/2014  01:29:00     -144.450      -12.858      -20.409       93.502       49.754       33.398     8742.709     2475.439     1115.426        1.689        0.617      145.021       11.554        0.006      338.661       11.463      860.690
04/24/2014  01:30:00     -150.347      -15.390       22.910      141.135       96.103       69.963    19919.037     9235.721     4894.781        2.870        1.702      151.132       76.064        0.253      338.596       11.354      860.697
04/24/2014  01:31:00     -124.340       10.152        6.232       95.021       85.640       52.303     9028.998     7334.135     2735.562        1.735        0.955      124.754       53.932        0.187      338.626       11.404      860.709
04/24/2014  01:32:00     -185.604       -5.452       -6.766       98.275       73.949       46.173     9658.035     5468.509     2131.962        2.589        0.863      185.684       51.898        0.078      338.659       11.457      860.747
04/24/2014  01:33:00     -139.592      -57.669       11.455      128.617       95.393       53.739    16542.376     9099.912     2887.869        2.573        1.427      151.035       62.777        0.173      338.593       11.350      860.782
04/24/2014  01:34:00     -164.022      -23.255       -4.167       66.187       85.048       37.667     4380.654     7233.235     1418.783        2.024        0.652      165.663       38.578        0.054      338.546       11.270      860.830
04/24/2014  01:35:00      -96.156      -41.086        6.159       76.126       67.386       36.537     5795.144     4540.882     1334.925        1.132        0.584      104.566       34.946        0.112      338.601       11.364      860.874
04/24/2014  01:36:00     -106.582      -26.153        8.172       91.215       69.054       38.929     8320.119     4768.423     1515.489        1.335        0.730      109.743       52.505        0.229      338.680       11.496      860.898
04/24/2014  01:37:00      -80.850      -36.830       13.661       73.867       49.381       32.021     5456.301     2438.527     1025.340        0.850        0.446       88.844       36.310        0.167      338.609       11.377      860.914
04/24/2014  01:38:00      -20.088       -3.785       18.359       55.027       38.124       30.734     3027.991     1453.447      944.559        0.309        0.271       20.441       32.074        2.462      338.634       11.420      860.920
04/24/2014  01:39:00      -39.965      -15.535        7.621       35.720       24.445       14.273     1275.907      597.556      203.717        0.199        0.104       42.878       14.104        0.108      338.573       11.316      860.933
04/24/2014  01:40:00      -35.805      -35.160        2.387       25.711       29.394       18.624      661.038      864.033      346.869        0.220        0.094       50.182       15.289        0.093      338.576       11.321      860.939
04/24/2014  01:41:00      -91.036      -13.402      -14.972       39.040       23.433       14.945     1524.140      549.087      223.355        0.549        0.115       92.017       10.929        0.014      338.553       11.281      860.957
04/24/2014  01:42:00      -16.254      -11.429        6.633       33.276       30.693       27.218     1107.315      942.054      740.845        0.161        0.140       19.870       24.751        1.552      338.567       11.306      860.947
04/24/2014  01:43:00       12.464       37.405       -9.606       35.424       19.876       23.596     1254.860      395.067      556.751        0.193        0.110       39.427       12.370        0.098      338.638       11.426      860.941
04/24/2014  01:44:00       -6.503      -57.639       -4.686       36.698       51.972       18.671     1346.759     2701.127      348.598        0.389        0.220       58.005       15.173        0.068      338.659       11.460      860.927
04/24/2014  01:45:00      -23.510      -53.887       16.367       48.231       31.691       26.593     2326.184     1004.314      707.211        0.388        0.202       58.792       32.403        0.304      338.701       11.530      860.903
04/24/2014  01:46:00       21.621       -1.224       20.363       24.350       40.352       19.196      592.902     1628.262      368.481        0.174        0.129       21.655       16.391        0.573      338.650       11.446      860.861
04/24/2014  01:47:00       -6.281       28.558       -4.532       39.887       33.799       27.669     1591.010     1142.342      765.585        0.219        0.175       29.241       22.168        0.575      338.595       11.352      860.813
04/24/2014  01:48:00      -13.167       34.397       -7.926       50.569       40.127       24.040     2557.232     1610.137      577.904        0.308        0.237       36.831       15.110        0.168      338.622       11.399      860.754
04/24/2014  01:49:00      -53.456       -5.652       -0.975       39.293       46.563       24.175     1543.922     2168.113      584.450        0.359        0.215       53.754       15.831        0.087      338.650       11.446      860.731
04/24/2014  01:50:00      -60.133      -55.017        0.293       25.445       30.680       18.023      647.452      941.281      324.814        0.428        0.096       81.504       11.594        0.020      338.584       11.337      860.707
04/24/2014  01:51:00       21.212       -7.525       15.179       28.942       10.714       17.875      837.627      114.783      319.522        0.100        0.064       22.507       14.779        0.431      338.595       11.353      860.670
04/24/2014  01:52:00       31.627      -10.976       11.743       21.642       16.416       20.249      468.360      269.500      410.024        0.120        0.057       33.478       15.740        0.221      338.613       11.384      860.634
04/24/2014  01:53:00       -3.789        5.248       31.975        9.097       16.179       10.503       82.760      261.766      110.303        0.076        0.023        6.473        8.618        1.773      338.644       11.435      860.607
04/24/2014  01:54:00      -71.794      -33.485       -2.287       41.464       19.752       12.184     1719.272      390.130      148.446        0.427        0.113       79.219       13.164        0.028      338.621       11.398      860.606
04/24/2014  01:55:00      -96.789      -33.854       -5.253       17.524       19.598       13.442      307.099      384.087      180.687        0.571        0.044      102.539        7.767        0.006      338.566       11.306      860.624
04/24/2014  01:56:00      -79.276      -52.874       -5.198       52.338       26.449       17.520     2739.230      699.528      306.938        0.643        0.187       95.291       19.526        0.042      338.625       11.403      860.659
04/24/2014  01:57:00     -107.891      -66.401        3.518       82.512       74.609       51.288     6808.242     5566.545     2630.433        1.553        0.750      126.687       45.525        0.129      338.622       11.396      860.692
04/24/2014  01:58:00     -176.676      -16.621        1.475       69.959       63.907       37.054     4894.265     4084.064     1372.986        2.092        0.518      177.456       36.330        0.042      338.596       11.353      860.728
04/24/2014  01:59:00     -166.831      -24.706      -13.953       61.176       43.300       33.769     3742.443     1874.878     1140.375        1.770        0.338      168.650       33.912        0.040      338.601       11.362      860.716
04/24/2014  02:00:00      -63.147      -46.428        1.178       36.440       25.726       22.871     1327.869      661.822      523.071        0.433        0.126       78.378       19.338        0.061      338.586       11.340      860.696
04/24/2014  02:01:00      -26.045      -29.836        8.089       35.051       23.603       13.560     1228.599      557.104      183.868        0.180        0.098       39.605       15.097        0.145      338.596       11.356      860.663
04/24/2014  02:02:00      -79.366      -33.072        4.961       90.202       46.817       29.747     8136.451     2191.850      884.913        0.931        0.561       85.981       42.616        0.246      338.586       11.337      860.626
04/24/2014  02:03:00     -239.505      -85.164      -11.339       71.612       81.001       36.529     5128.222     6561.226     1334.356        3.888        0.651      254.196       39.544        0.024      338.537       11.253      860.616
04/24/2014  02:04:00     -224.257      -30.269      -12.106       61.121       45.612       33.513     3735.764     2080.490     1123.094        2.915        0.347      226.290       31.599        0.019      338.545       11.265      860.610
04/24/2014  02:05:00     -199.118     -113.662       -4.155       99.568       82.198       36.042     9913.867     6756.560     1299.027        3.527        0.898      229.274       39.454        0.030      338.527       11.236      860.603
04/24/2014  02:06:00     -130.381     -102.995        0.931       67.028       69.604       39.024     4492.817     4844.726     1522.863        1.923        0.543      166.154       42.663        0.066      338.489       11.174      860.604
04/24/2014  02:07:00     -183.821      -80.741       -2.395       88.785       60.495       37.856     7882.811     3659.608     1433.076        2.664        0.649      200.772       37.670        0.035      338.470       11.140      860.610
04/24/2014  02:08:00     -157.813      -48.617        6.093       71.400       52.487       34.338     5097.929     2754.898     1179.070        1.817        0.452      165.132       35.389        0.046      338.441       11.091      860.631
04/24/2014  02:09:00     -185.418     -113.151       -5.254       83.406       57.250       33.098     6956.559     3277.555     1095.495        2.927        0.566      217.217       33.050        0.023      338.452       11.109      860.640
04/24/2014  02:10:00     -148.720     -119.321       -1.806       68.499       53.859       34.988     4692.132     2900.768     1224.169        2.259        0.441      190.671       31.922        0.028      338.462       11.127      860.637
04/24/2014  02:11:00     -148.357     -125.710        2.424       78.269       83.662       43.383     6125.992     6999.385     1882.069        2.641        0.750      194.455       37.559        0.037      338.486       11.167      860.626
04/24/2014  02:12:00     -178.914     -173.433      -10.353       85.311       91.411       33.498     7278.032     8355.908     1122.136        3.947        0.838      249.177       21.460        0.007      338.511       11.208      860.620
04/24/2014  02:13:00     -199.978     -104.315        0.508       76.643       43.852       31.837     5874.164     1922.981     1013.614        2.984        0.441      225.550       27.362        0.015      338.505       11.200      860.605
04/24/2014  02:14:00     -165.121     -116.906      -11.968       58.859       64.189       33.919     3464.345     4120.214     1150.479        2.490        0.437      202.316       26.804        0.018      338.505       11.201      860.574
04/24/2014  02:15:00     -248.055     -177.430      -11.741       78.556       62.627       37.078     6171.058     3922.204     1374.784        5.231        0.573      304.980       38.397        0.016      338.489       11.172      860.543
04/24/2014  02:16:00     -176.870      -79.244        2.462       54.270       62.253       30.134     2945.259     3875.401      908.049        2.265        0.386      193.811       28.166        0.021      338.431       11.076      860.512
04/24/2014  02:17:00     -146.956      -33.402       -5.229       45.167       60.255       24.395     2040.094     3630.615      595.135        1.450        0.313      150.704       24.427        0.026      338.492       11.181      860.501
04/24/2014  02:18:00     -104.552      -28.962        7.162       57.855       38.903       30.220     3347.225     1513.412      913.264        0.880        0.289      108.489       23.714        0.048      338.445       11.100      860.497
04/24/2014  02:19:00     -122.966      -42.716        0.629       50.560       43.273       23.036     2556.313     1872.512      530.663        1.095        0.248      130.174       24.605        0.036      338.451       11.111      860.494
04/24/2014  02:20:00     -142.729        4.612        1.576       39.410       31.987       26.375     1553.186     1023.183      695.633        1.183        0.164      142.804       21.199        0.022      338.424       11.066      860.490
04/24/2014  02:21:00      -52.646      -24.707      -17.935       55.788       19.534       16.752     3112.253      381.577      280.632        0.374        0.189       58.155       11.789        0.041      338.489       11.174      860.472
04/24/2014  02:22:00        8.612      -55.645        1.400       38.390       30.606       19.739     1473.817      936.715      389.639        0.299        0.140       56.307       12.862        0.052      338.530       11.242      860.441
04/24/2014  02:23:00      -53.648      -38.666        0.708       28.216       35.831       19.605      796.120     1283.889      384.374        0.342        0.123       66.129       18.817        0.081      338.500       11.193      860.404
04/24/2014  02:24:00      -45.521      -57.126       -9.977       26.428       27.833       19.093      698.441      774.698      364.539        0.364        0.092       73.044       16.625        0.052      338.582       11.332      860.377
04/24/2014  02:25:00       -4.970      -40.661       -1.427       37.607       24.289       21.922     1414.253      589.956      480.574        0.208        0.124       40.963        6.994        0.029      338.614       11.384      860.356
04/24/2014  02:26:00       -1.478      -29.157        6.601       22.632       23.708       15.186      512.222      562.050      230.611        0.110        0.065       29.194       14.333        0.241      338.622       11.397      860.337
04/24/2014  02:27:00        3.727        5.897        3.044       24.280       20.481       23.707      589.513      419.467      562.036        0.081        0.079        6.976       13.211        3.587      338.508       11.206      860.319
04/24/2014  02:28:00       16.826        6.660       39.385       31.488       27.491       22.584      991.501      755.779      510.030        0.207        0.113       18.096       20.700        1.309      338.460       11.124      860.313
04/24/2014  02:29:00      -79.195      -30.495       -0.652       37.673       32.917       25.697     1419.241     1083.497      660.357        0.518        0.158       84.863       27.835        0.108      338.636       11.422      860.339
04/24/2014  02:30:00      -53.756      -42.700       -1.541       38.918       36.404       19.795     1514.583     1325.255      391.846        0.397        0.162       68.651       17.858        0.068      338.621       11.397      860.370
04/24/2014  02:31:00      -45.469      -38.981       -5.127       28.079       33.771       16.769      788.414     1140.483      281.184        0.291        0.111       59.891       12.855        0.046      338.547       11.274      860.357
04/24/2014  02:32:00      -20.474       -3.814       -2.399       21.179       32.237       13.131      448.537     1039.218      172.427        0.105        0.083       20.827       11.514        0.306      338.532       11.248      860.350
04/24/2014  02:33:00      -20.513      -19.898        5.796       15.276       17.781       18.436      233.367      316.163      339.877        0.087        0.044       28.578        4.553        0.025      338.632       11.415      860.372
04/24/2014  02:34:00      -37.431      -66.154        6.157       23.842       26.548       20.131      568.433      704.778      405.264        0.375        0.084       76.009       11.408        0.023      338.603       11.367      860.367
04/24/2014  02:35:00      -36.508      -70.779        0.976       38.221       43.334       27.670     1460.857     1877.817      765.652        0.522        0.205       79.640       25.717        0.104      338.616       11.389      860.387
04/24/2014  02:36:00      -24.871      -36.511        9.096       38.454       37.986       19.676     1478.718     1442.948      387.134        0.267        0.165       44.177        9.988        0.051      338.603       11.366      860.402
04/24/2014  02:37:00      -79.447       -0.960        1.159       37.788       41.113       19.095     1427.961     1690.300      364.635        0.490        0.174       79.453       17.712        0.050      338.530       11.245      860.421
04/24/2014  02:38:00       10.998        3.913       10.650       32.614       21.035       14.842     1063.680      442.451      220.285        0.099        0.086       11.674       10.882        0.869      338.494       11.183      860.429
04/24/2014  02:39:00       -3.879       13.692       32.644       17.193       31.729       23.941      295.608     1006.742      573.186        0.157        0.094       14.231       20.085        1.992      338.550       11.280      860.436
04/24/2014  02:40:00       -5.104       19.592       57.424       14.363       23.591       17.380      206.292      556.525      302.070        0.239        0.053       20.246       14.822        0.536      338.462       11.131      860.443
04/24/2014  02:41:00      -25.496       17.215       10.935       24.162       36.621       22.957      583.826     1341.076      527.044        0.176        0.123       30.764       15.504        0.254      338.543       11.266      860.453
04/24/2014  02:42:00      -45.678      -40.493        4.656       54.864       21.289       17.198     3010.048      453.241      295.773        0.375        0.188       61.042       16.636        0.074      338.559       11.292      860.468
04/24/2014  02:43:00      -49.440      -55.863       -2.229       52.212       32.508       20.083     2726.087     1056.748      403.313        0.488        0.209       74.599       22.747        0.093      338.508       11.207      860.468
04/24/2014  02:44:00      -68.647      -79.781        5.380       46.407       49.957       31.735     2153.591     2495.660     1007.139        0.838        0.283      105.249       31.273        0.088      338.472       11.146      860.459
04/24/2014  02:45:00      -68.485      -61.450        7.645       59.632       35.523       23.872     3555.974     1261.875      569.891        0.696        0.269       92.013       28.000        0.093      338.440       11.092      860.442
04/24/2014  02:46:00      -82.314      -91.073        0.315       43.304       29.856       25.079     1875.239      891.372      628.966        0.923        0.170      122.760       24.621        0.040      338.421       11.061      860.443
04/24/2014  02:47:00      -47.844      -66.604        2.610       35.777       27.561       17.718     1279.991      759.595      313.912        0.454        0.118       82.006       17.197        0.044      338.403       11.030      860.423
04/24/2014  02:48:00      -38.484      -56.236       -4.513       16.925       19.523       10.604      286.466      381.155      112.446        0.272        0.039       68.143        8.970        0.017      338.394       11.015      860.403
04/24/2014  02:49:00      -39.996      -56.335       -0.228       29.752       23.309       20.566      885.194      543.309      422.952        0.331        0.093       69.089        9.891        0.020      338.455       11.118      860.394
04/24/2014  02:50:00      -93.584      -74.396        1.310       51.201       44.871       25.186     2621.531     2013.403      634.329        0.978        0.263      119.552       25.965        0.047      338.388       11.006      860.396
04/24/2014  02:51:00      -47.907      -79.734       -4.284       46.625       57.306       26.555     2173.900     3283.984      705.177        0.742        0.308       93.019       23.793        0.065      338.310       10.874      860.400
04/24/2014  02:52:00      -45.358      -84.505       -6.148       39.255       30.175       18.380     1540.988      910.516      337.830        0.601        0.139       95.908       15.007        0.024      338.349       10.940      860.383
04/24/2014  02:53:00      -64.752      -39.117       -3.285       20.500       21.569       13.860      420.235      465.230      192.107        0.341        0.054       75.650        9.441        0.016      338.299       10.857      860.366
04/24/2014  02:54:00      -46.197      -65.716        6.104       40.921       49.662       23.148     1674.562     2466.350      535.835        0.558        0.234       80.329       25.335        0.099      338.305       10.868      860.357
04/24/2014  02:55:00      -91.175      -99.876      -14.478       27.497       34.168       22.461      756.073     1167.464      504.505        1.046        0.121      135.233       17.914        0.018      338.255       10.783      860.365
04/24/2014  02:56:00      -72.494      -42.661        9.163       52.092       37.442       27.392     2713.570     1401.909      750.310        0.601        0.243       84.114       26.115        0.096      338.222       10.727      860.393
04/24/2014  02:57:00      -72.543      -80.790        5.191       41.759       40.426       24.743     1743.849     1634.238      612.195        0.790        0.200      108.579       20.512        0.036      338.248       10.770      860.437
04/24/2014  02:58:00      -75.090      -60.489        2.002       24.533       30.942       19.637      601.860      957.420      385.612        0.562        0.097       96.423        9.805        0.010      338.232       10.744      860.458
04/24/2014  02:59:00      -78.123      -59.360        3.717       42.823       32.087       20.447     1833.829     1029.594      418.088        0.646        0.164       98.116       25.411        0.067      338.202       10.694      860.474
04/24/2014  03:00:00      -63.454      -90.034        3.000       68.634       67.138       27.418     4710.623     4507.547      751.731        1.105        0.498      110.148       36.574        0.110      338.197       10.683      860.498
04/24/2014  03:01:00      -78.722      -55.726       -3.342       45.358       44.338       25.363     2057.383     1965.844      643.293        0.699        0.233       96.449       22.355        0.054      338.185       10.665      860.507
04/24/2014  03:02:00     -107.489      -41.638       -3.457       29.083       28.196       19.741      845.813      794.998      389.700        0.766        0.102      115.272       15.936        0.019      338.169       10.637      860.514
04/24/2014  03:03:00      -71.447      -32.553      -10.657       24.611       20.316       13.775      605.690      412.724      189.738        0.374        0.060       78.513       11.325        0.021      338.158       10.620      860.504
04/24/2014  03:04:00     -115.733      -44.518       -5.289       40.650       34.365       21.525     1652.400     1180.959      463.316        0.935        0.165      124.000       18.110        0.021      338.088       10.502      860.504
04/24/2014  03:05:00     -129.749      -44.683        2.238       44.323       42.080       20.384     1964.537     1770.709      415.527        1.149        0.208      137.227       17.343        0.016      338.043       10.427      860.499
04/24/2014  03:06:00     -111.531        1.869       -8.510       36.986       47.771       22.731     1367.935     2282.088      516.699        0.834        0.208      111.546       14.515        0.017      338.144       10.594      860.497
04/24/2014  03:07:00     -110.586      -22.872       -9.047       21.878       35.573       13.857      478.633     1265.439      192.005        0.738        0.097      112.927        8.619        0.006      338.164       10.629      860.476
04/24/2014  03:08:00      -82.797      -44.984        2.840       54.652       23.688       15.869     2986.850      561.105      251.830        0.634        0.190       94.228       21.474        0.052      338.033       10.409      860.447
04/24/2014  03:09:00      -55.431      -77.670       -2.732       29.531       39.881       20.019      872.097     1590.522      400.763        0.599        0.143       95.422       20.033        0.044      338.094       10.513      860.394
04/24/2014  03:10:00      -65.248      -68.077        3.052       49.326       36.598       26.194     2433.009     1339.420      686.146        0.668        0.223       94.296       29.849        0.100      338.122       10.558      860.365
04/24/2014  03:11:00      -42.799      -47.255       -3.509       24.036       27.431       20.060      577.735      752.480      402.397        0.290        0.087       63.756       13.760        0.047      338.153       10.609      860.313
04/24/2014  03:12:00      -51.761      -12.401       -0.077       44.019       24.628       18.210     1937.663      606.528      331.608        0.285        0.144       53.226       19.001        0.127      338.061       10.456      860.294
04/24/2014  03:13:00      -19.871       13.142       24.337       19.937       27.076       15.359      397.486      733.099      235.889        0.126        0.068       23.824       16.088        0.456      338.051       10.441      860.280
04/24/2014  03:14:00      -24.209        4.977       13.014       25.022       36.398       21.078      626.107     1324.833      444.262        0.159        0.120       24.715       20.483        0.687      338.101       10.525      860.266
04/24/2014  03:15:00      -21.237       21.549       30.408       26.609       25.512       23.091      708.052      650.876      533.207        0.187        0.095       30.255       20.322        0.451      338.072       10.475      860.249
04/24/2014  03:16:00      -68.622      -27.235       -6.681       23.001       24.872       10.527      529.062      618.615      110.814        0.338        0.063       73.829       10.132        0.019      338.143       10.594      860.245
04/24/2014  03:17:00      -10.120        8.858       12.489       43.962       28.338       19.590     1932.696      803.018      383.765        0.173        0.156       13.450       20.105        2.234      338.088       10.501      860.236
04/24/2014  03:18:00      -19.796      -46.842       -1.000       44.000       40.293       14.762     1936.019     1623.504      217.918        0.318        0.189       50.853       11.423        0.050      338.107       10.535      860.226
04/24/2014  03:19:00     -120.074      -31.933        2.959       31.657       37.712       28.658     1002.194     1422.168      821.281        0.935        0.162      124.248       19.706        0.025      338.116       10.549      860.229
04/24/2014  03:20:00       21.138      -35.785       12.242       32.791       23.430       23.583     1075.247      548.969      556.163        0.203        0.109       41.562       20.294        0.238      338.147       10.600      860.200
04/24/2014  03:21:00        3.009       10.063        9.243       22.859       20.728       13.683      522.552      429.634      187.212        0.067        0.057       10.503       16.049        2.335      338.089       10.505      860.202
04/24/2014  03:22:00       48.475       44.104       21.069       29.964       23.921       27.342      897.830      572.199      747.580        0.348        0.111       65.536       16.633        0.064      337.834       10.077      860.198
04/24/2014  03:23:00       24.609        6.925       38.126       31.548       42.775       23.441      995.283     1829.666      549.498        0.274        0.169       25.565       25.795        1.018      337.715        9.876      860.212
04/24/2014  03:24:00       34.321        4.900       33.386       41.727       20.499       17.633     1741.128      420.196      310.926        0.239        0.124       34.669       15.415        0.198      337.678        9.814      860.232
04/24/2014  03:25:00       24.373       32.766       30.823       26.076       24.610       25.769      679.939      605.670      664.025        0.228        0.097       40.837       20.587        0.254      337.650        9.766      860.259
04/24/2014  03:26:00       37.817       42.668        8.941       26.901       28.664       29.000      723.642      821.599      841.005        0.286        0.119       57.015       20.691        0.132      337.612        9.704      860.296
04/24/2014  03:27:00       95.431       61.113        9.160       29.013       28.154       21.907      841.777      792.629      479.921        0.752        0.106      113.322       17.304        0.023      337.558        9.610      860.304
04/24/2014  03:28:00      129.670       64.077       16.167       57.223       52.665       32.269     3274.524     2773.562     1041.275        1.413        0.354      144.638       23.352        0.026      337.543        9.588      860.309
04/24/2014  03:29:00       22.288       39.688       40.318       56.762       42.745       32.559     3221.954     1827.123     1060.083        0.490        0.305       45.518       23.479        0.266      337.609        9.699      860.303
04/24/2014  03:30:00      -27.163      -62.249       16.719       45.633       54.035       33.970     2082.339     2919.752     1153.985        0.552        0.308       67.917       31.257        0.212      337.671        9.802      860.314
04/24/2014  03:31:00      -29.071      -30.111       17.035       32.082       31.399       22.321     1029.284      985.874      498.225        0.228        0.126       41.854       17.938        0.184      337.680        9.819      860.348
04/24/2014  03:32:00      -16.539      -33.637        1.854       58.059       22.924       18.406     3370.897      525.523      338.768        0.282        0.212       37.483       24.066        0.412      337.646        9.762      860.360
04/24/2014  03:33:00       -7.791       -1.893       -1.733       36.378       42.811       17.019     1323.389     1832.811      289.630        0.176        0.172        8.018       17.588        4.812      337.730        9.904      860.375
04/24/2014  03:34:00      -36.382       22.359       -2.139       24.059       19.149       19.097      578.845      366.700      364.694        0.157        0.066       42.704       13.717        0.103      337.742        9.921      860.371
04/24/2014  03:35:00       26.499       83.298        0.843       26.009       25.096       24.007      676.460      629.830      576.314        0.476        0.094       87.411       21.117        0.058      337.584        9.657      860.362
04/24/2014  03:36:00       76.554       66.904       -7.217       35.522       41.455       28.621     1261.830     1718.532      819.179        0.709        0.190      101.670       25.212        0.061      337.513        9.536      860.368
04/24/2014  03:37:00        4.923       -5.545        2.097       44.125       34.603       18.518     1947.011     1197.337      342.911        0.177        0.174        7.415       11.351        2.343      337.569        9.632      860.378
04/24/2014  03:38:00      -12.202       27.589        0.573       22.044       34.778       24.660      485.951     1209.476      608.100        0.161        0.115       30.167       21.874        0.526      337.567        9.628      860.413
04/24/2014  03:39:00      -71.298       -0.603       -9.777       19.378       33.203       14.470      375.495     1102.461      209.392        0.343        0.084       71.301       10.765        0.023      337.875       10.145      860.450
04/24/2014  03:40:00      -32.033       39.908      -14.013       16.007       22.602       22.345      256.229      510.868      499.317        0.204        0.063       51.174       18.475        0.130      337.689        9.833      860.465
04/24/2014  03:41:00        1.202       61.664       -2.018       22.538       17.874       24.923      507.979      319.485      621.140        0.263        0.072       61.676       15.944        0.067      337.684        9.824      860.477
04/24/2014  03:42:00       -3.031       64.224      -15.689       17.206       13.682        8.334      296.049      187.190       69.449        0.247        0.028       64.295        6.404        0.010      337.519        9.550      860.503
04/24/2014  03:43:00       -3.132       41.946       -1.997       21.441       28.212       16.024      459.721      795.941      256.761        0.164        0.076       42.063       14.426        0.118      337.564        9.622      860.516
04/24/2014  03:44:00        7.468       11.840        4.027       14.828       16.891       14.809      219.883      285.308      219.296        0.047        0.036       13.999        4.203        0.090      337.623        9.722      860.512
04/24/2014  03:45:00       -7.354       17.593       13.553       11.122       14.570       12.680      123.710      212.274      160.771        0.052        0.025       19.069       10.766        0.319      337.671        9.802      860.499
04/24/2014  03:46:00       17.570      102.316      -19.626       22.586       38.501       13.114      510.128     1482.295      171.980        0.666        0.108      103.813       16.813        0.026      337.581        9.653      860.475
04/24/2014  03:47:00       13.460      112.886      -21.838       19.708       25.180       13.511      388.412      634.028      182.547        0.730        0.060      113.686       12.510        0.012      337.464        9.454      860.476
04/24/2014  03:48:00        2.574       99.260      -21.069       30.339       40.776       15.254      920.485     1662.704      232.681        0.656        0.141       99.293       14.656        0.022      337.595        9.675      860.492
04/24/2014  03:49:00      -32.622       33.494       -4.575       22.333       22.335       17.756      498.767      498.864      315.290        0.176        0.066       46.755        9.812        0.044      337.540        9.581      860.508
04/24/2014  03:50:00      -60.809       17.638       -4.934       17.390       14.547       12.803      302.403      211.608      163.928        0.236        0.034       63.315       11.665        0.034      337.480        9.482      860.527
04/24/2014  03:51:00      -40.409       50.666      -13.065       21.635       21.602       13.153      468.058      466.628      173.008        0.274        0.055       64.807        9.634        0.022      337.552        9.601      860.532
04/24/2014  03:52:00      -19.338       58.951       -6.083       24.497       39.977       14.010      600.113     1598.180      196.293        0.314        0.120       62.042       13.488        0.047      337.616        9.710      860.535
04/24/2014  03:53:00       -1.202       93.584       -6.733       14.570       29.038       17.609      212.289      843.214      310.070        0.508        0.068       93.592       18.223        0.038      337.539        9.581      860.535
04/24/2014  03:54:00       10.469      117.534      -17.027       20.651       29.698       12.825      426.454      881.984      164.478        0.784        0.074      117.999       14.805        0.016      337.526        9.560      860.535
04/24/2014  03:55:00       24.416      103.397      -18.310       18.622       20.231       15.580      346.775      409.287      242.743        0.631        0.050      106.241       13.893        0.017      337.457        9.445      860.527
04/24/2014  03:56:00       17.696       52.504       -7.960       13.886       28.795       13.245      192.825      829.161      175.420        0.217        0.060       55.406       13.791        0.062      337.441        9.417      860.544
04/24/2014  03:57:00       14.929       41.608       -3.266       15.141       33.445       14.187      229.248     1118.584      201.270        0.176        0.077       44.206       19.136        0.187      337.427        9.392      860.560
04/24/2014  03:58:00        6.220      101.195      -14.939       13.205       19.661        6.963      174.366      386.543       48.486        0.556        0.030      101.386        7.392        0.005      337.560        9.616      860.578
04/24/2014  03:59:00      -21.409      121.793      -15.969       14.951       14.286        7.881      223.540      204.102       62.109        0.802        0.024      123.660        5.282        0.002      337.583        9.655      860.585
04/24/2014  04:00:00      -27.823       84.334      -12.554       22.889       40.727       14.127      523.896     1658.655      199.564        0.521        0.119       88.805       17.436        0.039      337.569        9.632      860.585
04/24/2014  04:01:00      -57.462       31.625       -3.477       22.520       20.138       14.624      507.142      405.529      213.859        0.272        0.056       65.590        6.904        0.011      337.474        9.474      860.594
04/24/2014  04:02:00      -69.103       48.018      -14.814       23.417       15.345       11.657      548.359      235.477      135.889        0.411        0.046       84.149        8.767        0.011      337.524        9.555      860.601
04/24/2014  04:03:00      -83.464       61.190      -18.425       27.238       37.816       17.504      741.926     1430.043      306.379        0.676        0.124      103.491       18.794        0.033      337.603        9.689      860.600
04/24/2014  04:04:00      -78.901       44.777      -13.577       24.029       27.528       14.312      577.402      757.804      204.834        0.498        0.077       90.722       13.811        0.023      337.588        9.663      860.583
04/24/2014  04:05:00      -70.372       19.856       -8.379       16.603       13.427       10.491      275.661      180.295      110.068        0.299        0.028       73.120        2.728        0.001      337.596        9.676      860.544
04/24/2014  04:06:00      -64.070       50.008      -17.605       14.719       16.994       11.292      216.647      288.785      127.514        0.377        0.032       81.276        6.754        0.007      337.681        9.820      860.513
04/24/2014  04:07:00      -68.791       20.742       -3.565       17.501       19.441       14.418      306.297      377.949      207.876        0.303        0.045       71.850        7.685        0.011      337.718        9.880      860.489
04/24/2014  04:08:00      -97.849        8.310      -18.164       22.507       17.327       10.636      506.569      300.228      113.116        0.545        0.046       98.202        6.685        0.005      337.659        9.783      860.484
04/24/2014  04:09:00     -110.295       -7.897       -8.101       16.013       17.283       13.674      256.406      298.693      186.970        0.652        0.037      110.578        9.275        0.007      337.573        9.639      860.508
04/24/2014  04:10:00     -146.495        2.855      -16.048       24.933       22.446       14.005      621.675      503.830      196.128        1.152        0.066      146.523       11.281        0.006      337.500        9.517      860.553
04/24/2014  04:11:00     -115.692        0.846      -16.896       23.598       23.170       17.842      556.855      536.836      318.336        0.754        0.071      115.696       13.413        0.013      337.480        9.481      860.600
04/24/2014  04:12:00      -75.919       73.617      -24.354       18.987       30.921       17.569      360.496      956.106      308.657        0.670        0.081      105.750       12.084        0.013      337.673        9.807      860.609
04/24/2014  04:13:00      -52.506      -17.805       -4.271       28.078       25.674       12.648      788.382      659.158      159.967        0.235        0.080       55.443       11.600        0.044      337.542        9.586      860.597
04/24/2014  04:14:00      -50.214      -16.515        5.289       17.185       18.968       21.682      295.326      359.778      470.106        0.197        0.056       52.860       14.279        0.073      337.460        9.448      860.559
04/24/2014  04:15:00      -68.342       -5.522        2.847       44.274       45.932       18.561     1960.201     2109.736      344.498        0.456        0.221       68.564       12.383        0.033      337.572        9.636      860.539
04/24/2014  04:16:00      -36.698      -41.880       -3.483       48.247       20.723       13.786     2327.749      429.453      190.047        0.303        0.147       55.684       15.948        0.082      337.538        9.579      860.533
04/24/2014  04:17:00      -39.062      -39.087        4.589       34.203       24.807       20.261     1169.841      615.404      410.522        0.263        0.110       55.259       13.296        0.058      337.462        9.451      860.537
04/24/2014  04:18:00      -92.135      -57.271       -2.924       34.302       31.225       14.674     1176.631      975.001      215.337        0.707        0.118      108.485       14.087        0.017      337.430        9.398      860.536
04/24/2014  04:19:00      -82.682      -57.216       -2.658       56.107       32.591       20.672     3148.013     1062.186      427.339        0.738        0.232      100.548       18.128        0.033      337.385        9.322      860.546
04/24/2014  04:20:00      -97.619      -14.236      -10.210       24.530       28.508       12.406      601.699      812.690      153.914        0.570        0.078       98.652       11.951        0.015      337.386        9.324      860.530
04/24/2014  04:21:00     -107.762       16.128      -13.395       51.275       20.025       12.370     2629.154      400.993      153.020        0.762        0.159      108.962       14.889        0.019      337.422        9.385      860.531
04/24/2014  04:22:00     -171.414      -13.998      -18.860       49.125       43.943       21.804     2413.239     1930.994      475.417        1.738        0.241      171.985        8.905        0.003      337.434        9.404      860.544
04/24/2014  04:23:00     -117.672      -57.030       -1.675       48.255       41.504       28.776     2328.497     1722.609      828.072        1.099        0.244      130.764       17.952        0.019      337.358        9.279      860.545
04/24/2014  04:24:00     -109.160      -26.718       -5.457       47.946       43.281       24.100     2298.831     1873.261      580.825        0.871        0.238      112.383       22.229        0.039      337.346        9.258      860.514
04/24/2014  04:25:00     -104.793      -74.150       -5.431       68.846       63.519       33.747     4739.819     4034.701     1138.863        1.321        0.496      128.374       22.864        0.032      337.321        9.214      860.528
04/24/2014  04:26:00     -101.683      -27.572       10.377       69.595       50.857       34.161     4843.458     2586.474     1166.967        0.990        0.430      105.355       30.990        0.087      337.399        9.348      860.549
04/24/2014  04:27:00     -165.840      -73.866        4.413       76.134       55.274       34.569     5796.362     3055.225     1195.006        2.151        0.502      181.546       35.127        0.037      337.740        9.917      860.577
04/24/2014  04:28:00     -253.114      -54.899        3.539       96.584       51.735       43.107     9328.389     2676.481     1858.205        4.048        0.693      258.999       48.172        0.035      337.586        9.656      860.576
04/24/2014  04:29:00     -194.281      -22.044      -13.158       58.350       44.325       28.292     3404.684     1964.708      800.416        2.229        0.308      195.528       29.658        0.023      337.697        9.844      860.539
04/24/2014  04:30:00      -92.409      -11.376       -6.126       36.045       31.906       25.485     1299.209     1017.973      649.470        0.584        0.148       93.106       24.611        0.070      337.743        9.923      860.494
04/24/2014  04:31:00     -145.220      -68.195       -1.442       81.125       47.673       34.610     6581.186     2272.723     1197.827        1.789        0.503      160.435       41.574        0.067      337.639        9.747      860.510
04/24/2014  04:32:00     -175.871     -101.325       -3.841       81.031       48.994       33.186     6566.079     2400.444     1101.289        2.564        0.503      202.971       33.734        0.028      337.558        9.611      860.549
04/24/2014  04:33:00     -176.525      -22.754        5.531       83.411       62.003       37.677     6957.423     3844.406     1419.588        2.196        0.611      177.985       44.608        0.063      337.423        9.384      860.584
04/24/2014  04:34:00     -147.864      -48.802        2.917       97.165       58.328       40.620     9440.945     3402.100     1649.997        1.937        0.725      155.710       47.980        0.095      337.372        9.299      860.574
04/24/2014  04:35:00      -92.518      -19.079        9.688       54.210       35.798       27.129     2938.767     1281.472      735.990        0.699        0.248       94.465       26.997        0.082      337.352        9.268      860.545
04/24/2014  04:36:00     -110.928      -20.585       -0.039       58.471       36.899       23.880     3418.844     1361.522      570.271        0.904        0.268      112.821       28.631        0.064      337.369        9.295      860.539
04/24/2014  04:37:00     -202.280      -54.938      -11.460       70.683       48.292       29.321     4996.074     2332.114      859.713        2.613        0.409      209.608       29.507        0.020      337.421        9.381      860.556
04/24/2014  04:38:00     -215.077      -84.732       -3.928       56.366       62.980       30.733     3177.180     3966.494      944.516        3.077        0.404      231.166       31.277        0.018      337.419        9.376      860.557
04/24/2014  04:39:00     -227.548      -74.695      -11.766       42.331       46.974       29.636     1791.887     2206.537      878.290        3.119        0.244      239.495       24.104        0.010      337.528        9.559      860.546
04/24/2014  04:40:00     -133.100      -86.713       -7.785       91.607       47.324       38.034     8391.769     2239.514     1446.548        1.868        0.604      158.855       37.128        0.055      337.572        9.636      860.568
04/24/2014  04:41:00     -149.154     -102.806       -4.736       68.043       56.456       35.412     4629.800     3187.269     1254.013        2.095        0.454      181.152       39.779        0.048      337.568        9.628      860.549
04/24/2014  04:42:00     -170.842      -70.928      -10.883       58.299       36.139       31.079     3398.762     1306.025      965.913        2.000        0.284      184.981       26.072        0.020      337.609        9.697      860.543
04/24/2014  04:43:00     -219.691      -55.134       -6.050       71.728       48.343       37.175     5144.848     2337.034     1381.994        3.010        0.443      226.504       35.663        0.025      337.620        9.712      860.548
04/24/2014  04:44:00     -186.626      -69.401       -4.414       73.082       48.178       32.215     5340.926     2321.144     1037.783        2.418        0.435      199.112       32.812        0.027      337.612        9.700      860.544
04/24/2014  04:45:00     -174.412      -32.400      -11.731       72.755       45.972       25.743     5293.344     2113.419      662.710        1.984        0.403      177.396       25.248        0.020      337.674        9.805      860.518
04/24/2014  04:46:00     -111.013      -44.843       -2.309       59.969       50.098       27.128     3596.265     2509.840      735.926        1.059        0.342      119.728       25.837        0.047      337.754        9.942      860.496
04/24/2014  04:47:00     -129.404      -87.677        3.264       90.671       54.418       39.068     8221.164     2961.290     1526.336        1.857        0.635      156.309       39.950        0.065      337.702        9.853      860.513
04/24/2014  04:48:00      -90.452      -20.503       10.206       76.964       52.597       34.331     5923.504     2766.422     1178.588        0.929        0.493       92.746       38.905        0.176      337.600        9.683      860.536
04/24/2014  04:49:00     -134.234      -28.206       -4.732      103.167       61.796       41.161    10643.457     3818.688     1694.201        1.749        0.808      137.165       51.810        0.143      337.736        9.909      860.520
04/24/2014  04:50:00     -168.653      -35.612        4.665       63.415       45.526       33.276     4021.465     2072.604     1107.287        1.847        0.360      172.372       30.864        0.032      337.703        9.854      860.523
04/24/2014  04:51:00     -245.076      -78.446      -14.375       93.002       69.065       39.603     8649.289     4769.919     1568.369        4.070        0.749      257.325       46.852        0.033      338.011       10.370      860.541
04/24/2014  04:52:00     -155.131       57.113      -15.175      134.996       76.307       45.305    18223.971     5822.796     2052.537        2.682        1.305      165.311       63.018        0.145      338.560       11.292      860.484
04/24/2014  04:53:00     -185.191     -121.604        6.488      128.343       81.763       52.065    16471.987     6685.266     2710.768        3.749        1.293      221.547       46.690        0.044      338.256       10.780      860.534
04/24/2014  04:54:00     -131.123      -33.044       -2.328       67.328       61.906       42.345     4533.033     3832.409     1793.070        1.422        0.508      135.222       40.868        0.091      338.250       10.773      860.515
04/24/2014  04:55:00     -129.518      -63.380       -7.318       56.106       39.973       20.649     3147.914     1597.811      426.401        1.301        0.259      144.195       17.237        0.014      338.142       10.592      860.493
04/24/2014  04:56:00     -112.934      -64.738       -4.866       52.168       37.053       26.771     2721.489     1372.937      716.685        1.089        0.241      130.173       25.736        0.039      338.110       10.540      860.467
04/24/2014  04:57:00     -135.187      -17.757        2.146       66.794       45.819       32.482     4461.432     2099.385     1055.048        1.310        0.381      136.349       33.497        0.060      338.262       10.793      860.404
04/24/2014  04:58:00      -93.934      -90.647        5.154       54.546       66.826       26.510     2975.308     4465.682      702.796        1.260        0.407      130.539       23.535        0.033      338.428       11.071      860.385
04/24/2014  04:59:00      -43.440      -91.456       10.246       35.094       41.251       23.746     1231.587     1701.635      563.865        0.693        0.175      101.248       20.472        0.041      338.374       10.982      860.379
04/24/2014  05:00:00      -38.410      -77.255        0.669       40.894       40.696       26.289     1672.306     1656.168      691.111        0.573        0.201       86.276       18.395        0.045      338.351       10.944      860.392
04/24/2014  05:01:00      -47.024      -20.994        7.884       30.793       25.708       16.601      948.198      660.884      275.604        0.230        0.094       51.498       17.211        0.112      338.337       10.920      860.374
04/24/2014  05:02:00       -7.987       18.953       18.513       26.042       14.482       14.131      678.207      209.723      199.681        0.093        0.054       20.567       12.152        0.349      338.161       10.623      860.333
04/24/2014  05:03:00      -28.838      -18.812        6.907       15.997       23.729       13.533      255.919      563.049      183.143        0.112        0.050       34.431       12.315        0.128      338.224       10.731      860.305
04/24/2014  05:04:00       53.335      -14.277        9.507       55.577       41.757       35.124     3088.804     1743.689     1233.691        0.460        0.303       55.213       27.689        0.252      338.172       10.642      860.268
04/24/2014  05:05:00      -28.139      -71.016      -15.589       41.955       42.462       31.149     1760.219     1803.050      970.249        0.530        0.227       76.388       11.451        0.022      338.258       10.787      860.238
04/24/2014  05:06:00      -68.750      -26.416       -8.245       68.131       29.264       25.260     4641.898      856.396      638.063        0.581        0.307       73.650       24.526        0.111      338.257       10.785      860.209
04/24/2014  05:07:00      -18.636       11.116       -9.702       56.516       38.903       24.312     3194.036     1513.452      591.094        0.293        0.265       21.700       23.118        1.135      338.483       11.165      860.195
04/24/2014  05:08:00      -66.998        8.522       -1.052       19.249       21.490       13.319      370.540      461.830      177.401        0.279        0.050       67.538       12.424        0.034      338.448       11.106      860.212
04/24/2014  05:09:00      -55.508       32.744      -12.972       13.998       22.168       11.637      195.946      491.415      135.429        0.257        0.041       64.446        6.569        0.010      338.501       11.193      860.258
04/24/2014  05:10:00      -79.430       15.726       -6.095       40.029       34.065       19.065     1602.356     1160.418      363.493        0.486        0.156       80.971       20.836        0.066      338.411       11.044      860.309
04/24/2014  05:11:00     -166.559       -5.850      -11.007       44.817       24.030       23.142     2008.606      577.437      535.535        1.551        0.156      166.661       23.830        0.020      338.142       10.591      860.362
04/24/2014  05:12:00     -105.606       19.145       -7.619       43.706       23.237       16.514     1910.181      539.956      272.702        0.715        0.136      107.327       14.856        0.019      338.117       10.550      860.365
04/24/2014  05:13:00      -66.569       10.551      -10.131       25.779       18.818       15.013      664.556      354.119      225.378        0.294        0.062       67.400       14.630        0.047      338.153       10.612      860.364
04/24/2014  05:14:00      -79.746       -9.964       -6.060       34.822       20.917       16.682     1212.599      437.532      278.297        0.421        0.096       80.366       17.080        0.045      338.196       10.684      860.374
04/24/2014  05:15:00     -174.979      -39.826      -13.386       57.401       40.563       30.257     3294.890     1645.397      915.503        1.912        0.293      179.454       23.529        0.017      338.047       10.431      860.388
04/24/2014  05:16:00     -151.410      -55.233      -18.196       32.559       43.063       27.165     1060.095     1854.444      737.922        1.498        0.183      161.169       18.552        0.013      338.038       10.418      860.423
04/24/2014  05:17:00      -58.825      -54.466       11.660       58.898       45.130       32.337     3468.937     2036.744     1045.661        0.656        0.328       80.169       30.064        0.141      337.949       10.269      860.454
04/24/2014  05:18:00      -95.048      -92.552        9.048       71.336       50.209       39.337     5088.823     2520.958     1547.412        1.342        0.458      132.664       40.682        0.094      337.965       10.295      860.459
04/24/2014  05:19:00     -178.008     -136.543       -5.025       70.044       72.466       41.084     4906.104     5251.367     1687.911        3.110        0.592      224.345       36.999        0.027      338.324       10.896      860.438
04/24/2014  05:20:00     -104.168      -42.430       15.832      139.671       81.153       50.736    19508.104     6585.736     2574.101        2.078        1.433      112.477       61.645        0.300      338.183       10.660      860.411
04/24/2014  05:21:00      -72.667      -67.106        9.604       63.353       56.280       33.731     4013.575     3167.420     1137.761        0.910        0.416       98.912       33.704        0.116      338.347       10.936      860.409
04/24/2014  05:22:00      -85.219      -70.308       -0.864       63.447       51.199       23.838     4025.569     2621.301      568.232        0.971        0.361      110.478       27.932        0.064      338.419       11.058      860.406
04/24/2014  05:23:00     -206.799      -93.106       -6.534       60.742       48.851       30.931     3689.549     2386.413      956.705        2.925        0.352      226.792       22.704        0.010      338.458       11.119      860.409
04/24/2014  05:24:00     -105.720      -33.676        5.156       66.148       46.893       37.375     4375.524     2198.919     1396.918        1.015        0.399      110.954       39.597        0.127      338.432       11.080      860.396
04/24/2014  05:25:00      -16.165        4.126       31.018       42.545       34.266       27.558     1810.049     1174.191      759.418        0.249        0.187       16.683       22.051        1.747      338.225       10.732      860.387
04/24/2014  05:26:00      -39.081      -16.587        9.673       32.753       29.173       19.182     1072.788      851.065      367.935        0.209        0.115       42.455       13.482        0.101      338.201       10.692      860.371
04/24/2014  05:27:00      -74.511      -41.183        9.045       50.894       34.788       25.332     2590.237     1210.218      641.715        0.589        0.222       85.135       24.419        0.082      338.152       10.610      860.347
04/24/2014  05:28:00     -130.509      -39.468       -6.899       35.564       44.078       24.640     1264.776     1942.863      607.113        1.123        0.191      136.346       19.729        0.021      338.103       10.527      860.333
04/24/2014  05:29:00     -111.549      -66.053       -2.809       42.219       36.670       21.444     1782.412     1344.689      459.862        1.020        0.179      129.638       17.995        0.019      337.965       10.295      860.329
04/24/2014  05:30:00      -59.951      -22.741       -1.009       23.546       27.495       15.387      554.399      755.993      236.751        0.283        0.077       64.119       10.233        0.025      337.870       10.136      860.319
04/24/2014  05:31:00      -20.042       -1.574        5.828       23.044       19.418       10.858      531.036      377.059      117.892        0.073        0.051       20.104        5.203        0.067      337.833       10.073      860.327
04/24/2014  05:32:00       15.694        4.911        8.830       12.203       15.004       11.524      148.915      225.130      132.798        0.043        0.025       16.445        9.083        0.305      337.847       10.097      860.348
04/24/2014  05:33:00      -47.411      -13.892       -5.831       25.264       20.590       12.187      638.254      423.967      148.531        0.184        0.061       49.404        6.403        0.017      338.003       10.359      860.394
04/24/2014  05:34:00     -130.409      -52.921       -4.546       50.283       40.245       22.276     2528.402     1619.658      496.218        1.224        0.232      140.738       16.641        0.014      337.889       10.168      860.453
04/24/2014  05:35:00     -118.115      -55.723       -1.906       48.881       40.010       23.032     2389.373     1600.812      530.458        1.079        0.226      130.600       21.337        0.027      337.819       10.050      860.506
04/24/2014  05:36:00     -101.549       -1.183       -3.299       42.897       31.870       20.832     1840.175     1015.695      433.990        0.681        0.164      101.556       18.660        0.034      337.828       10.065      860.536
04/24/2014  05:37:00      -25.324       56.563        0.399       38.961       26.516       15.629     1517.944      703.108      244.273        0.315        0.123       61.973       15.687        0.064      337.985       10.330      860.513
04/24/2014  05:38:00       61.051       37.720      -17.051       39.535       40.320       23.554     1562.991     1625.695      554.807        0.459        0.187       71.764       23.012        0.103      338.000       10.353      860.439
04/24/2014  05:39:00       12.412      -42.776       -0.771       19.166       24.053       20.809      367.326      578.569      433.015        0.168        0.069       44.540       15.994        0.129      338.038       10.417      860.415
04/24/2014  05:40:00       44.966      -48.908       -4.954       45.128       34.161       27.309     2036.496     1166.944      745.775        0.419        0.197       66.438       20.690        0.097      338.121       10.557      860.380
04/24/2014  05:41:00      -25.785      -58.304       10.376       38.395       40.748       33.976     1474.143     1660.388     1154.388        0.423        0.214       63.751       18.374        0.083      338.183       10.659      860.324
04/24/2014  05:42:00      -33.920      -11.551       12.646       19.910       24.493       15.438      396.411      599.925      238.340        0.134        0.062       35.832        9.891        0.076      338.186       10.666      860.289
04/24/2014  05:43:00      -44.021      -10.473        2.776       31.304       31.106       18.168      979.966      967.572      330.058        0.217        0.114       45.250       17.368        0.147      338.223       10.729      860.307
04/24/2014  05:44:00      -29.036       40.973      -10.045       15.314       19.233       14.290      234.528      369.893      204.193        0.172        0.040       50.218        5.824        0.013      338.199       10.689      860.354
04/24/2014  05:45:00      -42.788       33.122        9.727       54.351       37.216       24.061     2953.998     1385.052      578.938        0.397        0.246       54.110       26.361        0.237      338.198       10.686      860.362
04/24/2014  05:46:00       40.713       45.410       18.233       24.394       24.698       23.387      595.072      609.996      546.945        0.290        0.088       60.989       16.750        0.075      338.134       10.579      860.364
04/24/2014  05:47:00      -26.758        3.543        4.032       25.556       14.515       20.038      653.115      210.676      401.520        0.100        0.063       26.992       14.777        0.300      338.102       10.524      860.383
04/24/2014  05:48:00      -65.099       -2.245       -3.046       28.266       35.037       18.744      798.939     1227.593      351.329        0.331        0.119       65.138       15.092        0.054      338.127       10.568      860.404
04/24/2014  05:49:00      -69.333      -16.885       -1.174       34.392       27.879       18.314     1182.835      777.258      335.416        0.369        0.115       71.359       20.838        0.085      338.073       10.478      860.408
04/24/2014  05:50:00      -78.589      -23.545      -10.080       46.982       28.570       13.863     2207.312      816.245      192.180        0.502        0.161       82.041       15.620        0.036      337.954       10.276      860.406
04/24/2014  05:51:00      -15.602        4.881        5.687       18.407       14.382        8.725      338.800      206.829       76.122        0.046        0.031       16.348        6.629        0.164      337.981       10.322      860.409
04/24/2014  05:52:00       31.999       51.341        0.850       23.312       17.581       17.165      543.440      309.076      294.623        0.240        0.057       60.497        6.681        0.012      338.108       10.537      860.384
04/24/2014  05:53:00       -3.787       33.317      -19.481       41.608       18.899       20.988     1731.230      357.170      440.484        0.202        0.126       33.532       16.650        0.247      338.296       10.850      860.379
04/24/2014  05:54:00        6.056       33.043       22.907       31.772       24.642       12.054     1009.458      607.227      145.294        0.171        0.088       33.594        8.793        0.069      338.280       10.824      860.369
04/24/2014  05:55:00       33.331       46.440       54.700       30.815       28.867       23.624      949.553      833.277      558.104        0.430        0.117       57.163       17.793        0.097      338.002       10.359      860.353
04/24/2014  05:56:00        8.953       13.736       59.620       27.983       46.418       29.552      783.024     2154.613      873.328        0.382        0.191       16.397       29.834        3.311      337.895       10.178      860.338
04/24/2014  05:57:00      -15.644       72.761       99.154       19.529       41.348       23.635      381.374     1709.632      558.596        0.901        0.132       74.424       26.070        0.123      337.923       10.226      860.348
04/24/2014  05:58:00       31.373        9.243       26.808       27.375       25.218       24.170      749.369      635.948      584.198        0.188        0.098       32.706       16.026        0.240      337.800       10.019      860.358
04/24/2014  05:59:00       -9.878       -1.633       14.166        9.639       12.752        7.303       92.914      162.608       53.338        0.030        0.015       10.012        5.831        0.339      337.904       10.192      860.373
04/24/2014  06:00:00       -5.576        1.682        4.497        9.267       15.892       11.285       85.868      252.540      127.362        0.026        0.023        5.825       10.678        3.361      337.979       10.320      860.371
04/24/2014  06:01:00     -113.445      -38.516       -4.108       64.732       32.592       18.136     4190.295     1062.243      328.927        0.997        0.279      119.805       14.957        0.016      337.982       10.324      860.374
04/24/2014  06:02:00     -103.993      -40.959        9.947       93.155       60.873       39.176     8677.945     3705.496     1534.789        1.325        0.696      111.768       39.829        0.127      337.897       10.180      860.392
04/24/2014  06:03:00     -136.860      -59.573       -7.408       54.936       41.779       25.517     3017.931     1745.452      651.125        1.387        0.271      149.263        6.642        0.002      337.821       10.054      860.412
04/24/2014  06:04:00       -4.801      -26.311       15.998       51.426       68.960       26.629     2644.683     4755.477      709.107        0.454        0.405       26.746       31.236        1.364      337.961       10.290      860.393
04/24/2014  06:05:00       -0.659       30.235       76.504       24.673       54.311       35.564      608.752     2949.705     1264.805        0.579        0.241       30.242       30.484        1.016      337.777        9.981      860.355
04/24/2014  06:06:00       30.685       -4.409       43.400       38.287       70.615       47.831     1465.868     4986.501     2287.823        0.579        0.437       31.000       39.158        1.596      337.819       10.050      860.349
04/24/2014  06:07:00       29.064       14.553       49.714       48.324       30.920       25.551     2335.191      956.072      652.852        0.374        0.197       32.504       25.101        0.596      337.894       10.176      860.357
04/24/2014  06:08:00       21.992       74.737        8.367       35.164       32.127       38.746     1236.535     1032.146     1501.278        0.495        0.188       77.905       24.267        0.097      337.921       10.221      860.384
04/24/2014  06:09:00       33.018       54.438        6.775       24.734       35.554       26.211      611.770     1264.061      687.023        0.333        0.128       63.668       21.530        0.114      337.905       10.195      860.401
04/24/2014  06:10:00       67.723       -4.963       15.175       32.630       23.125       23.400     1064.693      534.763      547.577        0.349        0.107       67.904       13.460        0.039      337.902       10.189      860.415
04/24/2014  06:11:00      131.758     -132.911       -2.717      101.286      111.036       53.015    10258.918    12329.012     2810.587        3.021        1.270      187.151       53.280        0.081      337.806       10.026      860.406
04/24/2014  06:12:00       68.717      -33.784       90.223       99.584      193.211      101.387     9916.921    37330.355    10279.383        3.575        2.876       76.573      139.400        3.314      337.561        9.617      860.353
04/24/2014  06:13:00       61.547      -21.641       78.431       79.817      105.966       83.765     6370.747    11228.884     7016.536        1.751        1.231       65.241       86.206        1.746      337.455        9.440      860.364
04/24/2014  06:14:00      115.945      -88.601       14.069       83.034      115.456       69.541     6894.593    13330.200     4835.945        2.327        1.253      145.923       82.784        0.322      337.319        9.211      860.387
04/24/2014  06:15:00      122.417      -96.316        8.984       90.727       90.680       59.405     8231.312     8222.891     3528.937        2.216        0.999      155.765       70.349        0.204      337.295        9.173      860.432
04/24/2014  06:16:00       74.776      -70.144       32.707       49.809       98.616       51.528     2480.983     9725.065     2655.140        1.322        0.743      102.526       62.384        0.370      337.283        9.152      860.459
04/24/2014  06:17:00       62.220     -109.869       -3.006       41.237       63.827       40.740     1700.480     4073.910     1659.785        1.169        0.372      126.263       35.107        0.077      337.312        9.199      860.476
04/24/2014  06:18:00      108.470     -115.331       17.712       94.891      140.221       82.324     9004.303    19661.893     6777.187        3.040        1.772      158.325      106.375        0.451      337.347        9.257      860.464
04/24/2014  06:19:00       53.290      -23.974       66.658       94.500      152.185      117.425     8930.342    23160.145    13788.655        2.686        2.294       58.434      120.232        4.234      337.202        9.016      860.424
04/24/2014  06:20:00       37.089        2.518      107.350       67.309      118.744       62.496     4530.448    14100.100     3905.775        1.772        1.127       37.175       49.159        1.749      337.061        8.779      860.411
04/24/2014  06:21:00      108.215     -123.134       30.106       88.607      129.982       70.171     7851.181    16895.241     4924.036        2.872        1.484      163.928       75.572        0.213      337.121        8.878      860.417
04/24/2014  06:22:00       60.406      -24.327       58.643       74.139       84.346       54.965     5496.578     7114.211     3021.130        1.165        0.782       65.121       38.829        0.356      337.078        8.807      860.428
04/24/2014  06:23:00       98.091     -120.856       15.012       61.533       78.002       43.471     3786.300     6084.334     1889.730        1.810        0.588      155.654       43.072        0.077      337.082        8.815      860.463
04/24/2014  06:24:00      135.384     -189.048      -22.528       66.378       43.609       33.513     4406.066     1901.743     1123.102        3.100        0.372      232.525       32.225        0.019      337.147        8.920      860.469
04/24/2014  06:25:00       59.159      -92.230       -0.654       80.512       82.915       54.496     6482.200     6874.885     2969.855        1.416        0.816      109.572       65.034        0.352      337.138        8.908      860.466
04/24/2014  06:26:00       91.002     -133.729      -12.764       52.893       94.424       63.450     2797.644     8915.816     4025.923        2.103        0.787      161.755       65.390        0.163      337.098        8.840      860.447
04/24/2014  06:27:00       -0.623      -77.211      -24.452       55.540       61.492       36.834     3084.645     3781.306     1356.775        0.739        0.411       77.213       29.325        0.144      337.133        8.899      860.446
04/24/2014  06:28:00      -42.609      -18.865       -4.176       29.317       14.015       11.087      859.479      196.430      122.921        0.168        0.059       46.598        6.482        0.019      337.179        8.980      860.440
04/24/2014  06:29:00       17.146      -33.008        5.654       49.251       72.615       22.176     2425.667     5272.963      491.785        0.480        0.410       37.196       14.123        0.144      337.168        8.960      860.428
04/24/2014  06:30:00       67.687      -76.428       -8.209       36.656       38.266       19.870     1343.647     1464.291      394.831        0.685        0.160      102.092       12.405        0.015      337.230        9.065      860.438
04/24/2014  06:31:00        7.464      -39.293       -2.176       34.608       35.931       22.062     1197.742     1291.026      486.727        0.229        0.149       39.996       20.182        0.255      337.319        9.214      860.473
04/24/2014  06:32:00      -47.537        2.731        3.984       34.646       35.021       16.812     1200.330     1226.438      282.644        0.250        0.135       47.616       15.982        0.113      337.268        9.128      860.483
04/24/2014  06:33:00      -14.435       18.749       11.289       20.185       13.412       10.728      407.452      179.871      115.099        0.069        0.035       23.662        7.309        0.095      337.245        9.090      860.491
04/24/2014  06:34:00       18.750       32.732        9.735       20.428       13.539        8.842      417.312      183.309       78.186        0.110        0.034       37.722        7.470        0.039      337.227        9.061      860.482
04/24/2014  06:35:00      -20.983      -15.699       -4.827       14.797       21.764       14.248      218.964      473.679      203.010        0.080        0.045       26.206       12.392        0.224      337.278        9.145      860.469
04/24/2014  06:36:00      -22.322       -4.085       19.056       26.972       45.475       21.541      727.501     2067.978      464.013        0.207        0.163       22.693       21.396        0.889      337.295        9.173      860.448
04/24/2014  06:37:00       15.327      -14.201       25.446       39.815       47.545       30.319     1585.256     2260.492      919.235        0.292        0.238       20.894       20.129        0.928      337.223        9.053      860.446
04/24/2014  06:38:00       26.767      -52.734       23.960       47.741       54.418       40.398     2279.174     2961.319     1631.993        0.547        0.344       59.138       34.236        0.335      337.317        9.210      860.422
04/24/2014  06:39:00       10.077      -65.195       -0.002       29.684       39.310       23.791      881.131     1545.238      566.027        0.367        0.150       65.969       21.637        0.108      337.367        9.294      860.405
04/24/2014  06:40:00      -23.221        2.673       14.542       12.669       15.687       13.075      160.511      246.077      170.954        0.067        0.029       23.374        7.024        0.090      337.305        9.189      860.379
04/24/2014  06:41:00       -8.407        5.804        6.143        8.607       16.054        7.860       74.073      257.728       61.775        0.027        0.020       10.216        6.754        0.437      337.307        9.194      860.365
04/24/2014  06:42:00      -11.425       -1.785       10.325       11.331       10.851        8.227      128.390      117.750       67.691        0.028        0.016       11.564        7.809        0.456      337.346        9.257      860.366
04/24/2014  06:43:00      -17.588      -15.417        2.838        9.770        9.392        6.182       95.457       88.207       38.220        0.039        0.011       23.389        2.661        0.013      337.461        9.450      860.374
04/24/2014  06:44:00      -28.709       -5.530       -1.364       18.811        7.725        7.912      353.852       59.668       62.594        0.067        0.024       29.237        2.363        0.007      337.476        9.477      860.388
04/24/2014  06:45:00      -35.078      -16.783       -1.399       18.085       15.204       10.547      327.067      231.175      111.236        0.109        0.033       38.886        8.483        0.048      337.484        9.489      860.399
04/24/2014  06:46:00       -8.017        0.739       14.256       29.298       17.807       13.909      858.393      317.078      193.456        0.082        0.068        8.051       15.234        3.581      337.550        9.600      860.405
04/24/2014  06:47:00        7.951      -46.568       -5.838       23.312       32.332       20.272      543.446     1045.385      410.939        0.213        0.100       47.242       16.481        0.122      337.637        9.745      860.415
04/24/2014  06:48:00       10.161      -22.131        1.112       19.795       22.415       15.785      391.860      502.410      249.178        0.087        0.057       24.352        8.459        0.121      337.635        9.744      860.430
04/24/2014  06:49:00      -17.813      -20.114       -7.410       32.223       30.289       17.631     1038.329      917.427      310.856        0.152        0.113       26.868       13.367        0.248      337.641        9.752      860.448
04/24/2014  06:50:00       -9.668      -41.104        9.059       30.492       21.473       20.971      929.749      461.083      439.795        0.185        0.092       42.225       11.649        0.076      337.695        9.844      860.441
04/24/2014  06:51:00      -37.797      -52.750       -3.948       23.605       26.085       15.463      557.201      680.442      239.117        0.285        0.074       64.894       10.680        0.027      337.701        9.854      860.425
04/24/2014  06:52:00      -24.655      -44.570       -5.602       26.456       30.351       26.258      699.942      921.186      689.502        0.247        0.116       50.935       14.284        0.079      337.759        9.950      860.417
04/24/2014  06:53:00      -12.288      -47.558      -10.116       22.458       25.412       13.434      504.370      645.784      180.477        0.192        0.067       49.120       10.493        0.046      337.702        9.854      860.434
04/24/2014  06:54:00      -14.404      -11.798       -5.254       17.966       19.667       10.763      322.788      386.791      115.853        0.060        0.041       18.619        8.763        0.222      337.681        9.819      860.460
04/24/2014  06:55:00       -9.982      -22.006       -0.230       25.493       20.651       22.159      649.873      426.453      491.020        0.108        0.078       24.164       10.705        0.196      337.703        9.855      860.492
04/24/2014  06:56:00      -18.818      -24.818        7.323       46.239       25.755       23.069     2138.023      663.295      532.157        0.218        0.167       31.146       23.849        0.586      337.687        9.829      860.516
04/24/2014  06:57:00      -48.037      -63.074       -0.224       39.909       40.522       23.947     1592.725     1642.011      573.462        0.505        0.190       79.283       23.689        0.089      337.599        9.682      860.525
04/24/2014  06:58:00      -74.274      -64.803       -0.067       31.113       42.128       20.392      968.002     1774.767      415.834        0.644        0.158       98.570       18.966        0.037      337.525        9.557      860.537
04/24/2014  06:59:00      -81.183      -58.513        7.772       53.647       40.707       31.040     2877.984     1657.038      963.510        0.779        0.275      100.072       23.523        0.055      337.580        9.650      860.567
04/24/2014  07:00:00      -79.795      -60.355        3.212       54.569       31.745       25.552     2977.798     1007.736      652.928        0.733        0.232      100.049       22.462        0.050      337.580        9.649      860.593
04/24/2014  07:01:00       -0.191       -3.606        1.661       29.335       27.813       19.829      860.553      773.567      393.180        0.102        0.101        3.612       21.693       36.080      337.583        9.655      860.590
04/24/2014  07:02:00      -26.252       -6.772       -1.049       23.047       21.873       21.324      531.175      478.428      454.717        0.110        0.073       27.111       14.338        0.280      337.619        9.715      860.597
04/24/2014  07:03:00        7.817        7.312       10.198       19.317       11.385       10.875      373.152      129.616      118.272        0.042        0.031       10.704       12.425        1.347      337.595        9.675      860.612
04/24/2014  07:04:00       72.507       52.249       16.391       33.487       28.110       24.024     1121.390      790.167      577.162        0.537        0.124       89.371       13.322        0.022      337.495        9.506      860.610
04/24/2014  07:05:00       94.691       45.881        1.700       35.282       28.866       27.089     1244.837      833.237      733.801        0.694        0.141      105.221       16.257        0.024      337.346        9.258      860.640
04/24/2014  07:06:00      105.810       57.505        4.775       30.887       31.154       27.731      954.005      970.594      769.005        0.861        0.135      120.427       19.839        0.027      337.224        9.055      860.665
04/24/2014  07:07:00      142.835       72.041        5.386       46.409       40.007       32.904     2153.759     1600.590     1082.684        1.523        0.242      159.974       28.356        0.031      337.124        8.885      860.649
04/24/2014  07:08:00      140.240       90.153        8.431       38.488       32.285       27.297     1481.320     1042.340      745.142        1.557        0.163      166.718       20.230        0.015      337.096        8.839      860.664
04/24/2014  07:09:00      145.576       88.134        4.039       39.301       26.550       24.757     1544.565      704.898      612.915        1.592        0.143      170.176       15.345        0.008      337.027        8.723      860.706
04/24/2014  07:10:00      170.918       92.425       11.078       57.838       50.897       39.417     3345.201     2590.491     1553.670        2.268        0.374      194.308       11.930        0.004      337.102        8.846      860.743
04/24/2014  07:11:00      184.506      100.771       23.670       71.546       43.313       44.553     5118.901     1876.040     1984.951        2.687        0.449      210.232       27.796        0.017      337.144        8.916      860.754
04/24/2014  07:12:00      126.182       67.845        7.859       71.602       61.767       33.180     5126.864     3815.160     1100.886        1.531        0.502      143.265       29.547        0.043      337.144        8.918      860.783
04/24/2014  07:13:00      116.008       52.400       21.815       55.192       40.159       41.007     3046.169     1612.730     1681.549        1.151        0.317      127.294       22.230        0.030      337.108        8.858      860.815
04/24/2014  07:14:00      126.502       65.635       36.615       54.135       56.094       40.425     2930.548     3146.509     1634.150        1.468        0.386      142.516       30.075        0.045      337.126        8.888      860.832
04/24/2014  07:15:00      154.684       81.726       51.528       78.654       57.820       51.839     6186.482     3343.206     2687.290        2.274        0.611      174.947       34.092        0.038      337.112        8.863      860.828
04/24/2014  07:16:00      170.639       52.040       12.312       76.202       63.505       44.133     5806.761     4032.917     1947.720        2.188        0.589      178.398       36.139        0.041      337.047        8.754      860.809
04/24/2014  07:17:00      131.458       55.652       62.492       77.100       55.134       60.198     5944.461     3039.752     3623.797        1.844        0.630      142.753       36.256        0.065      337.057        8.771      860.796
04/24/2014  07:18:00      106.542       83.135       32.076       58.876       53.189       48.031     3466.354     2829.079     2306.953        1.395        0.430      135.139       34.779        0.066      337.081        8.812      860.809
04/24/2014  07:19:00      157.932       45.238       55.590       72.826       61.811       56.416     5303.697     3820.653     3182.733        2.119        0.615      164.283       43.216        0.069      337.111        8.862      860.825
04/24/2014  07:20:00       96.477       77.372       55.861       56.533       56.530       39.274     3196.003     3195.651     1542.450        1.317        0.397      123.670       37.080        0.090      337.156        8.940      860.807
04/24/2014  07:21:00       80.604       45.080       29.270       39.650       30.767       33.816     1572.158      946.610     1143.520        0.652        0.183       92.354       22.606        0.060      337.214        9.037      860.820
04/24/2014  07:22:00       34.818       17.300       14.727       33.421       36.489       21.891     1116.962     1331.465      479.212        0.233        0.146       38.879       20.348        0.274      337.351        9.266      860.841
04/24/2014  07:23:00       78.985        6.981       25.105       45.998       38.342       36.534     2115.815     1470.111     1334.715        0.592        0.246       79.292       29.453        0.138      337.172        8.966      860.832
04/24/2014  07:24:00       58.703       58.467       57.608       54.367       39.052       37.664     2955.779     1525.090     1418.592        0.804        0.295       82.852       29.205        0.124      337.148        8.927      860.813
04/24/2014  07:25:00        0.964       10.889       48.565       21.956       43.965       21.459      482.077     1932.928      460.498        0.268        0.144       10.932       22.630        4.286      337.388        9.330      860.805
04/24/2014  07:26:00       13.908       28.828       43.530       30.969       26.076       26.499      959.084      679.976      702.191        0.263        0.117       32.008       18.350        0.329      337.452        9.435      860.813
04/24/2014  07:27:00       63.008       17.059       24.724       21.067       23.581       22.821      443.828      556.058      520.813        0.320        0.076       65.276       13.993        0.046      337.226        9.058      860.833
04/24/2014  07:28:00       21.848        6.128        4.777       24.685       23.408       15.693      609.328      547.948      246.260        0.097        0.070       22.691       13.751        0.367      337.326        9.225      860.860
04/24/2014  07:29:00       39.386       33.948        7.155       16.608       11.740       14.132      275.832      137.831      199.712        0.168        0.031       51.997        9.753        0.035      337.263        9.119      860.835
04/24/2014  07:30:00       78.298       67.483       13.923       43.379       27.677       28.349     1881.780      766.014      803.692        0.716        0.173      103.366       18.067        0.031      337.389        9.330      860.782
04/24/2014  07:31:00       45.318       22.667       28.871       30.024       27.858       28.423      901.442      776.066      807.843        0.294        0.124       50.671       17.820        0.124      337.530        9.567      860.793
04/24/2014  07:32:00       26.744      -48.818      -17.879       22.323       32.184       14.829      498.303     1035.779      219.898        0.259        0.088       55.663        6.618        0.014      337.510        9.532      860.807
04/24/2014  07:33:00       59.457      -46.711       -1.417       46.476       57.742       38.092     2160.005     3334.133     1450.965        0.633        0.347       75.611       37.286        0.243      337.710        9.868      860.801
04/24/2014  07:34:00       49.397       -8.626       25.829       48.616       50.790       43.571     2363.475     2579.616     1898.435        0.501        0.342       50.144       45.229        0.814      337.630        9.733      860.754
04/24/2014  07:35:00       67.019      -75.296      -16.972       32.375       37.900       21.740     1048.129     1436.377      472.637        0.670        0.148      100.802       18.219        0.033      337.556        9.608      860.723
04/24/2014  07:36:00       20.516       12.406       -4.863       23.069       21.771       21.167      532.162      473.965      448.035        0.103        0.073       23.976       15.697        0.429      337.763        9.958      860.723
04/24/2014  07:37:00        4.536       11.543       28.830       16.038       16.989       11.205      257.230      288.613      125.546        0.083        0.034       12.402        8.774        0.501      338.291       10.843      860.726
04/24/2014  07:38:00      -10.536        5.830       11.349       13.776       19.677       13.877      189.787      387.177      192.574        0.052        0.038       12.041        9.833        0.667      338.046       10.432      860.764
04/24/2014  07:39:00      -31.110        2.807        7.577       17.131       22.948       14.607      293.461      526.590      213.354        0.103        0.052       31.237        9.929        0.101      337.938       10.251      860.757
04/24/2014  07:40:00      -12.306      -13.740        6.818       23.252       30.402       20.532      540.669      924.269      421.571        0.114        0.094       18.445       20.202        1.200      337.864       10.129      860.720
04/24/2014  07:41:00       53.695       35.308       15.931       27.166       21.526       21.527      737.968      463.366      463.408        0.302        0.083       64.263       14.373        0.050      337.794       10.008      860.674
04/24/2014  07:42:00       39.629       18.905       11.302       34.242       25.225       22.512     1172.547      636.304      506.779        0.219        0.116       43.907       18.589        0.179      338.071       10.473      860.645
04/24/2014  07:43:00       27.553       26.392        9.357       28.988       24.759       21.061      840.308      613.005      443.577        0.172        0.095       38.154        9.249        0.059      338.150       10.607      860.653
04/24/2014  07:44:00       23.772       31.516       41.963       30.420       27.058       32.165      925.364      732.118     1034.608        0.301        0.135       39.476       21.272        0.290      338.171       10.640      860.668
04/24/2014  07:45:00       45.307       33.804       38.063       46.393       23.636       27.202     2152.353      558.681      739.936        0.405        0.173       56.528       27.898        0.244      338.054       10.446      860.665
04/24/2014  07:46:00       51.655       53.443       33.208       38.733       28.673       31.851     1500.236      822.129     1014.479        0.498        0.167       74.327       23.623        0.101      337.979       10.320      860.655
04/24/2014  07:47:00       31.680       41.181       22.131       38.664       35.645       32.572     1494.908     1270.571     1060.921        0.351        0.191       51.957       30.515        0.345      338.148       10.602      860.637
04/24/2014  07:48:00       58.701       56.205        3.505       30.498       29.808       23.760      930.123      888.509      564.521        0.450        0.119       81.270       16.341        0.040      338.016       10.382      860.620
04/24/2014  07:49:00       72.582       48.220       -0.369       28.335       29.216       25.295      802.858      853.553      639.846        0.494        0.115       87.139        6.356        0.005      337.943       10.259      860.606
04/24/2014  07:50:00       32.462       34.917       -0.500       49.972       34.367       21.574     2497.241     1181.109      465.430        0.321        0.207       47.676       18.238        0.146      337.972       10.307      860.596
04/24/2014  07:51:00      -37.210       59.685       -3.831       28.357       34.763       21.129      804.102     1208.443      446.429        0.371        0.123       70.335       18.582        0.070      338.048       10.435      860.602
04/24/2014  07:52:00      -30.362       51.914       -3.920       26.284       32.780       21.710      690.847     1074.526      471.306        0.293        0.112       60.140       19.010        0.100      338.166       10.633      860.607
04/24/2014  07:53:00        5.080       69.229       -1.156       17.172       34.939       21.374      294.869     1220.701      456.842        0.340        0.099       69.415       22.412        0.104      338.328       10.905      860.617
04/24/2014  07:54:00       14.326       50.371       11.460       23.355       29.941       24.078      545.434      896.460      579.743        0.245        0.101       52.369       21.656        0.171      338.283       10.830      860.646
04/24/2014  07:55:00       18.393       23.368       12.744       14.629       17.910       17.496      213.994      320.766      306.105        0.094        0.042       29.739       14.025        0.222      338.272       10.811      860.658
04/24/2014  07:56:00       -0.756        3.301       14.998       15.805       10.390       14.346      249.802      107.947      205.808        0.040        0.028        3.387        7.440        4.826      338.665       11.472      860.660
04/24/2014  07:57:00      -18.029        3.489       -7.832       10.355        7.250        8.875      107.219       52.564       78.760        0.032        0.012       18.363        6.202        0.114      338.203       10.696      860.672
04/24/2014  07:58:00      -63.619        0.221       -7.306       23.493       23.827       23.367      551.942      567.726      546.030        0.288        0.083       63.619       21.734        0.117      338.061       10.457      860.697
04/24/2014  07:59:00      -44.692       13.083      -16.331       13.805       15.469       10.227      190.564      239.291      104.588        0.148        0.027       46.568        4.373        0.009      338.040       10.422      860.705
04/24/2014  08:00:00        4.549       13.609        0.454       20.615       20.196       16.584      424.991      407.887      275.032        0.066        0.055       14.349       12.864        0.804      338.416       11.054      860.715
04/24/2014  08:01:00       33.389       27.517       11.187       18.973       16.051       19.786      359.977      257.634      391.478        0.150        0.050       43.267       10.751        0.062      338.320       10.892      860.716
04/24/2014  08:02:00       41.347       29.762       30.620       28.487       37.063       26.590      811.488     1373.660      707.002        0.321        0.145       50.945       21.360        0.176      338.446       11.104      860.712
04/24/2014  08:03:00       69.697       26.769       43.298       33.281       32.571       31.210     1107.595     1060.877      974.082        0.530        0.157       74.661       24.482        0.108      338.336       10.918      860.693
04/24/2014  08:04:00       30.147       40.572       53.933       31.526       35.744       24.139      993.861     1277.655      582.712        0.416        0.143       50.546       25.249        0.250      338.472       11.147      860.683
04/24/2014  08:05:00      -74.428      -59.749       -6.413       28.924       37.018       21.139      836.598     1370.363      446.839        0.590        0.133       95.443       19.638        0.042      338.360       10.959      860.682
04/24/2014  08:06:00      -39.145       -2.324        4.413       26.935       40.109       20.756      725.486     1608.743      430.799        0.216        0.138       39.214       21.040        0.288      338.590       11.344      860.692
04/24/2014  08:07:00      -21.282      -18.334        8.254       28.355       25.078       20.352      803.989      628.928      414.192        0.135        0.092       28.090       19.817        0.498      338.813       11.720      860.703
04/24/2014  08:08:00      -77.148      -18.036       -2.315       19.049       22.235       14.568      362.880      494.390      212.226        0.368        0.053       79.229        7.735        0.010      338.329       10.906      860.711
04/24/2014  08:09:00      -23.523        0.865       11.333       13.121       19.542       17.725      172.154      381.893      314.166        0.078        0.043       23.539       13.671        0.337      338.761       11.633      860.722
04/24/2014  08:10:00      -30.863        8.041        8.042       27.858       28.013       25.871      776.062      784.714      669.307        0.166        0.112       31.893       21.109        0.438      338.674       11.487      860.729
04/24/2014  08:11:00      -23.480       23.841       14.434       19.484       19.401       37.182      379.645      376.392     1382.487        0.173        0.107       33.463       17.513        0.274      338.797       11.693      860.707
04/24/2014  08:12:00       61.488       55.064       27.403       37.915       37.013       33.042     1437.573     1369.932     1091.773        0.573        0.195       82.540       30.419        0.136      338.819       11.731      860.665
04/24/2014  08:13:00       51.529       74.588       62.856       47.456       52.993       37.444     2252.040     2808.267     1402.029        0.931        0.323       90.657       26.879        0.088      338.848       11.778      860.611
04/24/2014  08:14:00       22.111       38.499       19.912       33.679       32.181       27.459     1134.257     1035.648      753.984        0.265        0.146       44.397       16.912        0.145      338.949       11.950      860.594
04/24/2014  08:15:00       -1.485      -21.752       10.069       26.670       33.623       17.010      711.302     1130.474      289.352        0.135        0.107       21.802       19.842        0.828      338.808       11.712      860.623
04/24/2014  08:16:00      -32.376       -2.780        3.250       33.824       31.684       16.472     1144.056     1003.870      271.316        0.174        0.121       32.495        7.240        0.050      338.889       11.847      860.659
04/24/2014  08:17:00      -40.940      -26.151        0.273       47.162       28.268       22.083     2224.219      799.072      487.660        0.293        0.176       48.579       21.658        0.199      338.829       11.747      860.651
04/24/2014  08:18:00      -55.940      -35.466       -8.052       34.530       37.684       21.054     1192.338     1420.070      443.253        0.375        0.153       66.235       21.406        0.104      338.618       11.392      860.608
04/24/2014  08:19:00      -20.265      -11.441       16.662       41.565       23.593       25.192     1727.639      556.650      634.640        0.187        0.146       23.272       26.957        1.342      339.086       12.179      860.555
04/24/2014  08:20:00       10.110       26.759       21.516       24.969       20.514       16.395      623.474      420.844      268.804        0.130        0.066       28.605        3.637        0.016      339.019       12.066      860.505
04/24/2014  08:21:00      -48.992       13.144       12.033       11.199       15.805       10.032      125.418      249.784      100.647        0.160        0.024       50.724        9.650        0.036      338.623       11.401      860.525
04/24/2014  08:22:00      -73.834      -23.231        1.936       14.573       22.935       12.337      212.377      526.006      152.199        0.344        0.045       77.402        8.041        0.011      338.634       11.419      860.553
04/24/2014  08:23:00      -15.745      -13.025       13.384       28.694       20.587       14.134      823.351      423.828      199.763        0.102        0.072       20.434       14.946        0.535      339.320       12.573      860.546
04/24/2014  08:24:00      -11.047      -20.757       12.921       12.487       28.970       18.626      155.917      839.252      346.927        0.103        0.067       23.514       19.392        0.680      339.359       12.640      860.524
04/24/2014  08:25:00        9.087       -8.239       15.153       16.291       30.122       17.893      265.401      907.312      320.151        0.094        0.075       12.266       15.959        1.693      339.313       12.561      860.514
04/24/2014  08:26:00       55.338       48.378       16.800       24.575       17.966       22.910      603.942      322.794      524.880        0.357        0.073       73.503        7.205        0.010      338.973       11.989      860.515
04/24/2014  08:27:00       35.014       22.618       39.289       18.472       15.611       19.635      341.230      243.712      385.521        0.213        0.049       41.684        7.970        0.037      339.138       12.266      860.518
04/24/2014  08:28:00       18.370       39.594       20.354       22.731       31.028       23.142      516.677      962.756      535.566        0.217        0.101       43.648       16.863        0.149      339.197       12.364      860.513
04/24/2014  08:29:00       21.129        0.093       33.032       25.982       22.358       21.666      675.081      499.867      469.424        0.159        0.082       21.129       14.253        0.455      339.609       13.061      860.497
04/24/2014  08:30:00       57.002       52.808       38.940       33.623       32.565       35.489     1130.523     1060.504     1259.499        0.550        0.173       77.704        8.153        0.011      339.199       12.367      860.483
04/24/2014  08:31:00       33.402       69.325       82.829       45.977       43.409       33.088     2113.858     1884.334     1094.833        0.894        0.255       76.953       24.358        0.100      339.382       12.678      860.470
04/24/2014  08:32:00       51.293       65.265       74.907       46.449       41.489       37.911     2157.554     1721.299     1437.273        0.891        0.266       83.009       29.534        0.127      339.074       12.159      860.488
04/24/2014  08:33:00       10.459      -17.194       26.166       26.462       49.229       35.579      700.249     2423.508     1265.898        0.274        0.219       20.125       36.721        3.329      339.408       12.720      860.498
04/24/2014  08:34:00       85.282       36.205       18.761       53.256       30.240       38.191     2836.179      914.475     1458.544        0.707        0.260       92.649       30.713        0.110      339.233       12.426      860.501
04/24/2014  08:35:00       87.340       48.919       30.813       54.043       46.419       34.287     2920.696     2154.710     1175.595        0.861        0.313      100.107       30.534        0.093      339.195       12.363      860.488
04/24/2014  08:36:00       76.138       62.532       51.203       62.788       38.948       36.964     3942.353     1516.935     1366.348        0.958        0.341       98.526       30.739        0.097      339.204       12.378      860.463
04/24/2014  08:37:00       74.751      -45.765        4.270       59.297       62.207       51.401     3516.140     3869.687     2642.019        0.886        0.501       87.648       46.407        0.280      339.365       12.649      860.431
04/24/2014  08:38:00        9.137        5.323       42.832       32.004       41.532       33.971     1024.282     1724.867     1154.052        0.292        0.195       10.574       33.117        9.808      339.885       13.525      860.405
04/24/2014  08:39:00       -5.398        0.907       42.556       26.453       37.618       26.164      699.737     1415.144      684.562        0.232        0.140        5.474       24.168       19.493      339.779       13.345      860.393
04/24/2014  08:40:00      -22.078      -48.188        9.090       34.838       49.257       34.712     1213.668     2426.281     1204.895        0.387        0.242       53.005        9.460        0.032      339.594       13.035      860.396
04/24/2014  08:41:00       31.853      -16.762       28.327       45.294       69.118       43.401     2051.525     4777.348     1883.610        0.540        0.436       35.994       42.184        1.374      339.840       13.449      860.415
04/24/2014  08:42:00       16.993       15.868       52.159       33.366       33.438       24.510     1113.267     1118.097      600.734        0.305        0.142       23.250       23.064        0.984      339.931       13.602      860.429
04/24/2014  08:43:00       41.326      -18.328       30.981       66.743       50.004       51.624     4454.640     2500.367     2664.989        0.631        0.481       45.208       49.780        1.212      339.906       13.561      860.413
04/24/2014  08:44:00       23.039        4.694       40.476       48.937       45.545       41.865     2394.816     2074.303     1752.662        0.421        0.311       23.512       39.627        2.840      339.978       13.682      860.406
04/24/2014  08:45:00       21.247       12.116       59.734       34.467       76.943       47.195     1187.970     5920.262     2227.400        0.675        0.467       24.459       52.598        4.624      339.958       13.649      860.395
04/24/2014  08:46:00       25.040      -75.113        5.002       39.118       74.958       55.107     1530.226     5618.681     3036.815        0.824        0.509       79.176       47.521        0.360      339.718       13.243      860.384
04/24/2014  08:47:00       70.846      -87.157        5.616       68.436      100.234       55.645     4683.489    10046.811     3096.369        1.523        0.891      112.319       69.935        0.388      339.954       13.639      860.365
04/24/2014  08:48:00        9.328       88.104      119.619       41.697       59.843       33.851     1738.655     3581.219     1145.895        1.431        0.323       88.596       37.652        0.181      339.834       13.438      860.374
04/24/2014  08:49:00       10.976       16.263       76.602       31.246       62.757       26.861      976.282     3938.429      721.528        0.594        0.282       19.621       10.910        0.309      340.015       13.745      860.388
04/24/2014  08:50:00       -7.903       21.077       70.658       36.342       56.840       35.849     1320.716     3230.808     1285.127        0.567        0.292       22.510       38.565        2.935      340.059       13.819      860.396
04/24/2014  08:51:00       23.132       -4.495       55.549       63.850       60.636       46.967     4076.872     3676.710     2205.917        0.680        0.498       23.565       21.484        0.831      339.894       13.541      860.379
04/24/2014  08:52:00       -0.383      -60.055        4.492       38.236       61.447       53.267     1461.957     3775.724     2837.393        0.585        0.404       60.056       27.128        0.204      339.913       13.573      860.387
04/24/2014  08:53:00       42.135       38.355       65.427       54.168       50.517       58.097     2934.213     2551.966     3375.229        0.819        0.443       56.977       41.464        0.530      340.028       13.765      860.364
04/24/2014  08:54:00       78.706      -54.522       10.214       82.305       77.933       65.188     6774.053     6073.505     4249.440        1.318        0.855       95.746       68.189        0.507      340.075       13.844      860.348
04/24/2014  08:55:00       34.092      -67.348       10.453       58.219       74.138       61.278     3389.472     5496.475     3755.054        0.922        0.632       75.485       52.266        0.479      340.084       13.861      860.360
04/24/2014  08:56:00       -6.139      -62.853       10.442       94.355       56.477       43.199     8902.895     3189.655     1866.193        0.903        0.698       63.152       35.712        0.320      339.942       13.622      860.372
04/24/2014  08:57:00      -18.374       23.690       50.317       16.909       27.984       16.988      285.902      783.116      288.582        0.239        0.068       29.980       15.557        0.269      340.444       14.468      860.350
04/24/2014  08:58:00        5.917       -5.386       31.925       27.850       38.136       27.974      775.604     1454.387      782.545        0.205        0.151        8.001       22.416        7.849      340.448       14.476      860.314
04/24/2014  08:59:00      -11.468       13.620       70.219       22.888       33.221       20.525      523.857     1103.625      421.279        0.365        0.102       17.805       15.102        0.719      340.404       14.402      860.286
04/24/2014  09:00:00       40.288       -7.413       42.192       55.304       71.149       38.077     3058.497     5062.151     1449.843        0.651        0.479       40.964       46.998        1.316      340.011       13.738      860.284
04/24/2014  09:01:00       52.981      -44.808       11.121       39.612       70.190       39.667     1569.142     4926.687     1573.456        0.650        0.403       69.389       38.229        0.304      340.169       14.004      860.311
04/24/2014  09:02:00       52.273      -54.440       35.329       58.733       78.796       55.022     3449.510     6208.828     3027.400        0.981        0.634       75.473       57.108        0.573      340.289       14.206      860.360
04/24/2014  09:03:00       26.386      -16.845       16.022       51.345       95.584       57.236     2636.258     9136.275     3275.967        0.814        0.752       31.305       47.477        2.300      340.416       14.422      860.415
04/24/2014  09:04:00       22.290      -39.979       44.818       52.076       79.206       45.726     2711.960     6273.621     2090.863        0.759        0.554       45.773       47.663        1.084      340.249       14.139      860.441
04/24/2014  09:05:00       46.121     -108.094       -8.427       74.620       60.148       48.968     5568.130     3617.761     2397.830        1.273        0.579      117.522       27.691        0.056      340.248       14.137      860.467
04/24/2014  09:06:00      -15.470      -92.869       14.795       57.535       72.980       46.778     3310.228     5326.061     2188.151        0.995        0.541       94.148       39.024        0.172      340.206       14.066      860.473
04/24/2014  09:07:00       69.666      -99.408       -2.781       93.569       65.312       48.135     8755.147     4265.699     2316.950        1.504        0.767      121.389       14.655        0.015      340.254       14.147      860.455
04/24/2014  09:08:00      -67.564      -37.258       10.623       50.355       73.688       40.024     2535.602     5429.968     1601.906        0.781        0.478       77.156       37.558        0.237      340.239       14.124      860.461
04/24/2014  09:09:00     -139.869      -75.227        4.964       77.089       49.025       38.868     5942.765     2403.406     1510.747        1.755        0.493      158.815       33.538        0.045      339.982       13.687      860.486
04/24/2014  09:10:00      -66.396      -53.530      -11.937       41.395       68.830       22.417     1713.556     4737.542      502.522        0.718        0.348       85.287       21.906        0.066      339.707       13.225      860.500
04/24/2014  09:11:00       24.959      -37.453       30.728       50.947       65.663       35.805     2595.606     4311.678     1282.033        0.558        0.409       45.007       28.346        0.397      340.009       13.736      860.487
04/24/2014  09:12:00      -80.910      -12.859       -3.718       39.255       36.040       33.876     1540.966     1298.887     1147.601        0.536        0.199       81.926       30.663        0.140      339.799       13.379      860.450
04/24/2014  09:13:00       -9.189      -23.917       15.786       44.772       34.429       22.587     2004.493     1185.340      510.152        0.230        0.185       25.621       20.265        0.626      340.237       14.118      860.448
04/24/2014  09:14:00       69.943      -90.068        6.595       60.401       96.801       40.673     3648.326     9370.513     1654.259        1.386        0.734      114.037       27.332        0.057      340.243       14.129      860.441
04/24/2014  09:15:00       44.672      -53.355       42.760       65.571       93.820       61.502     4299.494     8802.155     3782.492        1.177        0.844       69.587       62.074        0.796      340.475       14.521      860.438
04/24/2014  09:16:00        7.447      -18.230       50.747       45.239       77.924       61.925     2046.559     6072.079     3834.715        0.746        0.598       19.693       51.389        6.810      340.440       14.461      860.414
04/24/2014  09:17:00       73.622     -210.570      -31.537       67.769       96.677       47.490     4592.690     9346.459     2255.274        3.347        0.810      223.069       38.092        0.029      340.123       13.922      860.403
04/24/2014  09:18:00      -15.114      -35.805       12.573       41.443       66.794       36.484     1717.520     4461.447     1331.114        0.459        0.376       38.865       43.234        1.238      340.436       14.456      860.422
04/24/2014  09:19:00      -14.462       10.271       17.912       38.062       33.491       29.074     1448.740     1121.669      845.290        0.202        0.171       17.739       19.005        1.148      340.667       14.846      860.428
04/24/2014  09:20:00      -28.567      -39.729        0.859       62.912       48.277       34.548     3957.926     2330.693     1193.555        0.494        0.374       48.934       20.683        0.179      340.321       14.260      860.429
04/24/2014  09:21:00      -18.263      -92.390       -7.541       45.567       35.522       22.134     2076.389     1261.837      489.913        0.638        0.191       94.178       18.008        0.037      340.125       13.929      860.440
04/24/2014  09:22:00       24.264      -82.041       -6.129       42.882       73.231       34.762     1838.869     5362.723     1208.428        0.788        0.421       85.554       26.704        0.097      340.473       14.518      860.446
04/24/2014  09:23:00       89.012      -81.966       51.538       93.265      134.435       70.757     8698.342    18072.880     5006.483        2.453        1.589      121.002       85.535        0.500      340.319       14.256      860.411
04/24/2014  09:24:00      100.639        0.174       73.890       85.807      106.604       63.186     7362.920    11364.405     3992.483        1.915        1.136      100.639       63.039        0.392      340.289       14.205      860.372
04/24/2014  09:25:00       54.938      -97.299       19.728       73.355       77.621       55.273     5380.953     6024.949     3055.067        1.366        0.723      111.738       40.870        0.134      340.374       14.349      860.383
04/24/2014  09:26:00       30.732     -148.773      -17.876       78.408       67.148       38.693     6147.872     4508.840     1497.128        1.777        0.608      151.914       34.386        0.051      340.413       14.413      860.381
04/24/2014  09:27:00       67.049     -114.262      -21.589       75.982       81.683       43.321     5773.272     6672.116     1876.682        1.617        0.716      132.482       35.864        0.073      340.363       14.330      860.358
04/24/2014  09:28:00       15.598      -97.507       -3.645       66.589       54.390       36.360     4434.069     2958.243     1322.080        0.924        0.436       98.746       25.581        0.067      340.458       14.491      860.366
04/24/2014  09:29:00       40.493      -97.387       11.487       54.464       86.721       51.220     2966.321     7520.533     2623.525        1.218        0.656      105.470       55.991        0.282      340.618       14.763      860.391
04/24/2014  09:30:00       38.343     -145.719       11.921      104.345      112.125       64.249    10887.905    12571.952     4127.970        2.521        1.379      150.679       75.564        0.251      340.446       14.470      860.376
04/24/2014  09:31:00       36.185        1.557       81.529       74.827      112.473       77.343     5599.143    12650.172     5981.884        1.609        1.212       36.219       76.043        4.408      340.499       14.562      860.344
04/24/2014  09:32:00       34.429       64.428       95.064       61.034       58.502       42.278     3725.197     3422.454     1787.443        1.165        0.447       73.050       38.337        0.275      340.444       14.468      860.304
04/24/2014  09:33:00       26.697       41.654       59.555       50.944       72.835       49.946     2595.267     5304.880     2494.603        0.819        0.520       49.475       44.814        0.820      340.374       14.351      860.267
04/24/2014  09:34:00        7.318        0.037       21.942       39.719       41.730       32.742     1577.571     1741.393     1072.040        0.246        0.220        7.319       19.189        6.874      340.526       14.608      860.266
04/24/2014  09:35:00       59.563      -92.829        5.186       76.858       70.249       37.245     5907.078     4934.960     1387.175        1.221        0.611      110.295       17.470        0.025      340.384       14.368      860.289
04/24/2014  09:36:00       90.621      -37.743       29.056       82.647       72.706       52.007     6830.547     5286.124     2704.676        1.265        0.741       98.167       54.792        0.312      340.420       14.429      860.289
04/24/2014  09:37:00       40.776      -18.150       36.163       48.322       71.970       40.657     2334.989     5179.673     1653.007        0.623        0.458       44.633       34.486        0.597      340.825       15.114      860.295
04/24/2014  09:38:00        9.037        9.349       16.913       30.527       48.110       37.716      931.923     2314.584     1422.510        0.256        0.233       13.003       24.876        3.660      340.814       15.095      860.305
04/24/2014  09:39:00      -96.148       34.187       -5.282       24.870       26.546       17.204      618.540      704.690      295.973        0.603        0.081      102.045        9.758        0.009      340.545       14.639      860.318
04/24/2014  09:40:00      -51.661      -16.860      -11.518       36.544       37.254       16.756     1335.487     1387.858      280.777        0.304        0.150       54.343       16.253        0.089      340.621       14.769      860.345
04/24/2014  09:41:00        3.557       26.109        0.143       31.303       34.524       29.351      979.886     1191.881      861.471        0.186        0.152       26.350       18.640        0.500      340.906       15.251      860.335
04/24/2014  09:42:00       -7.584       -6.946       10.933       29.071       21.237       20.598      845.151      451.007      424.282        0.097        0.086       10.284       19.527        3.605      341.136       15.640      860.326
04/24/2014  09:43:00       18.354      -27.096       25.460       59.556       57.428       39.058     3546.890     3297.931     1525.489        0.504        0.419       32.727       33.465        1.046      341.058       15.507      860.308
04/24/2014  09:44:00      -28.925       -0.283       46.092       60.687       56.531       41.652     3682.952     3195.760     1734.905        0.579        0.431       28.926       46.648        2.601      340.773       15.025      860.324
04/24/2014  09:45:00      -11.391       12.267       40.481       42.900       55.218       26.729     1840.444     3049.075      714.453        0.376        0.280       16.740        5.504        0.108      340.831       15.123      860.308
04/24/2014  09:46:00       76.562      -78.183       18.356       70.071       69.609       44.572     4909.934     4845.463     1986.667        1.202        0.587      109.427       39.880        0.133      340.357       14.322      860.263
04/24/2014  09:47:00       17.072      -34.691        8.631       35.101       52.998       33.931     1232.069     2808.780     1151.309        0.338        0.260       38.665       23.886        0.382      340.478       14.526      860.286
04/24/2014  09:48:00       15.205      -14.575       44.734       27.988       55.634       38.545      783.336     3095.102     1485.699        0.390        0.268       21.062       32.646        2.402      340.805       15.078      860.235
04/24/2014  09:49:00      103.031     -126.424      -13.773       82.796       75.975       49.674     6855.152     5772.133     2467.511        2.094        0.755      163.090       49.969        0.094      340.333       14.281      860.236
04/24/2014  09:50:00      -26.731      -32.104       16.485       86.282       53.011       39.392     7444.610     2810.163     1551.757        0.691        0.590       41.776       34.663        0.688      340.931       15.292      860.308
04/24/2014  09:51:00     -123.595     -218.301       -2.101      215.024      145.462       70.519    46235.319    21159.271     4972.995        6.764        3.618      250.861       87.027        0.120      340.625       14.772      860.342
04/24/2014  09:52:00     -159.472     -126.973       20.514      105.753      177.965       57.524    11183.660    31671.578     3309.055        4.406        2.308      203.847       60.707        0.089      340.743       14.973      860.271
04/24/2014  09:53:00     -309.037     -295.283      -17.873      170.936      193.983       81.157    29218.967    37629.590     6586.505       12.821        3.672      427.430       84.108        0.039      340.635       14.789      860.208
04/24/2014  09:54:00     -462.271     -318.486      -16.481      169.582      155.692       80.770    28757.984    24240.087     6523.716       18.745        2.976      561.362       77.156        0.019      340.603       14.735      860.184
04/24/2014  09:55:00     -328.457     -155.203        0.476      158.139      153.426       74.794    25007.945    23539.682     5594.135        9.305        2.707      363.280       74.224        0.042      340.753       14.988      860.161
04/24/2014  09:56:00     -323.756     -277.687      -18.303      141.792      129.146       63.923    20104.831    16678.670     4086.176       11.156        2.043      426.531       56.796        0.018      340.535       14.618      860.170
04/24/2014  09:57:00     -323.188     -226.704      -13.758      159.597      103.156       70.058    25471.242    10641.238     4908.179        9.852        2.051      394.772       63.430        0.026      340.601       14.729      860.153
04/24/2014  09:58:00     -230.898     -153.204       -3.411      128.762      113.376       56.420    16579.688    12854.038     3183.193        5.470        1.631      277.101       66.959        0.058      340.739       14.964      860.172
04/24/2014  09:59:00     -179.091      -65.664        2.786      107.070       80.639       43.896    11463.897     6502.651     1926.867        2.814        0.995      190.749       44.771        0.055      340.887       15.215      860.136
04/24/2014  10:00:00     -125.173      -53.029       -4.289       66.755       62.485       44.016     4456.249     3904.400     1937.432        1.440        0.515      135.943       42.648        0.098      341.137       15.641      860.103
04/24/2014  10:01:00     -118.928      -85.384        1.464      128.817      105.400       50.432    16593.764    11109.076     2543.379        2.584        1.512      146.404       65.344        0.199      341.090       15.560      860.080
04/24/2014  10:02:00     -207.152      -26.969       -3.584      247.264      157.565       81.294    61139.343    24826.869     6608.767        6.810        4.629      208.900      104.975        0.253      341.285       15.889      860.052
04/24/2014  10:03:00     -401.953      -82.238       -3.653      284.412      206.368      110.716    80890.175    42587.853    12257.995       15.201        6.787      410.279      140.597        0.117      341.125       15.616      860.051
04/24/2014  10:04:00     -300.844     -172.979        3.453      151.987      137.485       71.572    23100.158    18902.239     5122.614        8.377        2.356      347.029       69.319        0.040      340.850       15.152      860.081
04/24/2014  10:05:00     -195.270     -171.992       14.633      190.797      110.084       79.965    36403.635    12118.422     6394.480        6.141        2.746      260.215       86.807        0.111      340.948       15.318      860.054
04/24/2014  10:06:00     -416.694     -214.048       -1.008      216.135      153.007       94.264    46714.151    23411.058     8885.633       14.922        3.951      468.455      106.447        0.052      340.890       15.219      860.085
04/24/2014  10:07:00     -296.229     -142.783       -0.046      175.167      163.951       80.385    30683.547    26880.018     6461.753        8.607        3.201      328.844       87.517        0.071      341.029       15.455      860.106
04/24/2014  10:08:00     -307.613     -131.432       -5.495      215.416      125.505       83.313    46403.874    15751.404     6941.062        9.050        3.455      334.515      100.192        0.090      341.061       15.510      860.110
04/24/2014  10:09:00     -330.583      -72.158       -8.360      217.685      176.355       80.019    47386.879    31101.061     6403.112        9.971        4.245      338.367       86.002        0.065      341.071       15.527      860.083
04/24/2014  10:10:00     -199.327      -51.116       -1.856      164.635      104.752       54.760    27104.760    10973.048     2998.652        4.170        2.054      205.777       66.435        0.104      341.278       15.878      860.088
04/24/2014  10:11:00     -324.907      -84.221      -16.470      126.391      144.206       65.651    15974.711    20795.448     4310.005        7.700        2.054      335.645       59.448        0.031      341.429       16.132      860.122
04/24/2014  10:12:00     -218.548     -175.812       -3.181      156.137      106.181       64.801    24378.686    11274.371     4199.133        5.926        1.993      280.488       67.682        0.058      341.415       16.109      860.075
04/24/2014  10:13:00     -123.012     -131.002       16.769      155.649      142.582       90.489    24226.477    20329.718     8188.170        4.265        2.637      179.704       92.348        0.264      341.373       16.038      860.067
04/24/2014  10:14:00     -402.518     -272.088       15.674      255.714      173.671      121.976    65389.431    30161.558    14878.130       17.334        5.521      485.853      135.131        0.077      341.048       15.489      860.073
04/24/2014  10:15:00     -327.884     -164.703        7.899      222.931      189.879       96.961    49698.184    36053.856     9401.483       11.491        4.758      366.926      113.455        0.096      341.090       15.560      860.083
04/24/2014  10:16:00     -319.206     -204.676      -14.913      213.601      166.315      102.284    45625.407    27660.787    10462.011       11.386        4.187      379.190       93.207        0.060      341.111       15.593      860.093
04/24/2014  10:17:00     -309.674      -45.138       -5.062      157.629      131.091       75.563    24846.882    17184.809     5709.774        7.284        2.387      312.946       64.685        0.043      341.241       15.813      860.090
04/24/2014  10:18:00     -422.944     -165.939      -11.014      177.700      180.567       92.120    31577.158    32604.351     8486.156       13.959        3.633      454.332       98.939        0.047      341.147       15.655      860.124
04/24/2014  10:19:00     -355.706     -117.521       -2.927      194.065      175.890       85.513    37661.184    30937.360     7312.549       10.811        3.796      374.617       90.806        0.059      341.153       15.665      860.111
04/24/2014  10:20:00     -192.036      -79.573        8.400      175.715       80.805       59.794    30875.695     6529.486     3575.280        4.212        2.049      207.869       75.799        0.133      341.263       15.854      860.121
04/24/2014  10:21:00     -349.431     -256.189       -3.922      206.121      168.930       87.870    42485.688    28537.429     7721.063       13.323        3.937      433.284       90.084        0.043      341.057       15.502      860.117
04/24/2014  10:22:00     -378.859     -283.531      -14.131      188.442      158.887       95.998    35510.348    25244.991     9215.553       14.703        3.499      473.206       99.145        0.044      341.271       15.866      860.119
04/24/2014  10:23:00     -174.545      -62.532       20.937      190.949      139.898       78.965    36461.664    19571.409     6235.417        4.853        3.113      185.409       95.713        0.266      341.568       16.370      860.131
04/24/2014  10:24:00     -295.618     -230.487       -0.837      192.044      132.257       89.634    36880.911    17492.013     8034.199       10.145        3.120      374.852      100.674        0.072      341.179       15.710      860.125
04/24/2014  10:25:00     -411.211       16.493      -11.065      157.243      151.552       85.936    24725.324    22967.867     7385.002       11.227        2.754      411.542       79.250        0.037      341.235       15.804      860.123
04/24/2014  10:26:00     -443.656     -165.311      -28.871      177.110      147.731       81.430    31367.886    21824.563     6630.915       14.240        2.991      473.453       82.116        0.030      341.148       15.657      860.129
04/24/2014  10:27:00     -268.573      -71.147      -18.828      149.959      152.849       74.156    22487.618    23362.712     5499.112        6.444        2.567      277.837       79.231        0.081      341.343       15.987      860.071
04/24/2014  10:28:00     -452.098     -131.448      -15.392      249.765      199.847      105.004    62382.773    39938.857    11025.778       16.761        5.667      470.819      117.970        0.063      341.419       16.116      860.029
04/24/2014  10:29:00     -290.960     -135.249       10.666      213.109      224.106       93.223    45415.286    50223.554     8690.534       10.368        5.216      320.858       79.612        0.062      341.449       16.167      860.079
04/24/2014  10:30:00     -430.454     -276.434       -7.244      229.218      155.776       94.542    52541.099    24266.086     8938.182       17.373        4.287      511.573       85.035        0.028      341.183       15.714      860.155
04/24/2014  10:31:00     -495.311     -349.418      -12.990      283.525      178.332      122.567    80386.407    31802.347    15022.604       24.738        6.361      606.157      133.181        0.048      340.961       15.340      860.168
04/24/2014  10:32:00     -279.087     -225.128        5.756      223.680      170.344      103.651    50032.621    29017.179    10743.499       10.918        4.490      358.570      123.393        0.118      340.997       15.403      860.124
04/24/2014  10:33:00     -250.936     -170.195       10.717      185.057      175.472       85.579    34246.232    30790.250     7323.833        8.219        3.618      303.208       85.598        0.080      341.149       15.657      860.122
04/24/2014  10:34:00     -418.752     -131.168      -17.382      206.853      213.346       88.551    42788.022    45516.564     7841.356       14.448        4.807      438.815       81.498        0.034      341.056       15.501      860.079
04/24/2014  10:35:00     -387.801     -183.318        0.068      192.040      149.936       77.280    36879.327    22480.932     5972.135       12.465        3.267      428.947       75.184        0.031      341.117       15.605      860.071
04/24/2014  10:36:00     -330.065     -176.610      -10.627      176.225      197.604       98.432    31055.246    39047.438     9688.811       11.000        3.990      374.345       99.526        0.071      341.409       16.098      860.044
04/24/2014  10:37:00     -376.344     -173.923      -19.611      262.360      194.251       93.846    68832.852    37733.378     8806.989       14.380        5.769      414.589      103.289        0.062      341.451       16.172      860.031
04/24/2014  10:38:00     -344.634     -269.291       -5.468      284.280      234.634      128.675    80814.975    55053.103    16557.211       17.184        7.621      437.367      145.974        0.111      341.283       15.886      860.020
04/24/2014  10:39:00     -265.202     -152.489       13.942      198.490      140.431       83.272    39398.364    19720.953     6934.247        7.990        3.303      305.917       96.401        0.099      341.231       15.797      860.028
04/24/2014  10:40:00     -184.919     -306.289      -22.122       72.285      135.173       39.748     5225.165    18271.789     1579.926        7.678        1.254      357.782       34.545        0.009      341.129       15.624      860.014
04/24/2014  10:41:00      -82.051      -51.394       29.003      193.872      121.097       70.473    37586.350    14664.365     4966.438        3.370        2.861       96.818       83.487        0.744      341.606       16.434      860.021
04/24/2014  10:42:00     -306.863     -135.597      -13.974      216.328      173.671       83.936    46797.631    30161.649     7045.295        9.836        4.200      335.487       99.123        0.087      341.570       16.372      860.003
04/24/2014  10:43:00     -314.408     -191.134       30.221      206.567      150.538       85.979    42669.752    22661.579     7392.335       10.450        3.636      367.947       96.888        0.069      341.625       16.464      860.021
04/24/2014  10:44:00     -373.623     -355.525        4.884      227.625      187.282      116.176    51813.064    35074.406    13496.808       18.318        5.019      515.744      123.311        0.057      341.431       16.134      860.013
04/24/2014  10:45:00     -344.239     -215.295      -17.908      179.705      182.208       88.584    32293.969    33199.580     7847.078       11.924        3.667      406.020       92.733        0.052      341.340       15.983      860.003
04/24/2014  10:46:00     -313.697     -183.935       -3.183      230.971      170.770       82.043    53347.742    29162.537     6731.052       11.073        4.462      363.645      105.343        0.084      341.373       16.037      860.027
04/24/2014  10:47:00     -449.579     -326.885       -3.812      219.409      179.504      119.335    48140.249    32221.587    14240.942       20.178        4.730      555.855      116.269        0.044      341.069       15.523      860.020
04/24/2014  10:48:00     -423.746     -325.491      -23.104      221.407      150.380       94.649    49021.091    22614.087     8958.452       18.330        4.030      534.327      107.787        0.041      341.157       15.671      860.020
04/24/2014  10:49:00     -390.225     -184.272       -1.714      260.086      167.206       91.406    67644.694    27957.727     8355.107       14.507        5.198      431.545      110.754        0.066      341.333       15.969      860.027
04/24/2014  10:50:00     -479.582     -197.135      -33.513      220.408      202.665       89.245    48579.554    41072.929     7964.628       18.378        4.881      518.518      105.999        0.042      341.362       16.018      859.994
04/24/2014  10:51:00     -540.068     -232.353      -29.640      204.300      251.429       92.535    41738.418    63216.378     8562.697       23.001        5.676      587.930       89.956        0.023      341.265       15.855      860.017
04/24/2014  10:52:00     -437.828     -228.107      -19.515      236.812      183.051       98.822    56079.973    33507.584     9765.833       17.171        4.968      493.686      121.382        0.060      341.401       16.086      860.071
04/24/2014  10:53:00     -484.230     -354.561      -32.298      306.147      234.554      120.655    93725.771    55015.510    14557.540       26.223        8.165      600.161      137.369        0.052      341.191       15.729      860.033
04/24/2014  10:54:00     -388.700     -299.261        7.325      229.564      173.422      107.416    52699.424    30075.288    11538.160       16.749        4.716      490.556      105.915        0.047      341.337       15.975      859.998
04/24/2014  10:55:00     -477.843     -405.936      -17.575      272.959      197.474      113.047    74506.597    38995.922    12779.696       25.983        6.314      626.991      121.373        0.037      341.261       15.847      859.980
04/24/2014  10:56:00     -562.379     -315.617      -18.769      236.422      219.557      113.721    55895.131    48205.289    12932.569       26.661        5.852      644.891      115.239        0.032      341.247       15.823      859.950
04/24/2014  10:57:00     -291.842     -229.017       -5.217      174.159      135.986       88.004    30331.520    18492.179     7744.773        9.710        2.828      370.973       92.285        0.062      341.268       15.859      859.922
04/24/2014  10:58:00     -205.915     -160.488       17.518      146.539      108.533       66.803    21473.713    11779.495     4462.597        5.308        1.886      261.070       77.712        0.089      341.825       16.804      859.933
04/24/2014  10:59:00     -243.751     -308.500       -0.688      210.092      228.760       87.493    44138.551    52330.998     7655.062       12.934        5.206      393.175       94.555        0.058      341.619       16.454      859.926
04/24/2014  11:00:00     -466.170     -398.010       14.330      296.251      203.844      128.794    87764.733    41552.310    16587.991       26.089        7.295      612.965      107.521        0.031      341.357       16.010      859.905
04/24/2014  11:01:00     -652.420     -389.960       -3.387      238.805      214.703      112.568    57027.978    46097.304    12671.612       34.674        5.790      760.080      117.587        0.024      341.119       15.608      859.868
04/24/2014  11:02:00     -279.413     -134.655       14.951      180.723      162.412       83.859    32660.960    26377.815     7032.330        8.124        3.304      310.167       81.397        0.069      341.508       16.266      859.896
04/24/2014  11:03:00     -467.813     -351.249       -9.239      317.288      257.012      123.534   100671.745    66055.164    15260.658       26.211        9.099      585.000      145.946        0.062      341.313       15.936      859.876
04/24/2014  11:04:00     -512.536     -253.082      -16.664      219.051      255.909      109.421    47983.235    65489.433    11973.028       22.621        6.272      571.615      133.109        0.054      341.316       15.940      859.901
04/24/2014  11:05:00     -487.931     -332.463      -11.213      217.267      223.781      112.484    47205.014    50077.946    12652.688       22.931        5.497      590.431      115.545        0.038      341.349       15.996      859.916
04/24/2014  11:06:00     -581.600     -414.245      -13.734      297.530      225.625      138.808    88524.253    50906.739    19267.546       33.434        7.935      714.043      153.302        0.046      341.285       15.888      859.891
04/24/2014  11:07:00     -619.871     -468.587        2.464      353.170      245.247      142.300   124729.106    60146.162    20249.353       40.443       10.256      777.055      169.140        0.047      341.146       15.653      859.856
04/24/2014  11:08:00     -426.439     -314.097      -10.025      269.464      217.545      122.895    72610.785    47325.792    15103.234       20.780        6.752      529.629      146.665        0.077      341.284       15.887      859.871
04/24/2014  11:09:00     -308.289      -91.839       19.470      190.167      167.261       86.419    36163.313    27976.404     7468.247        8.772        3.580      321.677       96.863        0.091      341.648       16.504      859.892
04/24/2014  11:10:00     -376.166     -151.552        0.843      228.284      178.228       96.802    52113.518    31765.161     9370.638       12.884        4.662      405.548      116.323        0.082      341.584       16.394      859.887
04/24/2014  11:11:00     -327.052      -42.491        2.216      210.393      158.888       81.808    44265.419    25245.544     6692.483        9.247        3.810      329.801      100.045        0.092      341.782       16.730      859.884
04/24/2014  11:12:00     -419.970     -221.021       26.850      264.673      226.697      116.176    70051.816    51391.646    13496.765       18.042        6.747      474.579      146.424        0.095      341.731       16.642      859.869
04/24/2014  11:13:00     -529.648     -158.338      -26.810      229.220      212.256       96.380    52541.591    45052.752     9289.171       20.658        5.344      552.809       86.350        0.024      341.383       16.054      859.868
04/24/2014  11:14:00     -374.005     -191.915        4.132      319.114      186.428      113.579   101833.504    34755.439    12900.171       16.308        7.474      420.370      142.152        0.114      341.593       16.411      859.873
04/24/2014  11:15:00     -446.975     -312.769       16.342      321.545      252.306      126.997   103390.993    63658.229    16128.126       24.049        9.159      545.537      145.277        0.071      341.481       16.221      859.826
04/24/2014  11:16:00     -653.943     -332.640      -27.795      298.785      251.845      119.395    89272.634    63426.058    14255.151       35.297        8.348      733.683      114.555        0.024      341.307       15.924      859.913
04/24/2014  11:17:00     -553.250     -349.478      -10.529      313.242      239.671      120.178    98120.775    57442.091    14442.668       29.913        8.500      654.385      148.485        0.051      341.275       15.872      859.882
04/24/2014  11:18:00     -624.305     -311.727      -14.449      291.078      245.370      111.751    84726.161    60206.239    12488.217       32.225        7.871      697.804      122.323        0.031      341.273       15.869      859.895
04/24/2014  11:19:00     -612.087     -237.485      -23.335      264.339      224.381      109.793    69874.976    50346.908    12054.420       28.191        6.614      656.544      114.440        0.030      341.377       16.045      859.914
04/24/2014  11:20:00     -469.122     -153.769        2.360      183.069      191.575       87.785    33514.217    36700.991     7706.289       16.081        3.896      493.680       93.782        0.036      341.576       16.381      859.945
04/24/2014  11:21:00     -411.660      -79.487       -0.365      270.973      167.314      104.578    73426.164    27993.865    10936.570       14.405        5.618      419.264      109.974        0.069      341.531       16.307      859.911
04/24/2014  11:22:00     -613.515     -174.633      -26.380      253.806      261.624      109.211    64417.397    68447.110    11927.140       27.616        7.240      637.885      125.731        0.039      341.555       16.345      859.873
04/24/2014  11:23:00     -499.878     -205.618      -13.677      281.416      220.498      115.246    79194.707    48619.346    13281.646       21.669        7.055      540.515      141.189        0.068      341.644       16.496      859.884
04/24/2014  11:24:00     -471.085     -297.393       -4.844      284.113      209.660      112.019    80720.339    43957.144    12548.315       22.378        6.861      557.103      130.475        0.055      341.548       16.335      859.902
04/24/2014  11:25:00     -436.587     -316.765       -2.798      236.420      186.452      114.211    55894.625    34764.301    13044.065       19.731        5.185      539.397      122.210        0.051      341.472       16.206      859.854
04/24/2014  11:26:00     -410.768      -34.625        0.813      239.027      191.719       87.745    57133.997    36756.083     7699.267       13.574        5.079      412.224       97.277        0.056      341.763       16.698      859.865
04/24/2014  11:27:00     -626.678     -201.618      -16.848      244.323      185.849      106.132    59693.491    34539.917    11264.073       26.956        5.275      658.313      121.439        0.034      341.703       16.596      859.844
04/24/2014  11:28:00     -357.276     -242.544       -3.267      201.833      199.300       93.808    40736.550    39720.339     8799.879       13.785        4.463      431.826       88.868        0.042      341.685       16.565      859.880
04/24/2014  11:29:00     -235.813     -181.893       10.747      251.404      233.261       90.271    63203.765    54410.575     8148.797       10.726        6.288      297.813      119.424        0.161      341.791       16.748      859.838
04/24/2014  11:30:00     -407.808     -391.675      -16.437      269.838      222.993      118.029    72812.609    49725.968    13930.730       22.820        6.823      565.435      139.487        0.061      341.657       16.519      859.876
04/24/2014  11:31:00     -561.655     -232.183        9.505      312.542      269.176      142.444    97682.232    72455.890    20290.210       27.990        9.521      607.754      156.304        0.066      341.504       16.259      859.885
04/24/2014  11:32:00     -491.499     -211.685        1.310      334.152      263.016      117.110   111657.330    69177.322    13714.707       24.043        9.727      535.147      144.419        0.073      341.450       16.167      859.860
04/24/2014  11:33:00     -523.262     -237.523      -15.153      342.866      203.134      106.103   117557.172    41263.560    11257.787       25.023        8.504      574.648      137.197        0.057      341.604       16.429      859.840
04/24/2014  11:34:00     -664.415     -329.425       -2.118      417.208      356.235      161.643   174062.584   126903.538    26128.361       43.847       16.355      741.598      203.550        0.075      341.371       16.034      859.820
04/24/2014  11:35:00     -742.748     -560.877      -36.137      309.230      227.756      129.696    95623.169    51873.000    16821.026       51.591        8.216      930.729      126.844        0.019      341.274       15.868      859.791
04/24/2014  11:36:00     -579.440     -265.188       -5.820      262.041      223.333      114.887    68665.315    49877.690    13199.055       26.890        6.587      637.240      115.848        0.033      341.468       16.198      859.812
04/24/2014  11:37:00     -366.443     -189.472        5.789      294.656      221.781      122.317    86821.928    49186.857    14961.437       16.056        7.549      412.529      128.800        0.097      341.648       16.503      859.817
04/24/2014  11:38:00     -499.292     -210.748       -2.997      323.541      248.951      128.020   104678.649    61976.552    16389.162       23.834        9.152      541.948      141.495        0.068      341.489       16.232      859.833
04/24/2014  11:39:00     -574.558     -426.990       -4.261      402.390      298.159      140.678   161917.732    88898.761    19790.231       39.148       13.530      715.847      176.673        0.061      341.311       15.933      859.836
04/24/2014  11:40:00     -456.889     -233.901       -2.571      226.617      173.053      118.942    51355.103    29947.264    14147.196       17.944        4.772      513.281      117.090        0.052      341.407       16.096      859.852
04/24/2014  11:41:00     -316.452     -154.877       23.322      214.124      199.754      108.389    45849.002    39901.662    11748.159       11.107        4.875      352.320      108.313        0.095      341.598       16.418      859.913
04/24/2014  11:42:00     -497.574     -349.603       -7.226      250.383      210.524      122.425    62691.824    44320.379    14987.907       24.590        6.100      608.114      126.017        0.043      341.221       15.781      859.905
04/24/2014  11:43:00     -428.753     -290.239       -6.065      275.889      217.899      132.327    76114.981    47479.832    17510.564       20.458        7.055      517.753      148.530        0.082      341.311       15.932      859.896
04/24/2014  11:44:00     -452.543     -269.579      -31.682      201.125      193.922       88.504    40451.278    37605.814     7832.926       18.216        4.295      526.753       93.372        0.031      341.391       16.069      859.897
04/24/2014  11:45:00     -351.886      -28.472        9.838      298.472      172.396      122.455    89085.246    29720.327    14995.304       12.924        6.690      353.036      146.226        0.172      341.547       16.334      859.873
04/24/2014  11:46:00     -531.764      -99.494      -12.245      252.766      168.157      104.269    63890.487    28276.801    10872.093       19.791        5.152      540.992      119.963        0.049      341.397       16.078      859.889
04/24/2014  11:47:00     -529.576     -287.467       -7.052      320.375      234.127      112.913   102639.849    54815.404    12749.450       26.664        8.510      602.568      121.336        0.041      341.354       16.006      859.891
04/24/2014  11:48:00     -444.739     -247.183        4.185      281.059      169.520      119.258    78994.162    28737.091    14222.503       19.041        6.098      508.815      141.318        0.077      341.303       15.919      859.913
04/24/2014  11:49:00     -532.069     -273.978       -4.183      257.330      231.098      109.892    66218.719    53406.113    12076.194       24.491        6.585      598.466      132.109        0.049      341.364       16.021      859.936
04/24/2014  11:50:00     -486.002      -93.505      -12.658      238.833      177.073      108.786    57041.327    31354.861    11834.415       17.265        5.012      494.915      120.061        0.059      341.388       16.061      859.953
04/24/2014  11:51:00     -725.598     -141.040      -20.700      311.745      255.050      127.817    97184.692    65050.519    16337.073       36.266        8.929      739.179      149.935        0.041      341.326       15.956      859.843
04/24/2014  11:52:00     -662.617     -183.254      -35.445      247.787      228.618      101.124    61398.533    52266.169    10226.130       29.887        6.195      687.491      110.680        0.026      341.336       15.975      859.815
04/24/2014  11:53:00     -648.208     -121.157      -30.910      295.211      179.150      103.993    87149.816    32094.719    10814.533       28.291        6.503      659.434      119.497        0.033      341.322       15.950      859.802
04/24/2014  11:54:00     -674.359      -18.530      -40.596      281.967      207.359      109.799    79505.501    42997.607    12055.736       29.563        6.728      674.614      138.187        0.042      341.319       15.948      859.780
04/24/2014  11:55:00     -462.820      -37.303      -19.446      291.123      151.509      100.011    84752.562    22954.989    10002.104       16.682        5.885      464.321      129.472        0.078      341.461       16.187      859.811
04/24/2014  11:56:00     -253.280       -2.311        8.494      191.687      148.818       87.778    36744.086    22146.714     7704.996        6.540        3.330      253.291       96.988        0.147      341.600       16.423      859.794
04/24/2014  11:57:00     -402.972      -89.401        4.684      189.151      177.929      101.651    35778.283    31658.614    10333.025       12.407        3.888      412.770       97.509        0.056      341.419       16.115      859.797
04/24/2014  11:58:00     -402.778     -198.796       -7.226      273.720      177.942      104.481    74922.463    31663.342    10916.296       15.963        5.875      449.166      118.946        0.070      341.349       15.998      859.767
04/24/2014  11:59:00     -372.791     -131.503        3.063      262.670      178.044      109.819    68995.507    31699.766    12060.227       13.449        5.638      395.305      104.049        0.069      341.374       16.040      859.694
04/24/2014  12:00:00     -405.667      -19.383      -12.517      278.900      148.693       87.753    77785.215    22109.578     7700.615       13.633        5.380      406.130      117.648        0.084      341.469       16.202      859.691
04/24/2014  12:01:00     -309.661        3.455      -16.464      285.370      132.291       86.775    81436.167    17500.845     7529.881       10.130        5.323      309.680      118.987        0.148      341.625       16.465      859.673
04/24/2014  12:02:00     -426.578       40.279       -9.635      209.644      161.339       94.883    43950.693    26030.312     9002.835       13.132        3.949      428.475      101.417        0.056      341.555       16.345      859.605
04/24/2014  12:03:00     -381.280     -132.862      -11.844      218.748      157.163       86.027    47850.509    24700.293     7400.580       12.154        3.998      403.766      105.717        0.069      341.441       16.151      859.644
04/24/2014  12:04:00     -539.953     -129.247      -36.540      181.544      120.261       80.466    32958.200    14462.611     6474.712       18.173        2.695      555.206       90.059        0.026      341.482       16.222      859.626
04/24/2014  12:05:00     -313.738      -86.188       19.730      252.431      211.764      118.115    63721.586    44843.889    13951.216       11.436        6.126      325.361      131.232        0.163      341.570       16.371      859.582
04/24/2014  12:06:00     -355.647      -69.960        0.418      247.671      207.052      101.715    61340.820    42870.464    10345.899       12.295        5.728      362.462      120.316        0.110      341.475       16.211      859.582
04/24/2014  12:07:00     -265.874      -10.683      -12.031      181.343      162.576       78.193    32885.307    26430.838     6114.163        6.818        3.272      266.088       79.179        0.089      341.570       16.372      859.572
04/24/2014  12:08:00     -490.082     -208.297      -15.446      189.177      156.777       87.733    35787.875    24579.085     7697.165       17.592        3.403      532.511       88.752        0.028      341.451       16.167      859.525
04/24/2014  12:09:00     -294.094      -64.235       -9.198      230.106      134.656       78.569    52948.556    18132.363     6173.160        8.396        3.863      301.027       97.239        0.104      341.628       16.470      859.513
04/24/2014  12:10:00     -137.562     -133.707       19.286      144.762      160.275       84.549    20956.029    25688.032     7148.497        4.547        2.690      191.836       82.328        0.184      341.610       16.440      859.489
04/24/2014  12:11:00     -377.374     -104.789        6.986      299.933      195.141      107.130    89960.065    38079.833    11476.807       14.645        6.976      391.652      140.692        0.129      341.627       16.469      859.461
04/24/2014  12:12:00     -549.001     -274.140      -29.720      277.462      216.046      115.109    76984.915    46675.888    13249.988       25.715        6.846      613.641      115.718        0.036      341.410       16.100      859.417
04/24/2014  12:13:00     -448.310     -230.775       -9.622      358.630      227.638      115.834   128615.665    51818.885    13417.432       22.405        9.693      504.221      153.698        0.093      341.492       16.239      859.445
04/24/2014  12:14:00     -400.783     -178.721        0.398      306.631      263.707      136.439    94022.806    69541.408    18615.557       18.734        9.109      438.826      151.197        0.119      341.490       16.236      859.337
04/24/2014  12:15:00     -374.652     -231.002        5.318      296.502      221.466      114.220    87913.408    49047.354    13046.255       17.185        7.500      440.143      127.665        0.084      341.506       16.264      859.377
04/24/2014  12:16:00     -279.881     -147.867       17.937      304.915      206.007      122.623    92973.450    42439.062    15036.437       12.545        7.522      316.541      160.597        0.257      341.658       16.520      859.379
04/24/2014  12:17:00     -582.603      -61.075      -26.429      255.455      225.599      116.378    65257.106    50895.050    13543.742       23.675        6.485      585.796      132.072        0.051      341.460       16.185      859.439
04/24/2014  12:18:00     -466.382      -97.446       -5.200      250.494      226.603      108.479    62747.187    51348.821    11767.712       17.642        6.293      476.453      119.360        0.063      341.389       16.064      859.431
04/24/2014  12:19:00     -197.106      -67.911        6.000      162.312      122.630       66.233    26345.222    15038.067     4386.841        4.463        2.289      208.477       72.439        0.121      341.641       16.492      859.470
04/24/2014  12:20:00     -293.278     -124.606       24.659      196.277      174.321       89.767    38524.504    30387.844     8058.081        8.954        3.849      318.651       88.016        0.076      341.722       16.629      859.485
04/24/2014  12:21:00     -512.802      -32.388      -16.877      244.256      177.239       92.148    59660.860    31413.816     8491.342       18.191        4.978      513.824      111.989        0.048      341.552       16.341      859.466
04/24/2014  12:22:00     -378.927      -45.727      -12.851      180.607      125.895       78.299    32618.876    15849.576     6130.688       10.021        2.730      381.677       62.241        0.027      341.664       16.532      859.483
04/24/2014  12:23:00     -420.008     -143.761        3.061      273.867      228.979      107.758    75003.066    52431.395    11611.874       16.804        6.952      443.930      128.725        0.084      341.625       16.464      859.491
04/24/2014  12:24:00     -723.483     -104.421      -54.848      449.724      176.946      117.187   202251.781    31309.793    13732.855       39.227       12.365      730.980      178.444        0.060      341.522       16.289      859.445
04/24/2014  12:25:00     -256.252     -108.927       27.800      224.487      160.154      107.383    50394.458    25649.429    11531.049        8.292        4.379      278.442      109.790        0.155      341.687       16.570      859.496
04/24/2014  12:26:00     -187.334      -57.706       17.998      181.652      154.369       88.534    32997.564    23829.837     7838.236        5.169        3.233      196.020       97.724        0.249      341.810       16.780      859.538
04/24/2014  12:27:00     -412.989     -225.344       -6.116      298.998      198.209      121.920    89399.875    39286.857    14864.463       18.244        7.178      470.467      164.744        0.123      341.541       16.321      859.511
04/24/2014  12:28:00     -584.534     -152.468      -21.618      319.394      191.188      103.725   102012.459    36552.929    10758.831       25.733        7.466      604.092      136.245        0.051      341.440       16.151      859.426
04/24/2014  12:29:00     -701.708     -103.458      -43.285      293.311      223.705      116.049    86031.386    50043.885    13467.335       32.723        7.477      709.294      103.006        0.021      341.466       16.194      859.406
04/24/2014  12:30:00     -477.573      -30.617      -38.975      246.502      164.828      103.953    60763.327    27168.218    10806.133       16.461        4.937      478.553      132.298        0.076      341.617       16.451      859.439
04/24/2014  12:31:00     -206.507     -192.119       19.413      189.513      148.508       85.769    35914.998    22054.707     7356.374        7.262        3.266      282.055       95.118        0.114      341.858       16.859      859.435
04/24/2014  12:32:00     -424.774     -192.950      -11.861      296.025      200.392      110.259    87630.613    40156.904    12157.065       17.885        6.997      466.543      134.029        0.083      341.749       16.674      859.457
04/24/2014  12:33:00     -484.911     -340.736      -13.794      303.711      248.708      134.258    92240.318    61855.514    18025.100       26.174        8.606      592.655      162.949        0.076      341.528       16.299      859.386
04/24/2014  12:34:00     -625.144     -427.961      -29.251      307.068      267.709      134.767    94290.976    71667.938    18162.120       37.943        9.206      757.599      156.832        0.043      341.416       16.110      859.356
04/24/2014  12:35:00     -394.440     -279.228       16.012      283.298      205.739      115.757    80257.886    42328.547    13399.778       18.487        6.799      483.271      125.936        0.068      341.540       16.321      859.360
04/24/2014  12:36:00     -348.136     -227.715       20.923      256.367      205.846      130.344    65724.105    42372.548    16989.643       14.926        6.254      415.996      144.638        0.121      341.603       16.427      859.350
04/24/2014  12:37:00     -425.397      -91.564      -13.379      239.224      203.786      110.289    57227.908    41528.884    12163.630       15.020        5.546      435.140      132.925        0.093      341.706       16.603      859.354
04/24/2014  12:38:00     -422.526     -137.822       -8.991      316.956      173.235      111.682   100461.138    30010.310    12472.925       17.025        7.147      444.436      143.819        0.105      341.705       16.600      859.353
04/24/2014  12:39:00     -449.475     -192.215       -0.583      290.162      252.405      130.309    84194.021    63708.380    16980.352       20.190        8.244      488.850      147.925        0.092      341.577       16.381      859.330
04/24/2014  12:40:00     -685.512     -300.922      -20.067      245.384      249.354      136.690    60213.145    62177.287    18684.024       35.095        7.054      748.652      141.619        0.036      341.445       16.159      859.389
04/24/2014  12:41:00     -659.597     -230.342      -29.535      338.471      217.298      134.657   114562.570    47218.351    18132.521       33.442        8.996      698.660      158.593        0.052      341.524       16.293      859.431
04/24/2014  12:42:00     -634.347     -239.628      -20.564      269.970      171.861      106.140    72883.620    29536.348    11265.672       28.694        5.684      678.099      113.560        0.028      341.691       16.574      859.455
04/24/2014  12:43:00     -453.020     -170.016       -1.627      268.733      184.317       86.530    72217.460    33972.657     7487.406       17.388        5.684      483.873       93.006        0.037      341.711       16.610      859.536
04/24/2014  12:44:00     -453.142     -168.297      -18.422      260.369      196.866      102.557    67792.252    38756.130    10517.928       17.551        5.853      483.385      120.716        0.062      341.561       16.355      859.528
04/24/2014  12:45:00     -512.716     -309.310      -26.864      222.141      201.493      104.410    49346.490    40599.293    10901.509       23.004        5.042      598.791      112.689        0.035      341.544       16.327      859.565
04/24/2014  12:46:00     -580.396     -350.738        7.776      270.733      214.632      125.000    73296.146    46066.814    15625.122       29.744        6.749      678.142      131.658        0.038      341.348       15.994      859.523
04/24/2014  12:47:00     -456.219     -273.164        8.999      221.636      173.139      103.897    49122.590    29977.132    10794.631       18.635        4.495      531.746      111.639        0.044      341.473       16.206      859.513
04/24/2014  12:48:00     -458.233     -191.251       -6.514      226.737      144.356       82.067    51409.517    20838.517     6735.020       16.277        3.949      496.543      102.785        0.043      341.594       16.411      859.510
04/24/2014  12:49:00     -351.094     -136.883       15.094      314.374      181.921      121.476    98831.204    33095.340    14756.503       14.443        7.334      376.834      160.379        0.181      341.628       16.470      859.493
04/24/2014  12:50:00     -428.894     -284.278       -7.025      332.417      240.718      148.987   110501.248    57945.012    22197.209       22.769        9.532      514.553      153.730        0.089      341.593       16.410      859.480
04/24/2014  12:51:00     -496.749     -214.524      -18.572      281.007      246.196      117.962    78965.119    60612.316    13914.958       22.328        7.675      541.092      132.691        0.060      341.598       16.419      859.481
04/24/2014  12:52:00     -533.241     -325.911      -17.730      252.326      221.868      114.170    63668.410    49225.585    13034.874       25.838        6.296      624.951      136.358        0.048      341.520       16.285      859.499
04/24/2014  12:53:00     -388.202     -165.261        1.456      219.233      179.428       91.793    48063.323    32194.357     8425.937       13.333        4.434      421.914      102.919        0.060      341.708       16.605      859.542
04/24/2014  12:54:00     -448.417      -30.963      -15.004      191.011      176.052      100.301    36485.212    30994.253    10060.252       13.989        3.877      449.485       88.438        0.039      341.764       16.699      859.528
04/24/2014  12:55:00     -387.748     -168.021      -24.536      198.133      213.480       94.631    39256.569    45573.699     8955.044       13.647        4.689      422.587      112.107        0.070      341.770       16.710      859.498
04/24/2014  12:56:00     -430.124     -165.578       -2.086      258.787      184.115      107.331    66970.468    33898.166    11519.841       16.239        5.619      460.894      116.450        0.064      341.684       16.562      859.505
04/24/2014  12:57:00     -442.247     -119.452        2.097      284.790      193.499      112.904    81105.111    37441.977    12747.240       17.055        6.565      458.096      122.367        0.071      341.783       16.733      859.527
04/24/2014  12:58:00     -428.925     -275.069       -0.599      243.979      225.073      118.793    59525.765    50657.824    14111.847       19.194        6.215      509.548      118.366        0.054      341.532       16.305      859.518
04/24/2014  12:59:00     -525.153     -319.618      -15.498      281.620      222.326      121.875    79309.943    49428.848    14853.556       26.086        7.180      614.769      145.536        0.056      341.421       16.119      859.483
04/24/2014  13:00:00     -510.550     -239.803        3.543      297.891      204.819      115.033    88739.173    41950.884    13232.592       23.102        7.196      564.062      130.723        0.054      341.369       16.031      859.469
04/24/2014  13:01:00     -411.616     -280.617        3.662      252.019      190.307      111.656    63513.517    36216.621    12467.041       18.017        5.610      498.171      130.296        0.068      341.379       16.047      859.443
04/24/2014  13:02:00     -306.768      -99.037       22.480      277.525      157.775      113.547    77019.903    24892.832    12892.855       10.959        5.740      322.359      129.688        0.162      341.604       16.428      859.449
04/24/2014  13:03:00     -531.059     -352.502       -7.622      223.712      181.543      103.791    50046.980    32957.807    10772.494       25.004        4.689      637.402       99.208        0.024      341.409       16.099      859.436
04/24/2014  13:04:00     -459.080     -309.796        3.174      259.468      227.744      116.812    67323.459    51867.389    13645.007       21.976        6.642      553.831      135.509        0.060      341.559       16.351      859.408
04/24/2014  13:05:00     -583.583     -153.384      -20.761      216.766      241.401      106.128    46987.615    58274.657    11263.141       24.050        5.826      603.404      115.818        0.037      341.541       16.322      859.443
04/24/2014  13:06:00     -480.860     -283.340       -1.929      298.070      204.267      120.316    88845.896    41724.838    14475.829       22.825        7.252      558.129      145.470        0.068      341.481       16.220      859.417
04/24/2014  13:07:00     -154.475     -152.861       32.989      191.202      185.053       93.483    36558.204    34244.457     8739.123        6.391        3.977      217.322      110.804        0.260      341.747       16.672      859.392
04/24/2014  13:08:00     -497.885     -321.216        0.887      276.653      180.763      102.846    76536.737    32675.209    10577.306       23.541        5.989      592.511      129.429        0.048      341.609       16.438      859.401
04/24/2014  13:09:00     -490.453     -201.989        0.155      247.518      198.822      109.362    61265.265    39530.008    11960.098       19.703        5.638      530.419      118.291        0.050      341.509       16.268      859.467
04/24/2014  13:10:00     -483.829     -387.785       -4.503      267.304      210.868      120.053    71451.538    44465.461    14412.692       25.738        6.516      620.055      130.745        0.044      341.290       15.897      859.419
04/24/2014  13:11:00     -293.558     -231.762       -2.932      271.613      177.772      109.590    73773.761    31602.866    12009.980       12.862        5.869      374.018      129.580        0.120      341.461       16.186      859.415
04/24/2014  13:12:00     -361.006     -234.957      -10.415      210.653      183.774      109.306    44374.624    33772.925    11947.712       13.785        4.505      430.732      114.448        0.071      341.534       16.310      859.346
04/24/2014  13:13:00     -405.340     -331.718        4.045      240.381      199.210      113.284    57782.943    39684.447    12833.204       19.231        5.515      523.772      118.107        0.051      341.652       16.509      859.372
04/24/2014  13:14:00     -561.271     -246.660      -19.949      315.519      221.213      105.093    99552.144    48935.221    11044.612       26.787        7.977      613.079      109.097        0.032      341.519       16.284      859.394
04/24/2014  13:15:00     -562.747     -204.440       -6.261      260.906      211.804      106.388    68071.725    44860.922    11318.389       24.136        6.213      598.732      112.781        0.035      341.463       16.188      859.373
04/24/2014  13:16:00     -335.334     -111.491        8.744      208.456      162.162       93.730    43453.989    26296.427     8785.335       10.173        3.927      353.383       87.965        0.062      341.706       16.603      859.400
04/24/2014  13:17:00     -281.796     -260.850      -12.242      217.765      185.380       93.151    47421.555    34365.732     8677.056       11.902        4.523      383.995       84.838        0.049      341.642       16.493      859.425
04/24/2014  13:18:00     -551.149     -337.256        7.374      281.144      256.662      123.053    79041.790    65875.445    15142.048       28.878        8.003      646.148      145.833        0.051      341.360       16.015      859.374
04/24/2014  13:19:00     -592.205     -382.349      -11.252      307.092      245.847      136.003    94305.296    60440.586    18496.828       33.510        8.662      704.910      157.895        0.050      341.343       15.988      859.368
04/24/2014  13:20:00     -455.363     -361.479      -17.130      268.171      209.112      106.108    71915.681    43727.752    11258.907       23.258        6.345      581.397      116.241        0.040      341.417       16.112      859.366
04/24/2014  13:21:00     -530.251     -272.222      -14.696      313.585      276.733      126.959    98335.629    76581.191    16118.587       27.322        9.552      596.046      148.322        0.062      341.428       16.130      859.390
04/24/2014  13:22:00     -556.281     -304.217      -16.838      288.003      166.876      103.556    82945.938    27847.723    10723.791       26.187        6.076      634.032      132.080        0.043      341.437       16.145      859.437
04/24/2014  13:23:00     -290.933     -176.651        3.577      190.549      150.552       88.510    36308.800    22665.784     7833.935        9.132        3.340      340.363       88.945        0.068      341.640       16.489      859.450
04/24/2014  13:24:00     -527.817     -382.734       -9.635      312.547      240.922      124.768    97685.459    58043.406    15566.932       29.820        8.565      651.978      140.025        0.046      341.298       15.910      859.459
04/24/2014  13:25:00     -373.277     -290.318       -1.275      252.238      205.540      138.775    63624.026    42246.583    19258.635       17.435        6.256      472.885      146.079        0.095      341.408       16.096      859.404
04/24/2014  13:26:00     -568.482     -365.714      -24.143      364.449      280.910      136.688   132822.743    78910.372    18683.705       34.391       11.521      675.958      161.023        0.057      341.374       16.039      859.397
04/24/2014  13:27:00     -578.272     -366.152        8.623      343.426      267.700      133.916   117941.262    71663.447    17933.527       33.800       10.377      684.445      144.470        0.045      341.325       15.956      859.435
04/24/2014  13:28:00     -344.132     -270.446        7.450      226.507      182.887      112.207    51305.631    33447.691    12590.419       14.446        4.867      437.685      119.280        0.074      341.326       15.958      859.465
04/24/2014  13:29:00     -484.150     -218.982       -7.752      258.526      238.863      104.001    66835.698    57055.521    10816.127       20.853        6.735      531.370      115.665        0.047      341.382       16.051      859.428
04/24/2014  13:30:00     -354.642     -291.826      -12.594      263.456      195.092      105.475    69409.110    38060.777    11124.959       16.482        5.930      459.275      130.156        0.080      341.521       16.287      859.424
04/24/2014  13:31:00     -601.170     -251.354      -24.440      294.481      173.979      103.610    86718.839    30268.843    10735.019       27.643        6.386      651.601      112.174        0.030      341.317       15.942      859.442
04/24/2014  13:32:00     -584.860     -353.713      -35.419      313.281      225.299      123.899    98144.990    50759.674    15351.017       31.631        8.213      683.502      151.880        0.049      341.218       15.775      859.439
04/24/2014  13:33:00     -440.684     -292.536      -19.633      303.180      233.009      129.252    91918.262    54293.174    16706.163       22.151        8.146      528.942      147.976        0.078      341.217       15.772      859.485
04/24/2014  13:34:00     -504.605     -194.750       -3.571      293.463      255.186      121.686    86120.798    65120.036    14807.558       22.927        8.302      540.882      142.035        0.069      341.246       15.823      859.426
04/24/2014  13:35:00     -399.932     -280.701      -16.675      304.268      242.851      143.487    92578.877    58976.688    20588.645       20.555        8.607      488.609      164.607        0.113      341.321       15.950      859.362
04/24/2014  13:36:00     -561.379     -241.163      -21.386      250.945      182.941      112.000    62973.411    33467.278    12543.958       24.135        5.449      610.988      116.991        0.037      341.402       16.086      859.389
04/24/2014  13:37:00     -367.950     -183.888       12.645      250.300      215.787       91.704    62649.852    46564.119     8409.619       14.347        5.881      411.341      109.788        0.071      341.496       16.245      859.472
04/24/2014  13:38:00     -415.790     -351.551      -12.758      190.117      169.786       90.291    36144.314    28827.301     8152.419       18.486        3.656      544.490       86.350        0.025      341.379       16.045      859.512
04/24/2014  13:39:00     -258.322     -231.215       -0.742      168.482      143.048       79.186    28386.211    20462.800     6270.426        8.764        2.756      346.686       89.197        0.066      341.500       16.251      859.475
04/24/2014  13:40:00     -332.340     -267.314       15.800      244.825      161.943       87.515    59939.206    26225.580     7658.885       13.797        4.691      426.505      106.623        0.062      341.558       16.350      859.518
04/24/2014  13:41:00     -441.810     -229.609        3.376      289.844      222.245      129.741    84009.323    49392.678    16832.723       19.905        7.512      497.912      145.087        0.085      341.361       16.017      859.429
04/24/2014  13:42:00     -271.364     -239.933       -8.676      186.851      162.801       91.484    34913.209    26504.256     8369.400       10.052        3.489      362.224       90.917        0.063      341.545       16.328      859.383
04/24/2014  13:43:00     -363.121      -41.169        9.794      338.018      152.899       90.085   114256.171    23378.042     8115.346       13.967        7.287      365.447      119.346        0.107      341.659       16.524      859.354
04/24/2014  13:44:00     -410.404     -238.129       -7.971      275.003      190.762      118.872    75626.827    36390.210    14130.557       17.565        6.307      474.486      131.109        0.076      341.492       16.239      859.384
04/24/2014  13:45:00     -497.833     -368.714      -15.593      315.094      247.992      138.016    99284.485    61499.931    19048.505       28.190        8.992      619.506      146.434        0.056      341.388       16.065      859.326
04/24/2014  13:46:00     -451.266     -176.412       -5.526      236.859      202.793       96.131    56102.131    41124.896     9241.137       17.061        5.323      484.523      124.157        0.066      341.446       16.160      859.316
04/24/2014  13:47:00     -597.795     -366.751        0.542      344.247      231.478      128.741   118505.953    53581.973    16574.284       34.023        9.433      701.331      150.085        0.046      341.420       16.118      859.296
04/24/2014  13:48:00     -496.040     -436.674       -6.532      349.328      263.560      128.918   122030.177    69464.005    16619.791       32.241       10.406      660.863      166.429        0.063      341.458       16.180      859.312
04/24/2014  13:49:00     -257.981     -400.545        6.034      197.405      256.985      121.295    38968.902    66041.238    14712.534       17.335        5.986      476.435      105.342        0.049      341.409       16.097      859.337
04/24/2014  13:50:00     -369.495     -146.737       -5.530      160.511      168.564       75.089    25763.758    28413.810     5638.405       10.894        2.991      397.566       79.133        0.040      341.510       16.271      859.347
04/24/2014  13:51:00     -446.091     -265.938       -8.212      324.523      207.959      103.409   105315.196    43246.937    10693.381       21.449        7.963      519.346      120.569        0.054      341.579       16.385      859.312
04/24/2014  13:52:00     -383.830     -168.657      -18.273      231.600      180.338      111.036    53638.740    32521.974    12329.040       13.728        4.924      419.250      124.335        0.088      341.569       16.369      859.264
04/24/2014  13:53:00     -530.819     -294.171      -14.413      326.158      200.524      119.383   106378.769    40210.006    14252.184       26.464        8.042      606.881      158.626        0.068      341.619       16.454      859.234
04/24/2014  13:54:00     -461.942     -289.889       -1.530      229.088      176.040       97.331    52481.133    30989.923     9473.286       19.517        4.647      545.368      111.255        0.042      341.505       16.261      859.254
04/24/2014  13:55:00     -428.389     -273.619       -4.642      241.814      217.434      104.874    58474.158    47277.361    10998.650       18.755        5.838      508.315      114.537        0.051      341.537       16.316      859.189
04/24/2014  13:56:00     -445.490     -236.831      -14.162      224.867      210.467       94.327    50565.264    44296.500     8897.539       17.923        5.188      504.530      104.164        0.043      341.709       16.606      859.217
04/24/2014  13:57:00     -296.521     -159.988        8.330      166.240      152.461       87.840    27635.615    23244.291     7715.924        8.608        2.930      336.928       87.517        0.067      341.854       16.852      859.196
04/24/2014  13:58:00     -431.946     -272.427      -18.777      248.324      206.926       95.266    61664.917    42818.377     9075.684       18.733        5.678      510.680      120.295        0.055      341.813       16.782      859.182
04/24/2014  13:59:00     -504.179     -283.899       -0.316      240.125      189.898      103.325    57660.076    36061.249    10675.964       21.958        5.220      578.615      107.758        0.035      341.741       16.659      859.186
04/24/2014  14:00:00     -447.654     -310.537       -9.862      248.137      190.749      100.264    61572.066    36385.101    10052.886       20.245        5.401      544.818      112.785        0.043      341.810       16.778      859.166
04/24/2014  14:01:00     -532.484     -289.383      -29.831      236.873      206.557      103.719    56108.766    42665.842    10757.531       23.883        5.477      606.037      134.185        0.049      341.626       16.466      859.129
04/24/2014  14:02:00     -551.333     -232.980       -7.969      343.533      271.230      134.155   118015.135    73565.766    17997.627       28.390       10.479      598.538      177.602        0.088      341.662       16.526      859.072
04/24/2014  14:03:00     -556.760     -262.439      -22.499      298.696      222.906      109.453    89219.529    49687.291    11979.940       26.509        7.544      615.513      114.394        0.035      341.827       16.808      859.056
04/24/2014  14:04:00     -636.801     -221.759      -22.801      322.062      254.752      110.169   103723.626    64898.358    12137.230       31.795        9.038      674.309      138.162        0.042      341.689       16.573      859.139
04/24/2014  14:05:00     -370.524     -268.276        7.130      215.347      205.940      107.019    46374.353    42411.388    11452.970       15.475        5.012      457.449      118.750        0.067      341.733       16.647      859.154
04/24/2014  14:06:00     -499.990     -284.113      -32.228      228.055      204.118      111.654    52009.205    41664.146    12466.673       21.892        5.307      575.074      103.891        0.033      341.860       16.863      859.120
04/24/2014  14:07:00     -501.220     -226.936      -17.075      254.774      243.822      114.028    64909.729    59449.369    13002.490       22.016        6.868      550.201      128.825        0.055      341.710       16.609      859.108
04/24/2014  14:08:00     -586.598     -269.254       -9.326      267.134      196.304      116.701    71360.393    38535.079    13619.239       27.007        6.176      645.442      127.927        0.039      341.606       16.433      859.110
04/24/2014  14:09:00     -248.362      -91.385       -3.664      221.973      148.364       89.419    49271.920    22011.767     7995.750        7.465        3.964      264.642      118.943        0.202      341.821       16.797      859.103
04/24/2014  14:10:00      -99.500      -11.746       21.097      122.978       90.777       67.403    15123.683     8240.506     4543.221        1.919        1.395      100.191       58.351        0.339      341.901       16.933      859.039
04/24/2014  14:11:00     -213.665     -166.762       11.490      168.257      119.012       68.876    28310.290    14163.858     4743.883        6.040        2.361      271.040       85.624        0.100      341.960       17.034      859.037
04/24/2014  14:12:00     -388.276     -311.352       -8.790      223.401      204.212      112.870    49907.856    41702.714    12739.655       17.604        5.218      497.693      109.269        0.048      341.755       16.685      859.029
04/24/2014  14:13:00     -582.901     -408.791      -11.016      283.996      259.263      138.624    80653.927    67217.503    19216.712       33.701        8.354      711.958      142.090        0.040      341.593       16.408      858.925
04/24/2014  14:14:00     -542.318     -271.007      -25.917      371.609      271.434      149.077   138093.566    73676.588    22223.928       30.106       11.700      606.262      148.146        0.060      341.629       16.471      858.910
04/24/2014  14:15:00     -676.772     -206.141      -19.266      312.765      216.439      126.434    97821.854    46845.656    15985.432       33.074        8.033      707.471      130.605        0.034      341.614       16.446      858.947
04/24/2014  14:16:00     -535.163     -323.586      -11.964      276.450      244.310      132.448    76424.682    59687.490    17542.417       27.242        7.683      625.386      136.347        0.048      341.771       16.712      858.914
04/24/2014  14:17:00     -384.601     -211.058       -4.990      279.366      179.480       81.211    78045.228    32213.125     6595.159       15.465        5.843      438.707      108.359        0.061      342.055       17.195      858.923
04/24/2014  14:18:00     -539.992     -164.889      -13.501      269.153      224.087      123.117    72443.382    50214.786    15157.764       22.836        6.891      564.606      117.686        0.043      341.781       16.728      858.988
04/24/2014  14:19:00     -394.655     -316.291      -26.500      235.548      236.313       97.362    55482.939    55843.748     9479.446       18.863        6.040      505.759       86.875        0.030      341.512       16.274      859.019
04/24/2014  14:20:00     -250.834     -241.544       10.439      169.175      155.065       90.288    28620.048    24045.162     8151.951        9.108        3.041      348.225       96.437        0.077      341.596       16.416      858.978
04/24/2014  14:21:00     -445.228     -276.356      -11.244      248.831      147.410       78.723    61916.954    21729.695     6197.293       18.227        4.492      524.024       83.083        0.025      341.695       16.583      858.947
04/24/2014  14:22:00     -444.018     -218.827        8.176      236.743      136.536       89.501    56047.110    18641.963     8010.444       16.389        4.135      495.012      101.079        0.042      341.870       16.880      858.912
04/24/2014  14:23:00     -348.903     -328.082        2.744      239.316      226.379      122.446    57271.925    51247.374    14993.053       17.642        6.176      478.927      130.780        0.075      341.931       16.984      858.929
04/24/2014  14:24:00     -469.887     -261.883      -10.748      311.024      227.400      121.597    96735.743    51710.937    14785.857       22.633        8.162      537.937      139.454        0.067      341.959       17.029      858.980
04/24/2014  14:25:00     -567.583     -314.427      -54.047      241.204      221.060      108.433    58179.354    48867.520    11757.645       27.135        5.940      648.856      129.768        0.040      341.663       16.531      858.968
04/24/2014  14:26:00     -652.926     -411.882      -51.540      232.389      215.220      131.094    54004.669    46319.728    17185.657       35.804        5.876      771.984      146.920        0.036      341.657       16.522      858.928
04/24/2014  14:27:00     -448.995     -229.238        7.863      333.558      197.026      130.407   111260.809    38819.198    17006.082       21.061        8.354      504.130      149.984        0.089      341.916       16.957      858.866
04/24/2014  14:28:00     -532.037     -393.610      -16.386      307.826      291.039      144.801    94756.886    84703.467    20967.270       31.930       10.021      661.810      144.336        0.048      341.844       16.836      858.920
04/24/2014  14:29:00     -434.776     -215.257       13.610      313.774      220.011      140.521    98454.058    48404.743    19746.106       20.104        8.330      485.145      159.838        0.109      341.849       16.845      858.845
04/24/2014  14:30:00     -650.700     -204.975      -20.676      383.994      236.845      132.907   147451.019    56095.526    17664.399       34.349       11.061      682.221      159.844        0.055      341.924       16.971      858.770
04/24/2014  14:31:00     -612.888     -396.090      -14.735      286.043      289.845      148.260    81820.881    84010.136    21981.095       36.024        9.391      729.739      147.336        0.041      341.709       16.608      858.854
04/24/2014  14:32:00     -556.891     -332.233       12.181      313.390      216.786      138.668    98213.095    46996.163    19228.897       29.251        8.222      648.464      152.318        0.055      341.834       16.819      858.831
04/24/2014  14:33:00     -449.536     -256.668       -2.977      308.053      218.561      133.698    94896.731    47768.736    17875.199       21.422        8.027      517.649      152.430        0.087      341.923       16.969      858.791
04/24/2014  14:34:00     -497.565     -151.953      -26.945      234.304      198.402      116.021    54898.168    39363.371    13460.839       18.953        5.386      520.251      111.182        0.046      341.901       16.931      858.800
04/24/2014  14:35:00     -511.794     -372.909      -28.873      223.145      183.536      112.482    49793.837    33685.480    12652.224       24.896        4.807      633.241      128.655        0.041      341.846       16.838      858.791
04/24/2014  14:36:00     -465.194     -221.737      -12.300      242.470      214.212       95.156    58791.694    45886.951     9054.744       18.971        5.687      515.338      106.417        0.043      342.010       17.118      858.799
04/24/2014  14:37:00     -477.599     -221.665       -3.432      266.276      285.799      121.578    70902.700    81680.793    14781.255       22.227        8.368      526.533      129.153        0.060      341.948       17.012      858.750
04/24/2014  14:38:00     -497.949     -369.224      -17.594      266.363      172.823      120.355    70949.486    29867.746    14485.220       24.992        5.765      619.903      123.924        0.040      341.845       16.837      858.736
04/24/2014  14:39:00     -372.917     -216.267        1.043      287.714      137.105       89.403    82779.102    18797.900     7992.928       14.768        5.478      431.090       77.954        0.033      341.979       17.063      858.735
04/24/2014  14:40:00     -383.751     -237.675        3.224      231.433      172.861      103.931    53561.301    29881.036    10801.660       14.899        4.712      451.391      111.610        0.061      342.111       17.289      858.706
04/24/2014  14:41:00     -626.920     -338.673       -6.164      287.720      219.756      120.034    82782.684    48292.688    14408.272       32.660        7.274      712.551      147.231        0.043      342.000       17.101      858.769
04/24/2014  14:42:00     -396.055     -197.574       -6.855      210.864      204.151       93.994    44463.822    41677.522     8834.919       14.544        4.749      442.600       90.495        0.042      342.099       17.268      858.741
04/24/2014  14:43:00     -302.923     -245.522       15.268      267.177      229.860       96.883    71383.807    52835.733     9386.328       14.291        6.680      389.927      114.261        0.086      342.031       17.153      858.722
04/24/2014  14:44:00     -444.658     -270.064      -17.824      179.230      148.434       78.565    32123.263    22032.679     6172.449       16.564        3.016      520.245       76.550        0.022      341.924       16.971      858.712
04/24/2014  14:45:00     -380.803     -248.426       19.045      257.184      189.514      108.447    66143.379    35915.665    11760.841       16.043        5.691      454.672      127.804        0.079      342.024       17.141      858.624
04/24/2014  14:46:00     -276.321     -228.001        0.050      183.214      137.601       86.636    33567.242    18934.100     7505.769        9.416        3.000      358.243       92.282        0.066      342.432       17.835      858.643
04/24/2014  14:47:00     -293.599     -161.666        7.200      179.350      155.340       80.287    32166.594    24130.554     6445.980        8.755        3.137      335.166       90.977        0.074      342.389       17.761      858.636
04/24/2014  14:48:00     -441.762     -347.022       16.068      321.500      249.031      133.898   103362.161    62016.621    17928.586       24.954        9.165      561.763      159.775        0.081      342.060       17.203      858.585
04/24/2014  14:49:00     -541.925     -319.626      -16.621      284.961      213.550      108.547    81202.787    45603.731    11782.357       26.733        6.929      629.160      134.388        0.046      341.901       16.932      858.540
04/24/2014  14:50:00     -340.792     -200.608       -1.939      185.477      184.283       85.226    34401.557    33960.092     7263.470       11.599        3.781      395.452       89.971        0.052      342.208       17.454      858.511
04/24/2014  14:51:00     -549.085     -252.815       -8.804      281.851      225.166      113.411    79439.845    50699.769    12862.015       25.422        7.150      604.492      119.505        0.039      342.191       17.424      858.508
04/24/2014  14:52:00     -401.673     -161.352        0.155      235.723      210.777       92.734    55565.141    44426.978     8599.586       14.796        5.430      432.869      100.606        0.054      342.334       17.667      858.537
04/24/2014  14:53:00     -563.585     -301.162       -9.316      370.489      257.015      130.961   137261.871    66056.757    17150.872       31.440       11.023      639.004      166.261        0.068      341.953       17.020      858.540
04/24/2014  14:54:00     -284.585     -398.984        7.115      270.763      214.891      116.179    73312.425    46178.285    13497.447       18.658        6.649      490.078      129.612        0.070      341.630       16.472      858.540
04/24/2014  14:55:00     -350.441     -163.822      -28.378      222.750      115.043       78.276    49617.659    13234.863     6127.191       10.970        3.449      386.842       91.942        0.056      341.939       16.998      858.513
04/24/2014  14:56:00     -316.794     -204.627       11.854      238.694      243.572      108.982    56974.693    59327.206    11877.159       13.525        6.409      377.135      123.140        0.107      342.170       17.388      858.514
04/24/2014  14:57:00     -341.412     -190.847       12.243      267.623      182.529      107.130    71622.236    33316.697    11476.755       13.475        5.821      391.132      120.190        0.094      342.048       17.182      858.470
04/24/2014  14:58:00     -380.445     -129.023       -4.335      195.008      189.047       96.906    38027.930    35738.583     9390.847       12.226        4.158      401.728       75.747        0.036      342.085       17.246      858.457
04/24/2014  14:59:00     -482.342     -414.303        4.409      322.065      247.322      144.493   103725.713    61168.135    20878.096       29.501        9.289      635.847      167.417        0.069      342.023       17.141      858.302
04/24/2014  15:00:00     -359.477     -194.547       -0.254      243.161      224.320      115.264    59127.140    50319.398    13285.858       14.488        6.137      408.745      124.780        0.093      342.275       17.569      858.304
04/24/2014  15:01:00     -621.766     -183.236      -40.127      335.796      178.551      112.383   112758.983    31880.583    12629.949       28.949        7.863      648.204      143.824        0.049      342.108       17.284      858.346
04/24/2014  15:02:00     -566.839     -175.133      -23.141      198.604      199.474       97.014    39443.687    39789.705     9411.683       22.056        4.432      593.278      101.230        0.029      342.065       17.210      858.358
04/24/2014  15:03:00     -607.209     -192.600      -36.460      290.314      268.983      110.899    84282.312    72352.082    12298.526       28.800        8.447      637.023      114.314        0.032      342.221       17.476      858.351
04/24/2014  15:04:00     -684.366     -337.758      -22.663      357.576      283.516      149.939   127860.403    80381.490    22481.605       40.679       11.536      763.175      172.757        0.051      341.985       17.075      858.356
04/24/2014  15:05:00     -487.542     -221.211       -0.348      318.006      221.603      117.218   101127.882    49108.044    13740.153       22.527        8.199      535.380      149.573        0.078      342.281       17.578      858.490
04/24/2014  15:06:00     -397.680     -316.321       -3.495      256.161      162.996      100.977    65618.519    26567.808    10196.352       18.028        5.119      508.142      124.582        0.060      342.191       17.424      858.576
04/24/2014  15:07:00     -354.696     -306.467       -3.689      229.418      212.982       99.661    52632.619    45361.229     9932.219       16.381        5.396      468.755       98.229        0.044      342.093       17.258      858.589
04/24/2014  15:08:00     -467.744     -236.334      -17.107      193.855      145.649       86.754    37579.606    21213.685     7526.314       17.061        3.316      524.059       87.395        0.028      342.195       17.430      858.592
04/24/2014  15:09:00     -396.216     -246.404       -5.073      245.312      161.513       98.891    60178.118    26086.465     9779.494       15.687        4.802      466.585      118.648        0.065      342.185       17.416      858.616
04/24/2014  15:10:00     -369.273     -209.150      -31.959      201.941      215.642       95.043    40780.133    46501.678     9033.173       13.870        4.816      424.390       85.954        0.041      342.307       17.622      858.557
04/24/2014  15:11:00     -246.573     -174.843       19.414      243.717      208.366       94.247    59398.068    43416.291     8882.576       10.170        5.585      302.271       99.638        0.109      342.415       17.807      858.572
04/24/2014  15:12:00     -633.030     -348.232      -15.303      330.835      227.371      120.284   109451.711    51697.516    14468.180       34.889        8.781      722.490      158.334        0.048      341.844       16.834      858.517
04/24/2014  15:13:00     -399.331     -263.297        7.672      253.467      204.828      111.839    64245.619    41954.661    12507.855       17.376        5.935      478.321      132.650        0.077      341.934       16.987      858.497
04/24/2014  15:14:00     -559.167     -220.438       -9.681      274.047      246.163      120.049    75101.841    60596.339    14411.862       25.570        7.506      601.050      123.873        0.042      341.975       17.057      858.451
04/24/2014  15:15:00     -555.639     -162.782      -34.419      306.209      230.047      106.685    93763.914    52921.745    11381.633       24.721        7.903      578.993      137.855        0.057      341.953       17.021      858.507
04/24/2014  15:16:00     -426.491     -250.410      -13.255      258.825      187.716      100.757    66990.424    35237.416    10152.071       17.856        5.619      494.570      107.651        0.047      342.011       17.118      858.438
04/24/2014  15:17:00     -473.500     -259.087      -15.528      301.849      221.301      126.124    91112.539    48974.078    15907.270       22.375        7.800      539.748      155.194        0.083      342.109       17.284      858.414
04/24/2014  15:18:00     -365.447     -285.100        5.268      266.762      232.745      125.181    71162.066    54170.073    15670.337       17.790        7.050      463.501      138.139        0.089      341.961       17.033      858.415
04/24/2014  15:19:00     -427.735     -199.320       -2.311      267.802      199.706       96.447    71718.145    39882.482     9301.994       17.177        6.045      471.896      117.530        0.062      342.154       17.362      858.347
04/24/2014  15:20:00     -378.245      -52.104        1.683      231.179      142.002       95.047    53443.682    20164.448     9033.876       11.420        4.132      381.817      103.773        0.074      342.145       17.348      858.354
04/24/2014  15:21:00     -655.738     -262.761      -32.507      314.988      247.611      113.998    99217.533    61310.973    12995.441       33.677        8.676      706.424      141.542        0.040      342.074       17.227      858.341
04/24/2014  15:22:00     -702.739     -371.813      -22.921      335.231      323.933      149.327   112379.933   104932.341    22298.693       43.606       11.981      795.039      176.589        0.049      341.890       16.912      858.299
04/24/2014  15:23:00     -508.063     -234.937       -9.192      358.883      309.252      143.506   128796.768    95636.662    20593.848       27.917       12.251      559.753      181.179        0.105      341.981       17.068      858.383
04/24/2014  15:24:00     -463.313     -252.912      -10.803      232.755      205.075      102.723    54174.891    42055.761    10551.967       19.274        5.339      527.848      106.110        0.040      341.963       17.037      858.491
04/24/2014  15:25:00     -533.233     -235.396        3.763      309.269      195.442      105.610    95647.175    38197.435    11153.388       24.235        7.250      582.879      129.961        0.050      341.783       16.733      858.421
04/24/2014  15:26:00     -475.520     -425.962       -6.658      305.643      218.704      142.142    93417.679    47831.604    20204.422       28.450        8.073      638.406      168.013        0.069      341.798       16.759      858.392
04/24/2014  15:27:00     -327.138     -176.361        0.464      208.537      182.124       90.733    43487.482    33169.189     8232.446       11.149        4.244      371.648      101.730        0.075      342.050       17.185      858.396
04/24/2014  15:28:00     -454.710     -298.500       19.022      371.846      274.144      134.280   138269.589    75154.947    18031.019       26.379       11.573      543.934      174.756        0.103      341.876       16.889      858.294
04/24/2014  15:29:00     -534.044     -346.449      -15.462      346.092      296.147      122.137   119779.523    87702.944    14917.475       31.389       11.120      636.576      170.987        0.072      341.747       16.671      858.237
04/24/2014  15:30:00     -400.815     -210.269       -5.694      211.955      219.359       96.557    44925.116    48118.436     9323.278       15.361        5.118      452.621       87.328        0.037      341.835       16.821      858.243
04/24/2014  15:31:00     -617.999     -325.177      -38.240      284.401      223.137      122.107    80884.005    49790.241    14910.209       31.733        7.279      698.329      119.783        0.029      341.702       16.595      858.247
04/24/2014  15:32:00     -536.123     -124.231      -26.733      303.662      225.907      121.232    92210.675    51034.006    14697.263       23.073        7.897      550.328      134.793        0.060      341.923       16.969      858.255
04/24/2014  15:33:00     -452.589     -269.149       -8.257      307.616      234.666      113.771    94627.711    55068.349    12943.744       21.996        8.132      526.572      145.802        0.077      342.030       17.151      858.268
04/24/2014  15:34:00     -385.939     -337.597        0.270      248.865      225.126      104.657    61933.825    50681.613    10953.020       19.322        6.178      512.758      107.191        0.044      341.984       17.072      858.242
04/24/2014  15:35:00     -494.274     -311.994       -5.171      287.635      211.570      132.244    82733.713    44761.661    17488.554       24.330        7.249      584.506      147.038        0.063      341.896       16.923      858.261
04/24/2014  15:36:00     -453.464     -353.091      -11.023      267.756      246.313      113.176    71693.153    60670.334    12808.756       23.777        7.259      574.719      136.153        0.056      341.929       16.979      858.273
04/24/2014  15:37:00     -384.664     -170.315        0.923      246.479      175.601      110.934    60751.719    30835.867    12306.325       14.041        5.195      420.683      122.419        0.085      341.953       17.022      858.262
04/24/2014  15:38:00     -369.645     -204.278       13.324      229.461      166.322       97.622    52652.133    27662.876     9529.973       13.418        4.492      422.335      108.224        0.066      341.986       17.077      858.248
04/24/2014  15:39:00     -442.640     -261.768        5.375      236.012      211.555       94.797    55701.719    44755.469     8986.387       18.694        5.472      514.249      115.081        0.050      341.859       16.860      858.211
04/24/2014  15:40:00     -331.219     -210.891       -1.042      209.099      172.349       85.881    43722.420    29704.163     7375.613       11.748        4.040      392.659      101.255        0.066      341.998       17.097      858.216
04/24/2014  15:41:00     -459.039      -50.282      -25.992      272.220      210.522      102.336    74103.462    44319.536    10472.731       17.138        6.445      461.785      115.775        0.063      341.929       16.981      858.165
04/24/2014  15:42:00     -601.696     -374.296       -6.414      332.109      261.130      127.222   110296.268    68189.099    16185.525       34.838        9.734      708.616      129.072        0.033      341.925       16.974      858.122
04/24/2014  15:43:00     -138.860      -73.329       39.277      188.291      190.279      108.182    35453.323    36206.234    11703.398        5.477        4.168      157.033       96.096        0.374      342.274       17.566      858.113
04/24/2014  15:44:00     -362.908     -272.005       -4.138      259.573      197.688      101.142    67378.079    39080.610    10229.716       16.117        5.834      453.529      105.611        0.054      342.177       17.400      858.121
04/24/2014  15:45:00     -282.625     -219.148       -2.189      253.829      160.213      103.862    64429.154    25668.159    10787.414       11.438        5.044      357.635      111.929        0.098      342.202       17.444      858.084
04/24/2014  15:46:00     -626.556     -392.154       -5.624      285.699      255.355      148.757    81623.840    65206.245    22128.647       35.764        8.448      739.160      154.389        0.044      341.824       16.801      858.098
04/24/2014  15:47:00     -548.023     -329.704       -2.792      263.192      232.741      133.904    69270.199    54168.284    17930.208       27.518        7.068      639.558      145.070        0.051      341.894       16.921      858.060
04/24/2014  15:48:00     -530.972     -351.889      -19.268      256.025      167.964      109.406    65548.599    28211.745    11969.643       25.591        5.286      636.991      118.811        0.035      342.035       17.158      858.035
04/24/2014  15:49:00     -522.003     -387.847      -23.576      312.150      244.623      127.993    97437.498    59840.331    16382.100       29.853        8.683      650.317      127.266        0.038      341.940       16.999      858.023
04/24/2014  15:50:00     -564.265     -312.972       10.766      305.387      207.026      117.060    93261.235    42859.637    13703.055       28.311        7.491      645.249      119.651        0.034      341.917       16.959      858.036
04/24/2014  15:51:00     -414.022     -266.500      -28.601      214.426      188.653       93.920    45978.549    35590.079     8821.020       16.680        4.519      492.379       85.613        0.030      342.009       17.115      858.038
04/24/2014  15:52:00     -366.391     -211.931        8.560      195.208      188.839       97.210    38106.090    35660.234     9449.812       13.121        4.161      423.269      110.885        0.069      342.186       17.416      858.032
04/24/2014  15:53:00     -302.351     -299.038        7.324      244.333      236.979      114.339    59698.615    56159.052    13073.490       15.489        6.447      425.253      132.255        0.097      342.014       17.124      857.966
04/24/2014  15:54:00     -361.086     -230.051        1.054      220.683      213.620      106.692    48701.172    45633.544    11383.201       14.449        5.286      428.143      109.509        0.065      342.026       17.144      857.951
04/24/2014  15:55:00     -397.909     -240.450       -8.960      242.810      157.062      104.285    58956.463    24668.559    10875.287       15.535        4.725      464.917      107.353        0.053      342.059       17.202      857.991
04/24/2014  15:56:00     -303.614     -218.910       12.940      235.591      147.845      111.376    55503.189    21858.286    12404.638       11.500        4.488      374.303      128.806        0.118      342.104       17.277      857.973
04/24/2014  15:57:00     -360.890     -328.988      -12.990      265.762      222.351      116.550    70629.479    49440.068    13583.873       18.612        6.683      488.338      121.999        0.062      342.156       17.366      857.990
04/24/2014  15:58:00     -548.205     -386.353       -5.468      315.098      270.785      130.458    99286.603    73324.332    17019.246       31.969        9.482      670.670      147.036        0.048      341.850       16.846      857.972
04/24/2014  15:59:00     -503.365     -331.405       -4.167      294.140      195.134      122.687    86518.408    38077.319    15052.122       25.141        6.982      602.665      139.585        0.054      341.759       16.692      857.962
04/24/2014  16:00:00     -208.568     -199.615       16.734      156.814      129.791       85.390    24590.477    16845.784     7291.537        6.617        2.436      288.698       73.403        0.065      341.897       16.926      857.952
04/24/2014  16:01:00     -387.944     -205.222      -15.886      198.424      122.434       72.910    39371.994    14990.131     5315.892       12.626        2.984      438.882       72.535        0.027      342.011       17.119      857.898
04/24/2014  16:02:00     -445.037     -253.020      -22.511      290.977      154.236      108.310    84667.497    23788.891    11731.003       19.136        6.009      511.935      126.913        0.061      342.134       17.327      857.933
04/24/2014  16:03:00     -424.648     -340.365       -2.084      278.155      194.691       95.499    77370.018    37904.777     9120.102       21.026        6.220      544.219       93.273        0.029      341.938       16.995      857.908
04/24/2014  16:04:00     -322.299     -441.575       -8.399      209.398      172.917      100.760    43847.328    29900.206    10152.595       19.140        4.195      546.685       95.902        0.031      341.851       16.847      857.907
04/24/2014  16:05:00     -382.652     -287.682      -11.348      239.905      189.788       88.551    57554.520    36019.446     7841.212       16.534        5.071      478.731       97.891        0.042      341.920       16.965      857.872
04/24/2014  16:06:00     -148.837     -103.837       13.487      161.226      133.343       72.882    25993.957    17780.389     5311.752        4.109        2.454      181.479       86.705        0.228      342.118       17.302      857.817
04/24/2014  16:07:00     -153.556     -209.166       -8.835      191.762      146.435       73.444    36772.647    21443.310     5394.049        6.550        3.181      259.480       62.738        0.058      342.203       17.445      857.794
04/24/2014  16:08:00     -485.316     -350.011      -16.604      270.918      192.293      102.028    73396.414    36976.752    10409.752       23.952        6.039      598.364       98.443        0.027      342.087       17.249      857.773
04/24/2014  16:09:00     -411.896     -220.502      -17.110      243.693      209.866      110.518    59386.048    44043.781    12214.308       16.709        5.782      467.204      131.851        0.080      342.051       17.187      857.744
04/24/2014  16:10:00     -319.758     -184.852       -2.295      201.101      209.939       89.054    40441.734    44074.411     7930.672       11.442        4.622      369.345       98.531        0.071      342.342       17.681      857.791
04/24/2014  16:11:00     -263.268     -154.638      -10.914      193.586      123.087       86.720    37475.512    15150.305     7520.371        7.673        3.007      305.325       91.959        0.091      342.468       17.895      857.801
04/24/2014  16:12:00     -200.716      -21.614       11.692      238.561      142.949      101.236    56911.570    20434.458    10248.762        6.423        4.380      201.876      110.120        0.298      342.431       17.834      857.777
04/24/2014  16:13:00     -422.096      -76.386      -10.315      181.745      164.888       78.980    33031.333    27188.132     6237.871       12.527        3.323      428.952       87.036        0.041      342.130       17.321      857.763
04/24/2014  16:14:00     -347.943     -219.018        4.504      216.890      205.439      104.774    47041.296    42205.175    10977.600       13.462        5.011      411.137      112.271        0.075      342.168       17.386      857.737
04/24/2014  16:15:00     -256.963     -139.081       14.200      187.420      206.524      103.679    35126.239    42652.046    10749.269        8.703        4.426      292.188       87.780        0.090      342.324       17.651      857.743
04/24/2014  16:16:00     -377.048     -198.207        4.916      171.287      146.683       79.671    29339.331    21515.812     6347.406       11.933        2.860      425.970       75.602        0.031      342.263       17.547      857.731
04/24/2014  16:17:00     -326.727     -188.315       15.742      228.000      170.516      108.359    51984.137    29075.572    11741.720       11.761        4.640      377.112       95.645        0.064      342.113       17.292      857.714
04/24/2014  16:18:00     -284.460     -161.168        4.027      182.615      157.928       78.658    33348.384    24941.113     6187.051        8.568        3.224      326.945       84.033        0.066      341.955       17.024      857.670
04/24/2014  16:19:00     -302.228     -290.801        5.755      220.867      177.343      105.207    48782.134    31450.536    11068.582       13.360        4.565      419.412      110.619        0.070      342.007       17.112      857.580
04/24/2014  16:20:00     -512.016     -220.924       -2.851      284.823      222.028      111.921    81124.318    49296.470    12526.268       22.693        7.147      557.645      139.198        0.062      342.097       17.264      857.604
04/24/2014  16:21:00     -497.189     -339.409        0.271      303.073      250.769      124.774    91853.516    62885.054    15568.659       26.632        8.515      601.993      155.484        0.067      341.996       17.094      857.654
04/24/2014  16:22:00     -598.576     -381.349       -0.374      266.866      223.612      121.692    71217.700    50002.411    14809.025       31.985        6.801      709.733      141.354        0.040      341.639       16.488      857.599
04/24/2014  16:23:00     -477.264     -294.491        7.932      260.215      247.926      139.050    67712.007    61467.274    19334.806       23.151        7.426      560.809      134.117        0.057      341.842       16.832      857.627
04/24/2014  16:24:00     -578.841     -394.818        9.158      308.018      242.573      129.780    94875.386    58841.752    16842.950       33.076        8.528      700.670      152.416        0.047      341.704       16.598      857.535
04/24/2014  16:25:00     -642.053     -390.614      -16.334      363.064      272.162      134.944   131815.498    74072.079    18209.845       39.454       11.205      751.539      159.554        0.045      341.739       16.656      857.438
04/24/2014  16:26:00     -371.823     -221.401       13.737      258.457      188.756      120.789    66800.135    35628.800    14589.912       15.222        5.851      432.748      144.519        0.112      341.943       17.003      857.466
04/24/2014  16:27:00     -396.036      -41.682       -0.231      233.828      194.147       92.308    54675.554    37693.047     8520.687       12.972        5.044      398.223       99.936        0.063      342.091       17.256      857.475
04/24/2014  16:28:00     -228.632     -150.170        1.887      165.530      178.570       97.715    27400.319    31887.423     9548.174        7.182        3.442      273.539       89.388        0.107      342.252       17.528      857.428
04/24/2014  16:29:00     -298.339     -237.877        5.400      270.084      208.046      101.083    72945.633    43283.215    10217.851       13.601        6.322      381.565      112.731        0.087      342.305       17.619      857.460
04/24/2014  16:30:00     -500.861     -256.702        4.818      284.065      217.032      127.841    80692.819    47102.819    16343.309       23.043        7.207      562.812      151.288        0.072      341.754       16.683      857.463
04/24/2014  16:31:00     -359.705     -105.301       -1.974      241.175      221.273      101.090    58165.475    48961.829    10219.213       12.889        5.867      374.801      112.368        0.090      341.857       16.857      857.424
04/24/2014  16:32:00     -412.527     -362.721        5.131      200.975      245.612      110.160    40390.834    60325.167    12135.215       20.729        5.643      549.313      105.526        0.037      341.810       16.778      857.435
04/24/2014  16:33:00     -559.505     -375.785      -10.945      229.358      216.667      124.383    52605.303    46944.395    15471.245       28.468        5.751      673.988      120.935        0.032      341.656       16.516      857.405
04/24/2014  16:34:00     -532.522     -278.024      -13.175      276.742      226.064      106.493    76585.871    51105.059    11340.757       25.001        6.952      600.731      116.531        0.038      341.787       16.738      857.375
04/24/2014  16:35:00     -657.508     -308.801      -10.662      325.604      289.221      132.217   106018.165    83648.591    17481.352       36.743       10.357      726.412      133.825        0.034      341.609       16.437      857.292
04/24/2014  16:36:00     -389.407     -267.976        2.389      251.981      200.288      111.991    63494.257    40115.427    12541.958       16.978        5.808      472.704      113.942        0.058      341.775       16.718      857.327
04/24/2014  16:37:00     -537.662     -309.764       13.555      331.373      212.031      119.229   109807.865    44957.320    14215.502       27.707        8.449      620.511      148.446        0.057      341.795       16.751      857.316
04/24/2014  16:38:00     -629.802     -161.087       -0.271      278.153      256.645      134.753    77369.173    65866.886    18158.476       29.197        8.070      650.077      143.844        0.049      341.792       16.749      857.285
04/24/2014  16:39:00     -593.650     -333.136      -10.418      301.848      214.914      139.754    91112.498    46188.193    19531.052       31.014        7.842      680.735      157.798        0.054      341.848       16.842      857.313
04/24/2014  16:40:00     -449.499     -198.785        7.830      282.229      227.299      131.667    79653.411    51664.730    17336.097       19.511        7.433      491.493      153.882        0.098      341.978       17.063      857.362
04/24/2014  16:41:00     -512.202     -300.424       12.844      233.277      245.549      126.324    54418.030    60294.183    15957.644       24.169        6.533      593.806      116.990        0.039      341.799       16.759      857.394
04/24/2014  16:42:00     -469.838     -323.733      -10.382      316.073      204.764      115.464    99902.160    41928.213    13331.979       24.038        7.758      570.571      128.252        0.051      341.814       16.785      857.369
04/24/2014  16:43:00     -449.777     -288.265       -6.140      234.688      187.480       98.029    55078.685    35148.767     9609.780       19.262        4.992      534.225      109.286        0.042      341.912       16.951      857.423
04/24/2014  16:44:00     -223.902     -148.768       -1.383      187.308      164.921       91.717    35084.363    27198.865     8412.094        7.147        3.535      268.820       97.221        0.131      342.045       17.177      857.429
04/24/2014  16:45:00     -360.022     -188.881      -18.865      252.135      145.825       79.718    63572.141    21264.810     6355.004       12.840        4.560      406.561       91.639        0.051      341.732       16.646      857.359
04/24/2014  16:46:00     -398.989     -192.016      -11.788      222.564      141.743       86.865    49534.784    20091.155     7545.493       13.667        3.859      442.789       95.389        0.046      341.842       16.832      857.330
04/24/2014  16:47:00     -336.826     -236.856        3.388      189.218      140.555       95.082    35803.407    19755.827     9040.668       11.707        3.230      411.768       84.694        0.042      341.836       16.822      857.311
04/24/2014  16:48:00     -427.564     -295.043      -19.002      212.409      246.938      105.354    45117.795    60978.550    11099.529       19.369        5.860      519.481       86.563        0.028      341.908       16.944      857.211
04/24/2014  16:49:00     -365.505     -100.671       10.978      310.661      245.049      138.421    96510.307    60049.119    19160.284       15.975        8.786      379.116      154.509        0.166      342.080       17.236      857.142
04/24/2014  16:50:00     -755.856     -286.144      -38.301      291.941      208.888      126.338    85229.426    43634.118    15961.287       39.972        7.241      808.206      139.713        0.030      341.884       16.904      857.221
04/24/2014  16:51:00     -534.260     -319.027      -12.515      291.316      164.707      116.928    84864.922    27128.373    13672.190       25.649        6.283      622.264      144.111        0.054      341.802       16.764      857.354
04/24/2014  16:52:00     -227.116     -153.913       20.128      177.671      163.653       74.916    31566.839    26782.175     5612.346        6.981        3.198      274.355       84.211        0.094      341.853       16.851      857.385
04/24/2014  16:53:00     -410.246     -152.412       -9.459      299.761      155.928       97.280    89856.872    24313.504     9463.317       15.760        6.182      437.643      102.614        0.055      341.854       16.852      857.350
04/24/2014  16:54:00     -415.409     -178.347       18.292      284.146      201.557      114.238    80739.126    40625.215    13050.429       16.953        6.721      452.076      128.608        0.081      341.815       16.788      857.389
04/24/2014  16:55:00     -359.901     -239.673      -28.135      179.355      128.169       84.583    32168.290    16427.351     7154.343       12.175        2.787      432.403       84.129        0.038      341.773       16.716      857.388
04/24/2014  16:56:00     -469.282     -242.861      -30.282      195.600      175.767       84.600    38259.494    30894.187     7157.200       17.820        3.816      528.400       91.581        0.030      341.752       16.680      857.365
04/24/2014  16:57:00     -310.520     -237.848        8.887      199.825      140.817       89.305    39930.025    19829.305     7975.465       11.039        3.387      391.144      106.017        0.073      341.850       16.845      857.349
04/24/2014  16:58:00     -397.052     -317.163       -6.099      220.002      159.858       96.802    48400.885    25554.463     9370.632       17.079        4.166      508.176      108.288        0.045      341.918       16.960      857.328
04/24/2014  16:59:00     -392.398     -265.153        8.731      261.146      203.028      113.505    68197.494    41220.330    12883.283       17.331        6.115      473.584      125.356        0.070      341.945       17.007      857.322
04/24/2014  17:00:00     -476.631     -148.035        2.631      273.474      200.517      101.199    74787.895    40206.987    10241.337       18.714        6.262      499.091      120.803        0.059      341.959       17.031      857.339
04/24/2014  17:01:00     -276.349     -123.126        9.571      211.822      184.840       77.060    44868.663    34165.715     5938.245        8.828        4.249      302.537       82.559        0.074      341.971       17.051      857.380
04/24/2014  17:02:00     -385.357     -280.297        3.796      240.351      212.865      104.603    57768.710    45311.648    10941.869       17.053        5.701      476.515      118.750        0.062      341.846       16.838      857.350
04/24/2014  17:03:00     -409.425     -224.977        3.383      213.407      151.387       95.921    45542.421    22917.929     9200.843       14.794        3.883      467.165      101.988        0.048      341.799       16.759      857.293
04/24/2014  17:04:00     -427.881     -176.149       -5.093      311.483      182.145       85.315    97021.699    33176.857     7278.701       17.578        6.874      462.721      105.353        0.052      341.917       16.960      857.265
04/24/2014  17:05:00     -447.259     -200.612      -31.284      244.463      195.033      102.235    59762.171    38037.863    10451.972       17.474        5.413      490.190      124.964        0.065      341.852       16.849      857.239
04/24/2014  17:06:00     -241.999     -126.448       -1.288      190.171      171.802       95.116    36164.960    29516.041     9047.048        7.463        3.736      273.044      104.281        0.146      342.091       17.254      857.256
04/24/2014  17:07:00     -518.203     -190.799      -12.909      294.445      248.018      131.409    86698.091    61512.732    17268.323       23.526        8.274      552.213      146.694        0.071      342.023       17.139      857.316
04/24/2014  17:08:00     -417.004     -226.243       -2.389      242.762      183.559       92.193    58933.232    33694.074     8499.636       16.309        5.056      474.425       98.248        0.043      341.922       16.966      857.371
04/24/2014  17:09:00     -329.887     -211.655        0.416      182.029      165.657       96.699    33134.673    27442.181     9350.608       11.176        3.496      391.948       91.893        0.055      341.833       16.816      857.346
04/24/2014  17:10:00     -417.301     -258.624      -12.028      264.133      179.570      104.396    69766.502    32245.374    10898.463       17.702        5.646      490.945      118.153        0.058      341.815       16.786      857.314
04/24/2014  17:11:00     -514.554     -347.104      -16.309      265.261      165.104       99.821    70363.400    27259.196     9964.294       24.653        5.379      620.683      123.242        0.039      341.891       16.915      857.362
04/24/2014  17:12:00     -279.708     -216.483        1.928      215.450      166.992       92.422    46418.627    27886.337     8541.849       10.396        4.142      353.697      106.701        0.091      341.760       16.693      857.366
04/24/2014  17:13:00     -351.582     -358.180       -6.935      185.794      224.305       91.563    34519.354    50312.844     8383.702       17.257        4.661      501.900       88.056        0.031      341.695       16.583      857.348
04/24/2014  17:14:00     -434.436     -206.177       -3.588      175.014      139.929       82.456    30629.864    19580.210     6798.927       14.412        2.850      480.877       78.191        0.026      341.638       16.486      857.326
04/24/2014  17:15:00     -448.514     -169.460        2.220      215.620      170.550      100.193    46491.970    29087.385    10038.708       15.773        4.281      479.459      107.198        0.050      341.559       16.354      857.306
04/24/2014  17:16:00     -244.437     -282.602        4.487      178.052      147.261       80.296    31702.413    21685.711     6447.519        9.972        2.992      373.649       75.149        0.040      341.629       16.471      857.289
04/24/2014  17:17:00     -383.878     -149.743       -2.104      207.435      145.187       72.652    43029.236    21079.379     5278.245       11.957        3.469      412.050       83.045        0.041      341.709       16.607      857.295
04/24/2014  17:18:00     -307.863     -142.836        7.300      204.807      152.158       82.727    41945.991    23152.000     6843.829        9.357        3.597      339.384       94.263        0.077      341.853       16.851      857.258
04/24/2014  17:19:00     -346.733     -219.662       18.427      256.158      196.646       95.041    65616.830    38669.500     9032.845       14.104        5.666      410.457      105.804        0.066      341.845       16.836      857.248
04/24/2014  17:20:00     -418.845     -177.458      -13.143      233.843      151.277       86.174    54682.621    22884.632     7425.884       14.603        4.250      454.887      111.267        0.060      341.734       16.649      857.283
04/24/2014  17:21:00     -495.928     -241.038      -31.263      167.970      133.677       84.089    28213.992    17869.537     7070.895       17.908        2.658      551.402       90.439        0.027      341.661       16.525      857.303
04/24/2014  17:22:00     -343.263     -251.985      -19.178      183.029      193.942       93.771    33499.776    37613.593     8793.064       13.078        3.995      425.824       99.567        0.055      341.668       16.539      857.310
04/24/2014  17:23:00     -383.440     -230.247      -31.721      217.210      127.306       75.833    47180.065    16206.833     5750.632       13.508        3.457      447.259       85.207        0.036      341.623       16.461      857.310
04/24/2014  17:24:00     -347.634     -113.383      -26.948      236.398      124.255       78.876    55884.198    15439.405     6221.423       10.597        3.877      365.657      107.452        0.086      341.616       16.450      857.287
04/24/2014  17:25:00     -198.928      -45.595       14.115      175.878      166.320       64.995    30933.032    27662.333     4224.341        5.232        3.141      204.087       84.766        0.173      341.862       16.868      857.286
04/24/2014  17:26:00     -177.904      -82.157       15.698      185.764      161.391       80.204    34508.386    26047.119     6432.633        5.280        3.349      195.958       61.752        0.099      341.845       16.837      857.293
04/24/2014  17:27:00     -173.365      -29.099       23.616      177.967      135.293       74.389    31672.123    18304.284     5533.663        4.347        2.776      175.790       88.523        0.254      341.732       16.647      857.285
04/24/2014  17:28:00     -342.119     -174.184       -2.564      211.742      122.049       75.391    44834.706    14895.922     5683.832       10.639        3.271      383.908       83.267        0.047      341.688       16.571      857.288
04/24/2014  17:29:00     -504.737     -225.137      -17.478      187.372      174.516       90.517    35108.409    30455.802     8193.335       18.974        3.688      552.672       94.782        0.029      341.636       16.482      857.249
04/24/2014  17:30:00     -304.554     -160.074      -10.609      167.023      147.550       72.861    27896.842    21771.083     5308.685        8.672        2.749      344.059       80.646        0.055      341.677       16.552      857.259
04/24/2014  17:31:00     -384.500     -212.631       -9.686      203.041      134.086       71.387    41225.520    17979.043     5096.156       12.871        3.215      439.377       81.098        0.034      341.691       16.577      857.285
04/24/2014  17:32:00     -376.397     -197.833        2.269      215.547      152.370       90.878    46460.453    23216.727     8258.786       12.936        3.897      425.221      100.578        0.056      341.507       16.263      857.306
04/24/2014  17:33:00     -284.801     -201.103        3.115      162.987      153.018       88.383    26564.621    23414.535     7811.495        8.967        2.890      348.646       82.717        0.056      341.412       16.103      857.296
04/24/2014  17:34:00     -269.084     -161.353      -10.415      131.528       86.666       50.127    17299.622     7510.999     2512.670        6.293        1.366      313.753       52.552        0.028      341.398       16.080      857.258
04/24/2014  17:35:00     -223.672     -173.052        5.459      156.343      115.004       67.035    24443.234    13225.951     4493.737        6.108        2.108      282.801       86.452        0.093      341.454       16.175      857.268
04/24/2014  17:36:00     -316.549     -188.102       -9.119      125.390      133.740       70.537    15722.677    17886.394     4975.500        8.712        1.929      368.220       59.167        0.026      341.557       16.350      857.269
04/24/2014  17:37:00     -326.641     -161.080      -21.523      188.196      172.319       96.414    35417.898    29693.717     9295.568       10.374        3.720      364.199      102.249        0.079      341.528       16.300      857.254
04/24/2014  17:38:00     -257.427      -29.963        7.156      280.743      179.637       96.550    78816.667    32269.534     9321.900        9.379        6.020      259.165      123.756        0.228      341.632       16.476      857.195
04/24/2014  17:39:00     -397.012     -170.430        2.094      239.468      235.800       94.979    57344.764    55601.407     9020.995       15.429        6.098      432.048      118.461        0.075      341.443       16.155      857.177
04/24/2014  17:40:00     -276.107     -236.222        3.257      243.455      191.494      102.452    59270.147    36669.945    10496.457       11.922        5.322      363.368      117.889        0.105      341.549       16.336      857.171
04/24/2014  17:41:00     -270.168     -164.924       -4.080      172.528      172.360       96.960    29765.850    29708.130     9401.194        8.453        3.444      316.529       95.414        0.091      341.533       16.308      857.167
04/24/2014  17:42:00     -493.886     -124.105      -32.488      251.473      172.452       84.601    63238.708    29739.736     7157.331       18.024        5.007      509.240      100.419        0.039      341.443       16.156      857.136
04/24/2014  17:43:00     -477.341     -115.901      -27.589      177.212      177.952       87.397    31404.141    31666.950     7638.264       15.637        3.535      491.210       92.257        0.035      341.455       16.174      857.107
04/24/2014  17:44:00     -368.441      -49.043      -11.743      243.876      111.623       87.648    59475.333    12459.600     7682.147       10.894        3.981      371.691       96.527        0.067      341.561       16.355      857.051
04/24/2014  17:45:00     -402.896      -72.942      -23.138      188.727      167.402       84.754    35617.707    28023.568     7183.252       11.949        3.541      409.446       91.741        0.050      341.492       16.238      857.043
04/24/2014  17:46:00     -337.790      -66.125        6.281      218.505      159.809       90.731    47744.252    25538.868     8232.064       10.000        4.076      344.201      104.913        0.093      341.532       16.307      857.037
04/24/2014  17:47:00     -354.945     -200.846       -4.048      220.018      167.934       99.582    48407.796    28201.910     9916.506       12.642        4.326      407.830      112.844        0.077      341.526       16.297      857.057
04/24/2014  17:48:00     -191.348     -111.790       36.789      216.862      157.360       95.440    47029.100    24762.261     9108.833        6.567        4.045      221.610       99.880        0.203      341.580       16.389      857.057
04/24/2014  17:49:00     -284.055      -65.400        0.177      166.240      110.131       67.258    27635.874    12128.846     4523.590        6.462        2.214      291.487       72.841        0.062      341.561       16.358      857.056
04/24/2014  17:50:00     -140.454     -106.489        6.217      137.437       83.270       63.742    18888.899     6933.882     4063.036        3.049        1.494      176.259       72.950        0.171      341.686       16.570      857.040
04/24/2014  17:51:00     -257.257     -191.407        1.475      176.714      131.804       65.235    31227.941    17372.365     4255.571        7.783        2.643      320.652       71.010        0.049      341.614       16.445      857.015
04/24/2014  17:52:00     -346.588     -237.476       -9.799      213.613      161.307       88.632    45630.431    26019.800     7855.579       12.804        3.975      420.141      110.442        0.069      341.623       16.462      857.007
04/24/2014  17:53:00     -455.267     -169.369        0.789      213.313      184.478       96.885    45502.616    34032.301     9386.731       16.242        4.446      485.751      111.512        0.053      341.563       16.358      857.030
04/24/2014  17:54:00     -559.967     -229.646      -22.403      222.103      174.420       95.704    49329.763    30422.344     9159.319       22.784        4.446      605.228      102.524        0.029      341.357       16.009      857.041
04/24/2014  17:55:00     -320.985     -191.200      -22.214      186.768      171.130       81.219    34882.208    29285.622     6596.505       10.541        3.538      373.616       83.416        0.050      341.381       16.052      857.053
04/24/2014  17:56:00     -359.403     -151.615      -18.836      173.048      115.291       79.203    29945.496    13291.969     6273.124       10.100        2.476      390.074       84.736        0.047      341.486       16.229      857.040
04/24/2014  17:57:00     -464.596     -345.149       -7.580      247.058      139.365       92.699    61037.902    19422.656     8593.122       21.203        4.453      578.772      105.673        0.033      341.343       15.986      857.049
04/24/2014  17:58:00     -173.426     -136.607       22.436      175.319      146.961       90.469    30736.650    21597.472     8184.605        5.487        3.026      220.767      107.650        0.238      341.432       16.140      857.055
04/24/2014  17:59:00     -406.261     -165.830      -18.870      181.328      138.770       84.097    32879.733    19257.058     7072.334       12.604        2.960      438.803       89.112        0.041      341.332       15.967      857.041
04/24/2014  18:00:00     -295.598     -154.493        6.813      170.563      138.426       64.001    29091.863    19161.850     4096.169        8.181        2.617      333.536       70.219        0.044      341.366       16.027      857.020
04/24/2014  18:01:00     -327.703     -141.126      -16.768      134.819      175.112       60.836    18176.254    30664.250     3701.067        9.005        2.627      356.799       50.461        0.020      341.424       16.124      857.027
04/24/2014  18:02:00     -314.552     -122.545       12.719      170.528      158.569       77.862    29079.753    25144.056     6062.451        8.719        3.014      337.580       94.535        0.078      341.486       16.230      857.048
04/24/2014  18:03:00     -369.634     -270.211       -2.630      211.190      192.740      102.471    44601.382    37148.531    10500.335       15.093        4.613      457.869      115.002        0.063      341.364       16.022      857.045
04/24/2014  18:04:00     -445.308     -315.519       -8.745      262.741      183.688       99.357    69032.881    33741.268     9871.840       20.526        5.632      545.757      127.320        0.054      341.302       15.916      857.043
04/24/2014  18:05:00     -213.589     -158.960       13.812      170.272      127.972       75.976    28992.684    16376.923     5772.386        6.110        2.557      266.249       91.815        0.119      341.411       16.101      857.044
04/24/2014  18:06:00     -423.189     -333.485      -16.122      185.271      167.488       96.390    34325.525    28052.068     9290.962       18.110        3.583      538.796      104.840        0.038      341.233       15.800      857.043
04/24/2014  18:07:00     -372.200     -233.593       -5.307      180.463      159.997       91.509    32566.820    25599.117     8373.918       12.982        3.327      439.430       89.628        0.042      341.352       16.001      857.025
04/24/2014  18:08:00     -330.031     -152.716       -2.468      149.557      116.947       75.852    22367.247    13676.642     5753.538        8.701        2.090      363.652       71.840        0.039      341.446       16.160      857.060
04/24/2014  18:09:00     -298.469       12.058      -16.471      192.098      125.489       72.132    36901.742    15747.423     5203.042        7.366        2.893      298.713       93.466        0.098      341.405       16.090      857.066
04/24/2014  18:10:00     -268.971     -130.406       -2.489      189.053      149.473       88.374    35741.036    22342.288     7809.941        7.761        3.295      298.917      100.783        0.114      341.359       16.013      857.054
04/24/2014  18:11:00     -243.453     -149.387       -2.621      184.968      148.178       78.629    34213.274    21956.633     6182.497        7.196        3.118      285.632       91.914        0.104      341.332       15.968      857.075
04/24/2014  18:12:00     -233.268     -112.179       -0.949      147.371      105.165       65.742    21718.324    11059.712     4321.964        5.204        1.855      258.840       67.389        0.068      341.369       16.031      857.082
04/24/2014  18:13:00     -210.289     -182.983       23.530      170.923      134.811       83.140    29214.810    18174.013     6912.282        6.627        2.715      278.755       94.983        0.116      341.405       16.091      857.089
04/24/2014  18:14:00     -370.656     -134.921      -25.851      163.407      133.678       70.530    26701.749    17869.821     4974.489       10.289        2.477      394.448       70.295        0.032      341.342       15.986      857.095
04/24/2014  18:15:00     -434.536      -79.858      -32.048      220.769      190.624      107.377    48738.865    36337.380    11529.883       14.640        4.830      441.813      110.401        0.062      341.278       15.876      857.076
04/24/2014  18:16:00     -561.583     -138.125      -28.093      235.271      160.439      104.472    55352.409    25740.592    10914.405       21.361        4.600      578.320      115.442        0.040      341.077       15.537      857.040
04/24/2014  18:17:00     -354.829     -101.919       -1.376      180.588      183.218       89.474    32611.852    33568.862     8005.663       10.523        3.709      369.177       94.644        0.066      341.201       15.747      857.059
04/24/2014  18:18:00     -256.509      -71.672        5.416      170.732      125.527       79.378    29149.425    15757.027     6300.886        6.107        2.560      266.334       92.100        0.120      341.287       15.893      857.065
04/24/2014  18:19:00     -394.962     -121.141       -4.329      207.563      197.578      111.481    43082.329    39036.956    12428.081       13.260        4.727      413.123      118.553        0.082      341.154       15.666      857.071
04/24/2014  18:20:00     -390.132      -70.551       -9.117      240.274      186.301       90.602    57731.727    34708.158     8208.792       12.894        5.032      396.459      106.047        0.072      341.082       15.545      857.071
04/24/2014  18:21:00     -345.835      -20.165      -16.373      153.296      155.383       80.499    23499.701    24143.844     6480.092        8.719        2.706      346.422       75.909        0.048      341.052       15.493      857.076
04/24/2014  18:22:00     -410.690      -22.349       -4.374      246.958      173.365       90.996    60988.493    30055.402     8280.251       13.423        4.966      411.298      119.214        0.084      341.077       15.537      857.065
04/24/2014  18:23:00     -491.666     -193.386      -16.290      256.085      177.835      101.771    65579.418    31625.111    10357.266       19.346        5.378      528.331      103.504        0.038      341.047       15.486      857.055
04/24/2014  18:24:00     -429.053     -270.680      -15.956      219.652      230.103      122.426    48247.181    52947.323    14988.141       18.687        5.809      507.301      119.019        0.055      341.032       15.461      857.054
04/24/2014  18:25:00     -639.087      -85.134      -45.104      210.201      196.129       88.038    44184.614    38466.456     7750.606       25.404        4.520      644.733       78.880        0.015      341.043       15.479      857.055
04/24/2014  18:26:00     -420.533     -117.596      -15.326      182.403      161.484       79.869    33270.942    26076.973     6379.116       12.831        3.286      436.666       80.099        0.034      341.055       15.499      857.100
04/24/2014  18:27:00     -298.394      -83.994        5.477      271.466      193.620       79.524    73693.980    37488.739     6324.113       10.679        5.875      309.990      104.697        0.114      341.079       15.540      857.085
04/24/2014  18:28:00     -357.648     -153.857       -0.446      270.440      207.349      105.915    73137.613    42993.644    11217.979       13.944        6.367      389.338      119.962        0.095      341.047       15.487      857.081
04/24/2014  18:29:00     -444.605     -178.585      -23.230      292.194      189.531      113.767    85377.173    35922.042    12943.009       18.215        6.712      479.131      122.815        0.066      340.972       15.359      857.094
04/24/2014  18:30:00     -598.890     -175.998      -31.069      259.436      213.364      111.532    67307.239    45524.314    12439.463       25.792        6.264      624.215      122.893        0.039      340.887       15.212      857.116
04/24/2014  18:31:00     -347.944     -105.683      -22.673      166.404      177.091       91.540    27690.154    31361.253     8379.482       10.008        3.372      363.640       98.427        0.073      340.970       15.356      857.108
04/24/2014  18:32:00     -348.609     -127.038       -0.774      244.297      188.120       97.900    59681.073    35389.083     9584.340       12.114        5.233      371.035      121.453        0.107      340.959       15.338      857.121
04/24/2014  18:33:00     -306.840     -127.120       15.613      275.686      203.685      112.263    76002.926    41487.756    12602.948       12.030        6.505      332.130      137.413        0.171      340.918       15.266      857.112
04/24/2014  18:34:00     -350.845     -269.544        6.394      251.194      214.019      123.151    63098.572    45804.107    15166.232       15.990        6.203      442.432      145.496        0.108      340.856       15.164      857.100
04/24/2014  18:35:00     -439.893     -193.299      -13.846      246.212      197.189      111.716    60620.532    38883.339    12480.379       17.150        5.599      480.489      120.342        0.063      340.819       15.100      857.079
04/24/2014  18:36:00     -430.467     -198.212      -18.692      178.848      147.520       93.486    31986.550    21762.204     8739.659       14.370        3.124      473.909       96.853        0.042      340.793       15.055      857.100
04/24/2014  18:37:00     -239.574     -197.364       -2.638      176.027      130.252       70.131    30985.512    16965.653     4918.427        7.460        2.643      310.400       67.239        0.047      340.863       15.175      857.091
04/24/2014  18:38:00     -292.419     -118.841      -19.797      134.645      154.659       73.940    18129.315    23919.512     5467.154        7.376        2.376      315.645       65.291        0.043      340.875       15.195      857.107
04/24/2014  18:39:00     -166.086     -115.265        3.384      179.849      122.661       91.278    32345.528    15045.652     8331.592        4.829        2.786      202.164       96.955        0.230      340.910       15.255      857.125
04/24/2014  18:40:00     -228.887      -92.731       -2.928      188.387      140.517       69.802    35489.704    19744.940     4872.289        6.054        3.005      246.958       80.642        0.107      340.850       15.153      857.139
04/24/2014  18:41:00     -260.736      -49.390        2.349      192.485      143.653       78.764    37050.290    20636.110     6203.785        6.715        3.195      265.372       67.860        0.065      340.866       15.180      857.131
04/24/2014  18:42:00     -494.732      -44.972      -20.767      250.947      166.265       99.465    62974.360    27643.922     9893.269       17.384        5.026      496.772      110.062        0.049      340.745       14.975      857.114
04/24/2014  18:43:00     -357.454      -69.821       -8.122      201.818      149.957       83.709    40730.616    22487.238     7007.129       10.146        3.511      364.209      103.702        0.081      340.729       14.948      857.113
04/24/2014  18:44:00     -429.262      -55.182      -15.231      193.237      147.077       82.003    37340.700    21631.617     6724.489       12.661        3.285      432.794       94.919        0.048      340.699       14.897      857.115
04/24/2014  18:45:00     -562.293     -136.748      -10.452      271.295      178.853      112.309    73600.873    31988.505    12613.365       22.657        5.910      578.683      129.688        0.050      340.634       14.787      857.104
04/24/2014  18:46:00     -413.454     -268.290      -12.923      265.726      182.116      113.007    70610.441    33166.069    12770.619       17.980        5.827      492.873      122.308        0.062      340.635       14.789      857.099
04/24/2014  18:47:00     -303.810     -305.720        2.139      238.522      170.066      114.033    56892.692    28922.370    13003.412       14.227        4.941      431.005      127.484        0.087      340.599       14.729      857.112
04/24/2014  18:48:00     -387.924     -259.959      -11.396      176.286      121.105       77.061    31076.926    14666.409     5938.364       13.493        2.584      466.973       76.849        0.027      340.620       14.761      857.110
04/24/2014  18:49:00     -302.094     -135.798       -9.552      134.125      127.534       63.913    17989.638    16265.002     4084.869        7.406        1.917      331.213       62.103        0.035      340.654       14.821      857.083
04/24/2014  18:50:00     -217.056     -104.491       -3.064      116.517       98.465       63.562    13576.310     9695.381     4040.086        4.267        1.366      240.898       50.056        0.043      340.747       14.979      857.101
04/24/2014  18:51:00     -417.468      -91.289       -8.177      222.291      192.593       90.863    49413.398    37091.913     8256.138       13.870        4.738      427.333      105.414        0.061      340.628       14.776      857.095
04/24/2014  18:52:00     -247.178     -135.340        5.450      172.592      147.929       97.133    29787.881    21883.031     9434.774        7.026        3.055      281.804      111.151        0.156      340.658       14.827      857.105
04/24/2014  18:53:00     -384.187     -164.308      -11.091      216.778      157.694       95.431    46992.601    24867.517     9107.069       12.783        4.048      417.848      114.671        0.075      340.570       14.679      857.096
04/24/2014  18:54:00     -241.378     -171.977       -5.916      246.391      212.779      105.508    60708.438    45275.018    11131.909       10.247        5.856      296.377      119.594        0.163      340.567       14.675      857.076
04/24/2014  18:55:00     -245.752     -120.461        2.945      217.994      187.184      109.075    47521.538    35037.723    11897.336        8.467        4.723      273.687      140.489        0.263      340.554       14.653      857.094
04/24/2014  18:56:00     -418.179     -129.452      -11.149      198.334      206.469       85.287    39336.384    42629.302     7273.889       14.048        4.462      437.757       88.301        0.041      340.507       14.573      857.146
04/24/2014  18:57:00     -392.466     -111.703       -1.431      208.435      147.086       86.474    43445.312    21634.181     7477.687       11.952        3.628      408.052       95.972        0.055      340.464       14.499      857.104
04/24/2014  18:58:00     -270.935      -52.607      -12.579      139.566      108.873       63.875    19478.794    11853.413     4079.987        5.586        1.771      275.995       67.975        0.061      340.545       14.637      857.106
04/24/2014  18:59:00     -129.192     -114.508       14.662      134.780      143.849       75.535    18165.612    20692.429     5705.608        3.728        2.228      172.635       95.199        0.304      340.560       14.664      857.111
04/24/2014  19:00:00     -266.562     -136.592      -15.395      175.937      131.745       78.564    30953.771    17356.741     6172.321        7.221        2.724      299.521       81.848        0.075      340.577       14.691      857.102
04/24/2014  19:01:00     -438.212      -65.075       -9.328      138.212      136.534       79.726    19102.494    18641.423     6356.208       12.022        2.205      443.018       67.190        0.023      340.484       14.532      857.110
04/24/2014  19:02:00     -500.214     -179.656      -16.528      203.444      163.306       91.649    41389.345    26668.982     8399.554       17.960        3.823      531.498       95.499        0.032      340.459       14.489      857.089
04/24/2014  19:03:00     -378.785      -39.692        1.245      201.763      150.328       83.564    40708.279    22598.593     6982.982       10.766        3.514      380.859       99.644        0.068      340.481       14.529      857.082
04/24/2014  19:04:00     -391.195      -80.326      -18.448      130.470      103.625       73.933    17022.436    10738.195     5466.034        9.652        1.661      399.357       79.207        0.039      340.455       14.484      857.094
04/24/2014  19:05:00     -359.296      -54.095       -8.590      197.269      149.307       92.513    38915.166    22292.469     8558.599       10.092        3.488      363.345      102.400        0.079      340.469       14.509      857.098
04/24/2014  19:06:00     -368.595      -79.412      -16.514      217.816      141.990       85.757    47443.732    20161.034     7354.248       10.869        3.748      377.052       95.901        0.065      340.508       14.574      857.114
04/24/2014  19:07:00     -293.771     -251.490       -6.353      183.668      139.833       83.184    33733.935    19553.383     6919.505       10.489        3.010      386.715       89.851        0.054      340.482       14.532      857.123
04/24/2014  19:08:00     -221.174     -157.332        0.294      143.276       98.256       62.798    20528.111     9654.182     3943.602        5.389        1.706      271.425       66.735        0.060      340.467       14.503      857.112
04/24/2014  19:09:00     -173.837      -84.028       -0.352       99.808       81.313       38.530     9961.706     6611.825     1484.571        2.767        0.903      193.081       45.768        0.056      340.510       14.578      857.089
04/24/2014  19:10:00     -377.878     -253.861       -2.824      236.195      163.660       84.402    55787.858    26784.704     7123.774       14.845        4.485      455.233       96.930        0.045      340.412       14.411      857.072
04/24/2014  19:11:00     -412.526     -291.198      -11.600      227.772      162.936      110.537    51879.973    26548.301    12218.383       17.286        4.532      504.950      122.807        0.059      340.357       14.318      857.045
04/24/2014  19:12:00     -391.080      -83.580      -15.695      200.715      166.730       94.666    40286.616    27798.749     8961.581       11.860        3.852      399.911      103.502        0.067      340.314       14.246      857.073
04/24/2014  19:13:00     -280.276      -63.829      -11.208      148.740      125.005       74.341    22123.703    15626.141     5526.525        6.301        2.164      287.452       89.144        0.096      340.341       14.292      857.083
04/24/2014  19:14:00     -124.807      -55.165       19.883      149.459      129.639       70.661    22337.942    16806.392     4992.921        3.157        2.207      136.455       79.981        0.344      340.356       14.318      857.070
04/24/2014  19:15:00     -211.461     -148.067       20.390      188.257      125.060       83.299    35440.876    15640.034     6938.731        6.253        2.901      258.147       92.206        0.128      340.326       14.265      857.048
04/24/2014  19:16:00     -350.313     -143.790      -16.522      149.550      137.208       66.508    22365.254    18825.915     4423.275        9.463        2.281      378.675       49.953        0.017      340.322       14.258      857.071
04/24/2014  19:17:00     -455.444     -151.043      -20.742      212.854      193.343      102.861    45306.680    37381.549    10580.432       16.195        4.663      479.836      114.183        0.057      340.230       14.104      857.087
04/24/2014  19:18:00     -118.249        8.546       31.450      140.923       98.333       71.628    19859.328     9669.464     5130.518        2.485        1.733      118.557       78.077        0.434      340.286       14.200      857.070
04/24/2014  19:19:00     -300.904      -14.163      -12.647      174.961      126.742       62.101    30611.489    16063.429     3856.516        7.071        2.527      301.237       71.262        0.056      340.291       14.207      857.069
04/24/2014  19:20:00     -479.964     -110.740      -25.175      132.170      112.408       70.948    17468.924    12635.570     5033.590       13.919        1.757      492.573       64.379        0.017      340.192       14.040      857.063
04/24/2014  19:21:00     -232.140     -127.664       -2.290      126.379      130.415       63.031    15971.742    17007.967     3972.936        5.356        1.848      264.928       68.535        0.067      340.237       14.115      857.097
04/24/2014  19:22:00     -298.450      -56.123       -4.201      146.250      145.320       68.108    21389.157    21118.033     4638.703        6.968        2.357      303.681       65.987        0.047      340.243       14.126      857.117
04/24/2014  19:23:00     -361.364     -251.658       10.621      255.595      127.759       86.498    65328.769    16322.269     7481.833       14.156        4.457      440.359       89.975        0.042      340.174       14.008      857.023
04/24/2014  19:24:00     -473.561      -73.957      -25.941      192.712      189.129       94.079    37137.939    35769.592     8850.841       15.606        4.088      479.301       81.902        0.029      340.172       14.005      857.033
04/24/2014  19:25:00     -342.796     -101.106        2.971      263.407      197.330      104.736    69383.039    38939.225    10969.634       12.349        5.965      357.395      129.543        0.131      340.168       13.999      857.016
04/24/2014  19:26:00     -182.650     -118.405        1.290      162.082      125.258       75.758    26270.549    15689.568     5739.274        4.753        2.385      217.671       88.547        0.165      340.213       14.074      857.042
04/24/2014  19:27:00     -311.000     -172.620       -0.247      220.510      178.330       78.645    48624.790    31801.680     6185.103       10.655        4.331      355.694       88.491        0.062      340.162       13.989      857.046
04/24/2014  19:28:00     -466.306      -11.080      -26.918      220.146      152.911       92.270    48464.158    23381.832     8513.815       14.931        4.018      466.438      102.128        0.048      340.172       14.004      857.076
04/24/2014  19:29:00     -425.691     -170.089      -16.094      235.646      217.438      103.821    55528.989    47279.194    10778.835       16.197        5.679      458.414      107.065        0.055      340.150       13.968      857.083
04/24/2014  19:30:00     -609.748     -226.951      -34.353      221.700      143.570      108.879    49150.764    20612.342    11854.664       25.303        4.081      650.615      103.249        0.025      340.056       13.811      857.089
04/24/2014  19:31:00     -323.854      -58.602        3.907      198.839      163.593       75.507    39537.140    26762.605     5701.363        9.015        3.600      329.113       76.770        0.054      340.082       13.853      857.106
04/24/2014  19:32:00     -388.586     -121.954      -23.279      224.523      146.853       88.248    50410.787    21565.921     7787.729       12.307        3.988      407.274      115.527        0.080      340.113       13.907      857.115
04/24/2014  19:33:00     -390.088      -67.298       -7.950      171.180      141.578       68.819    29302.678    20044.239     4736.047       10.541        2.704      395.851       68.088        0.030      340.103       13.888      857.119
04/24/2014  19:34:00     -270.143      -38.720        5.106      160.221      151.844       74.124    25670.821    23056.518     5494.353        6.435        2.711      272.903       66.365        0.059      340.100       13.883      857.100
04/24/2014  19:35:00     -318.775     -175.286      -10.620      172.479      149.715       87.834    29748.864    22414.640     7714.774        9.615        2.994      363.789       70.891        0.038      340.090       13.866      857.109
04/24/2014  19:36:00     -480.447     -295.541        0.434      256.632      212.227      117.303    65860.055    45040.371    13759.900       22.139        6.233      564.069      133.230        0.056      340.022       13.753      857.108
04/24/2014  19:37:00     -448.546     -227.581      -14.716      173.360      173.639       90.273    30053.681    30150.544     8149.255       16.076        3.418      502.978       92.773        0.034      339.999       13.714      857.099
04/24/2014  19:38:00     -299.415     -186.940        2.258      192.020      123.818       80.240    36871.651    15330.862     6438.465        9.161        2.932      352.981       89.386        0.064      340.015       13.741      857.082
04/24/2014  19:39:00     -297.834     -175.293      -10.601      158.537      111.809       66.411    25134.109    12501.251     4410.442        8.079        2.102      345.590       62.440        0.033      340.037       13.778      857.051
04/24/2014  19:40:00     -334.390     -131.111       -5.996      210.527      130.393       84.238    44321.661    17002.299     7096.010        9.872        3.421      359.175       83.445        0.054      340.017       13.745      857.034
04/24/2014  19:41:00     -295.212      -62.368       -3.332      186.965      121.763       76.527    34955.817    14826.287     5856.357        7.333        2.782      301.728       85.439        0.080      340.014       13.739      857.052
04/24/2014  19:42:00     -148.962      -92.781       14.867      161.771      127.383       85.148    26170.000    16226.535     7250.257        4.032        2.482      175.494       86.608        0.244      339.990       13.700      857.032
04/24/2014  19:43:00     -304.019      -97.919       -9.489      179.831      131.953       71.960    32339.200    17411.724     5178.281        7.851        2.746      319.399       78.778        0.061      339.972       13.669      857.024
04/24/2014  19:44:00     -288.242     -179.411        1.196      235.353      198.779       90.614    55391.260    39512.919     8210.826       10.917        5.156      339.517      118.773        0.122      339.954       13.638      857.002
04/24/2014  19:45:00     -304.304     -113.063      -21.867      174.226      141.440       79.929    30354.706    20005.259     6388.599        8.129        2.837      324.629       79.649        0.060      339.963       13.655      857.012
04/24/2014  19:46:00     -154.947     -119.793        8.389      154.532      113.794       66.409    23880.170    12948.963     4410.144        3.983        2.062      195.854       87.992        0.202      339.932       13.602      857.013
04/24/2014  19:47:00     -319.894     -163.730      -14.785      190.608      129.024       76.330    36331.412    16647.142     5826.299        9.407        2.940      359.360       63.817        0.032      339.929       13.595      857.023
04/24/2014  19:48:00     -403.070      -56.017      -19.537      173.842      121.728       81.783    30221.062    14817.786     6688.425       10.885        2.586      406.944       89.979        0.049      339.878       13.509      857.045
04/24/2014  19:49:00     -193.026      -72.013       12.067      168.989      108.363       67.482    28557.293    11742.551     4553.782        4.371        2.243      206.022       79.829        0.150      339.839       13.443      857.077
04/24/2014  19:50:00     -193.931     -124.270       -0.073      158.009      152.268       78.040    24966.743    23185.478     6090.174        5.364        2.712      230.331       77.162        0.112      339.872       13.501      857.084
04/24/2014  19:51:00     -243.600     -141.691       -6.788      184.476      142.267       84.166    34031.219    20239.933     7083.896        7.040        3.068      281.811       95.385        0.115      339.880       13.514      857.109
04/24/2014  19:52:00     -411.846     -212.882      -25.579      264.552      114.074       84.958    69987.505    13012.944     7217.910       15.289        4.511      463.612      101.606        0.048      339.839       13.442      857.162
04/24/2014  19:53:00     -320.447      -98.289      -14.506      158.730      128.573       74.460    25195.359    16531.032     5544.303        7.990        2.364      335.182       86.329        0.066      339.823       13.416      857.167
04/24/2014  19:54:00     -334.228      -44.421      -15.206      119.373      132.126       59.510    14249.879    17457.251     3541.433        7.457        1.762      337.167       46.217        0.019      339.846       13.457      857.128
04/24/2014  19:55:00     -400.870     -101.073        0.150      183.768      140.168       80.496    33770.743    19647.158     6479.625       11.539        2.995      413.415       89.598        0.047      339.791       13.364      857.129
04/24/2014  19:56:00     -148.270      -34.544       14.342      113.438      107.585       69.861    12868.252    11574.634     4880.508        2.635        1.466      152.241       60.857        0.160      339.837       13.442      857.124
04/24/2014  19:57:00     -344.433      -23.869       -4.935      145.051      111.618       71.331    21039.654    12458.525     5088.148        7.890        1.929      345.259       74.018        0.046      339.806       13.389      857.148
04/24/2014  19:58:00     -301.465      -71.660        2.818      189.078      143.603       86.747    35750.517    20621.916     7525.120        7.995        3.195      309.865       80.739        0.068      339.795       13.371      857.172
04/24/2014  19:59:00     -207.430      -90.803        0.286      160.139      140.921       67.791    25644.440    19858.681     4595.596        5.068        2.505      226.434       83.172        0.135      339.766       13.322      857.170
04/24/2014  20:00:00     -211.059     -113.919       -5.315      139.762      108.358       69.552    19533.522    11741.557     4837.461        4.682        1.806      239.840       75.306        0.099      339.761       13.313      857.169
04/24/2014  20:01:00      -88.290      -52.640        4.083      160.294      107.861       59.534    25694.025    11634.021     3544.273        2.572        2.044      102.791       74.054        0.519      339.753       13.303      857.189
04/24/2014  20:02:00     -182.086      -55.444       -0.446      151.162       98.119       57.748    22849.853     9627.426     3334.816        3.601        1.791      190.340       72.343        0.144      339.749       13.294      857.199
04/24/2014  20:03:00     -376.629     -146.912      -27.922      178.764      137.476       70.353    31956.640    18899.678     4949.605       11.000        2.790      404.268       81.567        0.041      339.712       13.230      857.224
04/24/2014  20:04:00     -372.716     -218.956       -5.046      209.609      146.012       88.438    43936.086    21319.592     7821.357       12.997        3.654      432.272       94.528        0.048      339.690       13.192      857.243
04/24/2014  20:05:00     -205.481     -140.697       -1.823      148.207      114.820       80.112    21965.350    13183.593     6417.971        5.179        2.078      249.035       90.315        0.132      339.716       13.238      857.235
04/24/2014  20:06:00     -259.009     -102.655       -3.659      160.596      125.034       66.091    25791.106    15633.395     4367.960        6.171        2.290      278.610       70.335        0.064      339.740       13.277      857.260
04/24/2014  20:07:00     -282.894     -156.488      -11.280      167.340      151.719       71.496    28002.839    23018.569     5111.693        8.038        2.807      323.292       74.098        0.053      339.697       13.206      857.216
04/24/2014  20:08:00     -195.880      -92.910        2.841      137.410      128.248       61.071    18881.578    16447.611     3729.611        4.303        1.953      216.798       68.161        0.099      339.693       13.198      857.219
04/24/2014  20:09:00     -419.327     -108.139      -35.248      198.011      134.572       80.308    39208.260    18109.736     6449.308       12.626        3.188      433.047       90.321        0.044      339.634       13.098      857.236
04/24/2014  20:10:00     -129.763      -88.454        8.131      110.068      115.003       67.932    12114.917    13225.610     4614.805        2.734        1.498      157.043       66.167        0.178      339.643       13.115      857.231
04/24/2014  20:11:00     -274.155      -89.066       -9.033      167.133      109.628       72.207    27933.517    12018.251     5213.898        6.416        2.258      288.260       87.628        0.092      339.634       13.099      857.243
04/24/2014  20:12:00     -333.421     -135.050       -6.651      164.355      124.599       69.768    27012.436    15524.846     4867.517        8.842        2.370      359.733       79.890        0.049      339.612       13.063      857.276
04/24/2014  20:13:00     -353.526     -219.790       -9.101      195.623      152.097       83.375    38268.169    23133.583     6951.402       12.085        3.418      416.279       98.951        0.057      339.620       13.074      857.313
04/24/2014  20:14:00     -219.896     -152.570       16.857      190.561      150.311       84.213    36313.526    22593.376     7091.778        6.894        3.300      267.641      103.489        0.150      339.627       13.088      857.326
04/24/2014  20:15:00     -365.640     -248.361      -10.516      183.759      179.372       99.232    33767.348    32174.216     9847.018       13.562        3.789      442.013       88.578        0.040      339.610       13.059      857.306
04/24/2014  20:16:00     -323.591     -208.324        1.750      234.261      166.598      101.024    54878.333    27754.832    10205.898       12.046        4.642      384.851      117.283        0.093      339.583       13.014      857.319
04/24/2014  20:17:00     -460.453     -211.826      -19.230      194.866      127.158       77.734    37972.845    16169.164     6042.509       15.871        3.009      506.840       75.802        0.022      339.572       12.994      857.320
04/24/2014  20:18:00     -317.251     -224.312       -2.595      205.840      150.585       87.139    42370.305    22675.779     7593.262       11.179        3.632      388.541       93.463        0.058      339.623       13.080      857.296
04/24/2014  20:19:00     -387.061     -104.568       -6.742      261.814      155.773       84.640    68546.421    24265.299     7163.937       13.037        4.999      400.937       64.889        0.026      339.608       13.055      857.253
04/24/2014  20:20:00     -348.500     -113.005       -5.761      163.743      129.493       78.918    26811.792    16768.508     6228.039        9.202        2.490      366.364       85.749        0.055      339.591       13.025      857.284
04/24/2014  20:21:00     -380.359     -143.578      -14.086      131.111      136.964       61.217    17190.012    18759.113     3747.533       10.258        1.985      406.556       50.552        0.015      339.599       13.041      857.293
04/24/2014  20:22:00     -331.900     -201.199       -9.301      264.508      187.585      107.484    69964.715    35188.078    11552.835       13.369        5.835      388.122      124.728        0.103      339.582       13.012      857.290
04/24/2014  20:23:00     -407.332     -239.167       -6.693      218.948      211.080      117.423    47938.383    44554.802    13788.200       16.470        5.314      472.356      127.484        0.073      339.515       12.896      857.243
04/24/2014  20:24:00     -363.653     -146.584       11.363      223.695      201.774       96.142    50039.653    40712.654     9243.318       12.691        5.000      392.085      104.509        0.071      339.506       12.882      857.290
04/24/2014  20:25:00     -398.952     -188.431       -6.556      199.990      104.503       74.702    39996.023    10920.904     5580.431       12.559        2.825      441.213       81.841        0.034      339.497       12.867      857.334
04/24/2014  20:26:00     -283.636     -134.544        0.713      131.214      123.405       62.109    17217.013    15228.832     3857.534        6.742        1.815      313.929       72.598        0.053      339.485       12.847      857.325
04/24/2014  20:27:00     -197.482     -150.665       -5.170      109.681      112.010       56.255    12030.026    12546.136     3164.626        4.473        1.387      248.393       36.010        0.021      339.502       12.874      857.298
04/24/2014  20:28:00     -229.350     -100.749      -11.499       77.550       74.759       47.210     6014.008     5588.856     2228.822        3.836        0.692      250.503       42.702        0.029      339.486       12.848      857.261
04/24/2014  20:29:00     -238.997      -70.381        3.941      177.518      152.709       68.258    31512.531    23320.173     4659.128        6.078        2.975      249.145       66.583        0.071      339.525       12.914      857.269
04/24/2014  20:30:00     -333.355     -176.776      -19.790      161.735      127.109       78.407    26158.269    16156.729     6147.617        9.560        2.423      377.326       84.176        0.050      339.484       12.846      857.284
04/24/2014  20:31:00     -259.338      -69.239      -22.847      168.242      115.922       72.607    28305.487    13437.935     5271.778        5.978        2.351      268.421       75.749        0.080      339.476       12.833      857.258
04/24/2014  20:32:00     -369.007     -200.933      -14.925      233.904      144.496       78.875    54711.315    20879.116     6221.280       12.927        4.091      420.167       81.767        0.038      339.409       12.720      857.228
04/24/2014  20:33:00     -263.547      -85.608       -8.789      181.272      131.599       80.426    32859.505    17318.300     6468.370        6.674        2.832      277.103       84.947        0.094      339.424       12.744      857.237
04/24/2014  20:34:00     -302.872      -43.661      -17.587      194.586      108.292       68.492    37863.626    11727.218     4691.218        7.410        2.714      306.003       81.369        0.071      339.396       12.698      857.238
04/24/2014  20:35:00     -451.929     -141.529      -13.423      209.010      181.110       96.501    43685.294    32800.991     9312.476       15.511        4.290      473.572      116.330        0.060      339.317       12.563      857.211
04/24/2014  20:36:00     -465.980     -242.328        7.099      233.938      179.369      105.063    54726.869    32173.074    11038.233       18.690        4.897      525.224      121.092        0.053      339.275       12.493      857.182
04/24/2014  20:37:00     -452.884     -137.691      -22.633      150.501      151.872       80.249    22650.609    23065.056     6439.834       13.835        2.608      473.353       69.971        0.022      339.274       12.491      857.191
04/24/2014  20:38:00     -354.487     -164.411       -5.558      190.086      153.418       86.286    36132.731    23536.989     7445.333       10.991        3.356      390.759       87.226        0.050      339.251       12.453      857.189
04/24/2014  20:39:00     -245.376     -129.000        5.598      224.084      141.100       83.530    50213.684    19909.329     6977.241        7.698        3.855      277.219       99.346        0.128      339.256       12.461      857.141
04/24/2014  20:40:00     -498.795     -151.618      -34.308      165.603      137.762       82.152    27424.189    18978.368     6749.016       16.305        2.658      521.330       74.419        0.020      339.229       12.417      857.133
04/24/2014  20:41:00     -343.158     -100.952      -16.551      171.740      167.310       69.374    29494.538    27992.690     4812.774        9.525        3.115      357.699       70.821        0.039      339.218       12.399      857.143
04/24/2014  20:42:00     -326.677     -115.751       -3.140      223.362      147.374       78.776    49890.773    21719.140     6205.733        9.896        3.891      346.578       91.697        0.070      339.218       12.398      857.105
04/24/2014  20:43:00     -384.860     -170.682       -4.213      261.924      171.803      103.505    68603.995    29516.400    10713.354       14.303        5.442      421.010      131.565        0.098      339.179       12.332      857.077
04/24/2014  20:44:00     -525.001     -130.826       -5.278      266.622      181.875      100.990    71087.183    33078.441    10198.964       20.354        5.718      541.056      123.290        0.052      339.087       12.177      857.055
04/24/2014  20:45:00     -360.940      -78.253       13.100      254.094      142.690       83.456    64563.574    20360.435     6964.862       11.421        4.594      369.326       87.062        0.056      339.107       12.210      857.042
04/24/2014  20:46:00     -338.393     -181.213        2.357      168.697      153.538       86.900    28458.800    23574.048     7551.642       10.346        2.979      383.859       81.560        0.045      339.081       12.167      857.038
04/24/2014  20:47:00     -290.794     -145.243       -7.914      200.089      178.219       92.720    40035.626    31762.059     8597.028        9.304        4.020      325.049      110.955        0.117      339.128       12.246      857.012
04/24/2014  20:48:00     -290.728      -78.921       -6.702      144.900      137.324       72.721    20996.075    18857.911     5288.284        6.796        2.257      301.249       71.481        0.056      339.077       12.161      856.995
04/24/2014  20:49:00     -379.215     -134.420      -10.442      230.975      135.383       91.232    53349.305    18328.678     8323.190       12.098        4.000      402.334      123.936        0.095      339.056       12.125      857.002
04/24/2014  20:50:00     -335.834     -200.410      -17.966      273.429      157.688       92.538    74763.588    24865.362     8563.236       13.071        5.410      391.086       99.230        0.064      339.037       12.094      856.972
04/24/2014  20:51:00     -412.722     -273.511       10.579      258.700      149.418      115.337    66925.648    22325.678    13302.562       17.389        5.128      495.124      141.770        0.082      338.995       12.023      856.944
04/24/2014  20:52:00     -447.926     -204.402      -15.253      198.895      230.911       97.120    39559.142    53319.721     9432.203       17.246        5.116      492.359       95.074        0.037      338.973       11.986      856.901
04/24/2014  20:53:00     -321.381     -218.929        3.894      252.326      175.875      108.579    63668.332    30932.021    11789.451       12.879        5.319      388.865      133.897        0.119      338.985       12.006      856.901
04/24/2014  20:54:00     -335.475     -231.476       -5.327      232.068      201.013      119.455    53855.583    40406.358    14269.502       13.732        5.427      407.584      121.189        0.088      338.916       11.892      856.915
04/24/2014  20:55:00     -280.977     -224.009       -6.796      170.211      115.866       62.734    28971.892    13424.999     3935.493        8.774        2.317      359.344       74.139        0.043      338.921       11.898      856.929
04/24/2014  20:56:00     -342.202     -169.246        1.760      211.956      185.233       81.894    44925.456    34311.108     6706.572       11.583        4.297      381.767       96.438        0.064      338.899       11.861      856.868
04/24/2014  20:57:00     -388.583     -224.740      -10.113      281.143      178.430      103.525    79041.361    31837.340    10717.443       16.158        6.080      448.893      120.997        0.073      338.891       11.848      856.841
04/24/2014  20:58:00     -396.653     -199.854        0.607      201.794      192.129       97.198    40720.761    36913.639     9447.516       14.216        4.354      444.157       94.425        0.045      338.874       11.818      856.861
04/24/2014  20:59:00     -298.365     -210.131       10.675      232.199      212.166      104.326    53916.578    45014.392    10883.866       12.153        5.491      364.934      117.417        0.104      338.861       11.798      856.920
04/24/2014  21:00:00     -418.776     -195.996      -24.431      196.781      172.048       82.426    38722.768    29600.603     6794.093       14.474        3.756      462.372       89.093        0.037      338.846       11.772      856.874
04/24/2014  21:01:00     -409.398     -119.788      -11.465      205.255      189.411       73.713    42129.582    35876.707     5433.599       13.275        4.172      426.562       68.230        0.026      338.826       11.739      856.834
04/24/2014  21:02:00     -357.353     -290.125       -3.671      202.345      179.353      110.593    40943.350    32167.594    12230.890       14.860        4.267      460.298      122.677        0.071      338.804       11.701      856.837
04/24/2014  21:03:00     -360.865     -259.091      -13.204      164.821      139.402       84.299    27165.925    19432.951     7106.257       12.560        2.685      444.243       87.774        0.039      338.784       11.668      856.848
04/24/2014  21:04:00     -589.687     -265.896      -17.494      170.058      151.659       86.348    28919.777    23000.389     7455.955       23.905        2.969      646.863       88.576        0.019      338.751       11.614      856.878
04/24/2014  21:05:00     -526.327     -289.257      -28.858      192.761      142.402       79.179    37156.895    20278.338     6269.343       21.260        3.185      600.575       65.724        0.012      338.757       11.623      856.883
04/24/2014  21:06:00     -441.613     -131.841      -25.204      175.008      164.792       80.067    30627.923    27156.328     6410.681       13.860        3.210      460.874       73.032        0.025      338.802       11.698      856.931
04/24/2014  21:07:00     -377.823      -62.419       -7.186      171.840      174.980       87.001    29529.116    30618.149     7569.230       10.719        3.386      382.944       91.055        0.057      338.721       11.563      856.957
04/24/2014  21:08:00     -357.010     -170.574       -5.469      213.862      152.484       91.668    45737.149    23251.239     8403.060       11.697        3.870      395.666      100.773        0.065      338.650       11.443      856.924
04/24/2014  21:09:00     -477.609     -110.567      -26.298      232.425      191.213       90.325    54021.389    36562.511     8158.612       16.987        4.937      490.241       95.549        0.038      338.667       11.469      856.946
04/24/2014  21:10:00     -415.090     -178.086      -20.440      220.323      187.861       88.283    48542.340    35291.874     7793.957       14.801        4.581      451.679      106.163        0.055      338.585       11.333      856.923
04/24/2014  21:11:00     -320.390     -173.422      -11.873      230.473      170.062       75.759    53117.877    28921.202     5739.462       11.030        4.389      364.314       78.612        0.047      338.557       11.286      856.889
04/24/2014  21:12:00     -437.203     -229.076       -6.485      211.690      188.111       80.254    44812.505    35385.690     6440.702       16.513        4.332      493.581       90.278        0.033      338.527       11.236      856.838
04/24/2014  21:13:00     -285.801      -62.651        0.275      176.328      143.485       86.988    31091.555    20588.021     7566.924        7.242        2.962      292.588       95.853        0.107      338.588       11.340      856.821
04/24/2014  21:14:00     -370.714      -48.877      -21.811      198.675      158.683       75.255    39471.565    25180.252     5663.303       10.529        3.516      373.922       85.272        0.052      338.592       11.345      856.839
04/24/2014  21:15:00     -372.121     -132.587      -10.225      159.903      150.434       83.354    25568.909    22630.452     6947.917       10.564        2.757      395.036       84.142        0.045      338.539       11.257      856.892
04/24/2014  21:16:00     -260.908      -64.878       11.259      203.391      147.959       82.984    41367.822    21891.838     6886.359        7.126        3.507      268.853       97.824        0.132      338.572       11.313      856.878
04/24/2014  21:17:00     -361.873     -166.534      -14.503      219.253      179.730       88.623    48071.678    32302.784     7853.954       12.354        4.411      398.354      100.188        0.063      338.525       11.231      856.918
04/24/2014  21:18:00     -267.190     -121.338        3.253      207.422      165.230       89.366    43023.824    27300.793     7986.331        8.220        3.916      293.451      107.917        0.135      338.525       11.234      856.957
04/24/2014  21:19:00     -341.552     -205.075       -7.926      151.786      141.656       84.417    23038.842    20066.430     7126.230       10.449        2.512      398.388       78.703        0.039      338.475       11.148      856.954
04/24/2014  21:20:00     -112.779       -9.151       15.846      147.152      115.263       73.774    21653.762    13285.605     5442.612        2.671        2.019      113.150       78.626        0.483      338.546       11.268      856.987
04/24/2014  21:21:00     -272.312     -166.541        5.252      126.287      112.760       68.148    15948.337    12714.842     4644.101        6.761        1.665      319.202       67.609        0.045      338.422       11.060      857.022
04/24/2014  21:22:00     -355.482      -56.667      -33.381      110.757      115.603       64.558    12267.077    13364.051     4167.770        8.024        1.490      359.970       62.685        0.030      338.435       11.078      857.027
04/24/2014  21:23:00     -172.594      -39.861       10.673      113.377       88.423       56.075    12854.325     7818.647     3144.417        2.765        1.191      177.137       59.258        0.112      338.526       11.235      856.998
04/24/2014  21:24:00     -220.685     -102.541        6.647      142.925      121.567       54.495    20427.591    14778.483     2969.666        4.871        1.909      243.344       63.723        0.069      338.461       11.123      857.000
04/24/2014  21:25:00     -349.790     -170.394       -0.194      275.820      186.453       91.051    76076.764    34764.880     8290.200       13.524        5.957      389.085      124.009        0.102      338.427       11.069      857.002
04/24/2014  21:26:00     -381.764     -189.469      -20.481      234.185      163.538       93.528    54842.476    26744.625     8747.427       13.618        4.517      426.195      111.236        0.068      338.433       11.077      856.991
04/24/2014  21:27:00     -360.157      -93.068        1.343      185.447      146.111       84.909    34390.449    21348.407     7209.475       10.065        3.147      371.988       92.350        0.062      338.463       11.127      857.009
04/24/2014  21:28:00     -383.470     -216.437       -4.064      186.617      157.800       83.458    34825.788    24900.888     6965.214       13.029        3.335      440.334       98.400        0.050      338.427       11.067      857.028
04/24/2014  21:29:00     -360.514      -78.279       -7.634      167.705      167.057       87.140    28125.023    27907.956     7593.391        9.988        3.181      368.914      105.268        0.081      338.416       11.050      857.038
04/24/2014  21:30:00     -333.026     -266.681       -4.857      179.115      187.786       93.325    32082.186    35263.720     8709.496       12.904        3.803      426.644      100.416        0.055      338.363       10.961      857.003
04/24/2014  21:31:00     -367.165     -177.334      -16.394      101.745      141.787       65.302    10352.130    20103.545     4264.335       10.062        1.736      407.747       50.253        0.015      338.366       10.965      856.943
04/24/2014  21:32:00     -219.817     -140.084       -2.283      173.558      154.299       73.294    30122.248    23808.273     5371.983        6.361        2.965      260.659       85.411        0.107      338.409       11.038      856.904
04/24/2014  21:33:00     -469.572       -4.530       -1.470      187.405      161.337      104.774    35120.603    26029.532    10977.497       14.631        3.606      469.594      103.412        0.048      338.474       11.146      856.888
04/24/2014  21:34:00     -353.638     -167.917       -7.922      161.734      151.104       88.088    26157.875    22832.527     7759.539       10.502        2.837      391.479       74.086        0.036      338.470       11.139      856.872
04/24/2014  21:35:00     -248.324     -168.032       -0.981      122.060      125.125       65.936    14898.555    15656.311     4347.589        6.239        1.745      299.833       53.288        0.032      338.435       11.080      856.825
04/24/2014  21:36:00     -351.568      -64.814      -14.330      215.630      149.508       86.985    46496.292    22352.609     7566.388       10.220        3.821      357.492       94.458        0.070      338.476       11.150      856.800
04/24/2014  21:37:00     -306.197     -111.871      -19.118      172.828      123.342       64.857    29869.353    15213.253     4206.376        7.795        2.464      325.993       69.843        0.046      338.524       11.231      856.751
04/24/2014  21:38:00     -286.909     -114.006       -2.584      118.400       94.367       63.073    14018.602     8905.197     3978.195        6.111        1.345      308.729       55.532        0.032      338.636       11.418      856.678
04/24/2014  21:39:00     -222.960      -63.205       -3.646      131.524       91.521       54.543    17298.526     8376.019     2974.947        4.118        1.432      231.746       63.341        0.075      338.688       11.507      856.640
04/24/2014  21:40:00     -213.269     -149.449       -3.161      156.437      120.093       76.866    24472.677    14422.367     5908.358        5.631        2.240      260.420       69.439        0.071      338.652       11.446      856.631
04/24/2014  21:41:00     -278.922     -181.068       -9.915      166.635      125.750       67.398    27767.158    15813.001     4542.433        7.939        2.406      332.541       85.464        0.066      338.648       11.441      856.630
04/24/2014  21:42:00     -192.939     -133.518       -1.631      157.976       91.082       55.807    24956.504     8295.861     3114.416        4.570        1.818      234.632       57.211        0.059      338.654       11.450      856.639
04/24/2014  21:43:00     -312.161     -127.734      -16.009      151.739      116.669       68.467    23024.711    13611.638     4687.681        7.766        2.066      337.284       81.592        0.059      338.704       11.532      856.619
04/24/2014  21:44:00     -455.789     -194.673      -16.970      153.079      143.180       76.729    23433.265    20500.609     5887.347       14.787        2.491      495.622       65.293        0.017      338.701       11.529      856.623
04/24/2014  21:45:00     -366.617     -130.920      -15.894      195.181      153.304       86.300    38095.619    23502.180     7447.686       11.041        3.452      389.292       93.346        0.057      338.552       11.277      856.599
04/24/2014  21:46:00     -391.878      -78.987       -2.838      254.830      144.672       92.550    64938.255    20929.925     8565.533       12.711        4.722      399.759      108.565        0.074      338.389       11.002      856.511
04/24/2014  21:47:00     -363.322     -115.741       -8.760      218.876      188.500       83.980    47906.841    35532.246     7052.664       11.797        4.525      381.312      101.281        0.071      338.407       11.035      856.459
04/24/2014  21:48:00     -397.238     -220.517      -21.784      182.797      149.706       74.107    33414.884    22411.948     5491.776       13.410        3.066      454.341       85.752        0.036      338.620       11.391      856.526
04/24/2014  21:49:00     -250.885     -111.440      -12.798      178.595      129.678       63.782    31896.163    16816.483     4068.178        6.414        2.639      274.521       86.217        0.099      338.492       11.179      856.549
04/24/2014  21:50:00     -297.996     -118.377        1.386      237.529      116.251       62.859    56419.985    13514.319     3951.304        8.834        3.694      320.648       80.379        0.063      338.450       11.106      856.508
04/24/2014  21:51:00     -294.169      -91.823        5.678      230.347      143.183       99.634    53059.713    20501.326     9926.914        8.923        4.174      308.167      118.060        0.147      338.282       10.824      856.459
04/24/2014  21:52:00     -432.558     -108.618       -1.247      203.013      136.084       79.699    41214.295    18518.793     6351.922       13.248        3.304      445.987       91.287        0.042      338.203       10.691      856.472
04/24/2014  21:53:00     -458.809     -128.999      -29.738      191.584      142.821       77.173    36704.257    20397.798     5955.664       14.553        3.153      476.599       78.480        0.027      338.189       10.667      856.397
04/24/2014  21:54:00     -467.174     -132.343       -3.940      170.363      156.524       81.768    29023.549    24499.670     6685.997       14.798        3.010      485.558       81.895        0.028      338.173       10.639      856.409
04/24/2014  21:55:00     -380.140      -31.207      -13.201      218.845      164.021       75.424    47892.933    26902.727     5688.835       11.305        4.024      381.419       87.720        0.053      338.234       10.745      856.426
04/24/2014  21:56:00     -407.178     -116.021      -17.268      140.378      127.123       73.415    19706.068    16160.364     5389.703       11.040        2.063      423.385       67.692        0.026      338.278       10.817      856.419
04/24/2014  21:57:00     -320.911     -100.652      -10.087      134.663      121.020       67.061    18134.038    14645.918     4497.195        7.524        1.864      336.325       66.820        0.039      338.283       10.826      856.452
04/24/2014  21:58:00     -228.638     -183.792       -8.816      142.066      126.961       85.643    20182.849    16119.054     7334.760        6.488        2.182      293.351       95.045        0.105      338.274       10.812      856.495
04/24/2014  21:59:00     -267.646     -132.629      -11.857      147.169      126.824       66.427    21658.724    16084.284     4412.602        6.575        2.108      298.705       71.883        0.058      338.263       10.794      856.490
04/24/2014  22:00:00     -233.346     -110.575       -2.299      130.971      113.068       59.808    17153.497    12784.445     3576.971        5.009        1.676      258.219       54.458        0.044      338.315       10.880      856.478
04/24/2014  22:01:00     -208.993     -127.850       -0.058      120.759       89.640       56.241    14582.840     8035.264     3163.017        4.290        1.289      244.998       53.094        0.047      338.271       10.807      856.504
04/24/2014  22:02:00     -241.346     -218.665      -12.257      137.163      109.322       64.073    18813.653    11951.357     4105.296        7.053        1.744      325.672       66.357        0.042      338.227       10.732      856.559
04/24/2014  22:03:00     -208.014     -156.735        6.051      142.070       83.742       65.608    20183.798     7012.693     4304.400        4.968        1.575      260.452       80.241        0.095      338.194       10.674      856.591
04/24/2014  22:04:00     -140.059      -81.281       13.842      131.490      108.596       65.063    17289.742    11793.001     4233.234        2.986        1.666      161.935       68.263        0.178      338.220       10.723      856.572
04/24/2014  22:05:00     -294.423     -195.703      -15.199      111.051      101.459       69.084    12332.286    10293.942     4772.556        7.630        1.370      353.531       63.872        0.033      338.220       10.719      856.526
04/24/2014  22:06:00     -182.796      -73.542       -0.141       99.805       78.943       50.607     9960.963     6232.067     2561.057        2.878        0.938      197.035       50.544        0.066      338.206       10.697      856.382
04/24/2014  22:07:00     -338.723       -9.042      -23.788      125.126       95.262       59.309    15656.434     9074.856     3517.574        7.181        1.412      338.844       64.271        0.036      338.223       10.725      856.375
04/24/2014  22:08:00     -199.197      -53.864       -4.471      156.287      100.425       71.344    24425.769    10085.277     5090.034        4.109        1.980      206.351       82.458        0.160      338.351       10.942      856.348
04/24/2014  22:09:00     -323.047      -92.246       -5.442      125.404       91.714       62.054    15726.217     8411.500     3850.662        7.044        1.399      335.960       51.552        0.024      338.309       10.870      856.363
04/24/2014  22:10:00     -270.091      -61.838        3.192      149.337      112.152       63.738    22301.544    12578.010     4062.495        5.785        1.947      277.079       70.292        0.064      338.296       10.849      856.337
04/24/2014  22:11:00     -495.237     -287.501      -11.922      243.218      222.973      101.538    59154.996    49717.048    10309.983       22.360        5.959      572.640      104.453        0.033      338.437       11.084      856.346
04/24/2014  22:12:00     -327.306     -210.692        9.990      297.982      186.853       88.781    88792.987    34914.098     7882.154       14.158        6.579      389.256      109.338        0.079      338.581       11.327      856.421
04/24/2014  22:13:00     -339.079     -214.123      -14.819      142.194      122.826       63.577    20219.129    15086.262     4041.984       10.019        1.967      401.027       73.549        0.034      338.405       11.032      856.359
04/24/2014  22:14:00     -170.204      -74.969       27.728      169.513      154.152       76.715    28734.509    23762.695     5885.174        4.686        2.919      185.983       83.577        0.202      338.552       11.278      856.370
04/24/2014  22:15:00     -299.812     -102.602        1.626      139.279      133.858       73.161    19398.510    17917.863     5352.571        7.153        2.133      316.883       69.486        0.048      338.610       11.376      856.341
04/24/2014  22:16:00     -400.679     -220.306      -21.477      168.562      133.032       72.563    28412.995    17697.531     5265.424       13.045        2.569      457.251       72.966        0.025      338.506       11.201      856.342
04/24/2014  22:17:00     -308.895     -104.095        3.672      192.750      161.284       91.419    37152.473    26012.634     8357.439        8.888        3.576      325.963      108.974        0.112      338.418       11.052      856.354
04/24/2014  22:18:00     -282.671     -129.799       -2.846      159.515      143.729       79.326    25445.151    20658.030     6292.558        7.457        2.620      311.048       69.913        0.051      338.425       11.063      856.301
04/24/2014  22:19:00     -281.932     -140.849       14.781      220.028      178.912       99.062    48412.146    32009.524     9813.330        9.487        4.512      315.157      119.522        0.144      338.344       10.930      856.297
04/24/2014  22:20:00     -399.819     -128.636      -24.330      176.805      153.857       80.029    31259.935    23672.024     6404.642       11.915        3.067      420.003       79.813        0.036      338.334       10.912      856.290
04/24/2014  22:21:00     -314.195      -86.068       -0.490      188.602      138.592       84.116    35570.776    19207.718     7075.464        8.398        3.093      325.770      100.296        0.095      338.365       10.964      856.263
04/24/2014  22:22:00     -360.020     -161.929        1.290      165.784      143.597       68.305    27484.266    20620.112     4665.550       10.429        2.638      394.760       63.454        0.026      338.348       10.934      856.247
04/24/2014  22:23:00     -181.218      -70.598        4.899      138.991       83.031       57.771    19318.429     6894.176     3337.510        3.369        1.478      194.484       67.674        0.121      338.370       10.973      856.226
04/24/2014  22:24:00     -231.871     -132.739      -13.607      149.108       95.995       63.266    22233.047     9215.004     4002.548        5.350        1.773      267.177       69.336        0.067      338.357       10.951      856.211
04/24/2014  22:25:00     -275.074     -104.123      -15.331      187.517       86.697       63.422    35162.628     7516.388     4022.366        6.671        2.335      294.121       83.390        0.080      338.406       11.032      856.174
04/24/2014  22:26:00     -235.229      -71.041       13.428      169.950      137.321       71.442    28882.940    18857.067     5104.026        5.669        2.642      245.723       78.209        0.101      338.377       10.985      856.160
04/24/2014  22:27:00     -268.853     -171.883        0.177      195.005      141.092       75.715    38026.797    19906.972     5732.825        8.273        3.183      319.102       97.945        0.094      338.348       10.935      856.176
04/24/2014  22:28:00     -228.320      -92.459        9.885      206.100      139.924       70.987    42477.101    19578.735     5039.156        6.392        3.355      246.330       83.369        0.115      338.296       10.850      856.139
04/24/2014  22:29:00     -280.611      -23.937        6.755      137.118      123.212       67.198    18801.479    15181.182     4515.603        5.892        1.925      281.631       68.921        0.060      338.310       10.871      856.108
04/24/2014  22:30:00     -330.224      -81.896       -7.423      107.261      116.404       53.562    11505.024    13550.000     2868.850        7.186        1.396      340.227       52.369        0.024      338.248       10.767      856.125
04/24/2014  22:31:00     -170.184      -49.147       -7.686       93.130       70.696       51.584     8673.149     4997.974     2660.926        2.388        0.817      177.139       50.875        0.082      338.322       10.893      856.142
04/24/2014  22:32:00      -96.490     -101.690        5.370       87.507       68.930       46.028     7657.394     4751.405     2118.621        1.710        0.726      140.182       39.784        0.081      338.295       10.850      856.129
04/24/2014  22:33:00     -215.186      -77.049        1.467      108.173       72.213       52.677    11701.420     5214.741     2774.836        3.596        0.985      228.564       56.961        0.062      338.285       10.828      856.169
04/24/2014  22:34:00     -154.910      -95.998       10.591      127.419       91.591       59.103    16235.591     8388.959     3493.219        3.072        1.406      182.244       66.526        0.133      338.277       10.818      856.195
04/24/2014  22:35:00     -207.783     -174.501       -6.125      120.778       86.005       55.733    14587.211     7396.881     3106.121        4.937        1.255      271.338       60.909        0.050      338.263       10.794      856.185
04/24/2014  22:36:00     -151.448     -118.835       -8.724      106.917       78.592       51.458    11431.187     6176.777     2647.956        2.869        1.013      192.506       54.591        0.080      338.280       10.821      856.105
04/24/2014  22:37:00     -192.536       45.241      -15.141       83.819       86.711       48.131     7025.659     7518.833     2316.591        2.810        0.843      197.780       32.700        0.027      338.334       10.914      856.009
04/24/2014  22:38:00     -304.882       -3.418      -20.535      191.717      105.996       55.442    36755.424    11235.102     3073.810        7.222        2.553      304.901       63.552        0.043      338.356       10.948      855.974
04/24/2014  22:39:00     -383.735     -104.429      -16.443      133.559      107.918       56.488    17837.983    11646.234     3190.928        9.555        1.634      397.690       58.853        0.022      338.179       10.651      855.990
04/24/2014  22:40:00     -399.192     -103.750      -19.603      273.416      138.771       79.128    74756.118    19257.492     6261.285       13.537        5.014      412.454      109.854        0.071      338.147       10.597      855.971
04/24/2014  22:41:00     -350.481     -149.311       -5.496      183.692      143.693       73.466    33742.766    20647.572     5397.318       10.246        2.989      380.961       78.502        0.042      338.152       10.605      855.963
04/24/2014  22:42:00     -366.240     -162.612       -3.970      180.347      122.526       74.187    32525.120    15012.579     5503.730       10.681        2.652      400.717       84.497        0.044      338.133       10.574      855.974
04/24/2014  22:43:00     -294.265     -177.422       -4.063      129.946      126.524       78.403    16885.874    16008.348     6147.043        7.856        1.952      343.614       77.467        0.051      338.175       10.645      855.976
04/24/2014  22:44:00      -72.335      -82.124       26.286      138.520      125.652       69.722    19187.760    15788.424     4861.097        2.624        1.992      109.439       77.020        0.495      338.211       10.707      855.997
04/24/2014  22:45:00     -193.244     -190.603       -8.256      155.248       90.733       57.448    24102.080     8232.511     3300.229        5.468        1.782      271.428       58.691        0.047      338.230       10.738      856.015
04/24/2014  22:46:00     -314.686     -174.555       10.812      185.866      158.376       80.780    34546.087    25083.003     6525.347        9.787        3.308      359.857       97.884        0.074      338.243       10.760      856.050
04/24/2014  22:47:00     -370.102     -180.921        4.473      185.151      121.211       85.782    34280.834    14692.207     7358.481       11.302        2.817      411.956       97.580        0.056      338.249       10.771      856.069
04/24/2014  22:48:00     -392.885     -207.998      -22.643      199.074      144.369       84.579    39630.509    20842.319     7153.565       13.287        3.381      444.547       81.495        0.034      338.209       10.702      856.044
04/24/2014  22:49:00     -257.487      -25.455        1.209      209.720      115.356       64.166    43982.633    13306.956     4117.296        6.417        3.070      258.742       74.725        0.083      338.261       10.790      855.974
04/24/2014  22:50:00     -391.546     -125.444       -1.394      174.488      111.875       63.007    30445.937    12515.984     3969.934       10.798        2.347      411.150       75.120        0.033      338.135       10.578      855.953
04/24/2014  22:51:00     -329.116      -53.751       -0.924      144.458      128.666       72.853    20868.114    16554.902     5307.600        7.696        2.137      333.476       76.319        0.052      338.175       10.643      855.966
04/24/2014  22:52:00     -292.882      -79.391      -10.167      205.289      118.537       84.477    42143.718    14051.119     7136.392        7.775        3.167      303.452       97.299        0.103      338.122       10.557      855.953
04/24/2014  22:53:00     -362.664      -81.159      -25.247      221.166      170.569       80.945    48914.593    29093.822     6552.044       11.164        4.228      371.635      104.898        0.080      338.164       10.626      855.972
04/24/2014  22:54:00     -195.703      -42.342       -2.124      112.405       95.075       49.050    12634.948     9039.337     2405.883        3.208        1.204      200.232       43.236        0.047      338.233       10.743      855.952
04/24/2014  22:55:00     -205.765     -169.793       16.937      170.805      120.542       83.614    29174.378    14530.361     6991.290        6.107        2.535      266.775       94.555        0.126      338.142       10.588      855.908
04/24/2014  22:56:00     -291.836     -249.424      -18.606      205.269      143.821      100.858    42135.272    20684.621    10172.323       11.034        3.650      383.902      116.243        0.092      338.125       10.560      855.885
04/24/2014  22:57:00     -190.268     -111.698       17.313      147.319      106.444       68.980    21702.798    11330.255     4758.208        4.338        1.890      220.631       82.167        0.139      338.167       10.632      855.848
04/24/2014  22:58:00     -305.568     -163.582      -12.271      134.545      105.595       56.858    18102.470    11150.377     3232.781        7.638        1.624      346.598       64.740        0.035      338.237       10.751      855.713
04/24/2014  22:59:00     -322.397     -148.358      -13.626      125.287      113.296       64.541    15696.722    12835.902     4165.497        7.941        1.635      354.894       61.225        0.030      338.256       10.782      855.563
04/24/2014  23:00:00     -307.057      -76.886       -6.534      116.770       87.821       58.626    13635.169     7712.562     3437.025        6.251        1.239      316.537       58.478        0.034      338.245       10.763      855.539
04/24/2014  23:01:00     -332.418     -158.146        3.838      177.189      115.358       87.399    31396.033    13307.425     7638.668        9.392        2.617      368.120       85.776        0.054      338.313       10.876      855.600
04/24/2014  23:02:00     -312.924     -192.421       -2.122      145.401      111.608       75.483    21141.513    12456.272     5697.662        8.712        1.965      367.352       64.157        0.031      338.379       10.986      855.696
04/24/2014  23:03:00     -319.948     -239.897        7.502      161.362      125.440       82.797    26037.728    15735.090     6855.370       10.429        2.431      399.897       92.785        0.054      338.273       10.808      855.687
04/24/2014  23:04:00     -218.438     -192.484       -6.768      140.433       94.542       53.970    19721.315     8938.240     2912.790        5.819        1.579      291.145       65.701        0.051      338.225       10.729      855.552
04/24/2014  23:05:00     -136.772      -55.722       -0.702       81.558       52.175       38.104     6651.651     2722.218     1451.897        1.632        0.541      147.687       37.482        0.064      338.186       10.664      855.406
04/24/2014  23:06:00     -206.863     -138.208       -6.230      142.335      102.835       58.868    20259.310    10575.002     3465.412        4.811        1.715      248.784       65.041        0.068      338.224       10.728      855.424
04/24/2014  23:07:00     -244.718     -221.799       16.905      184.207      132.839       79.669    33932.289    17646.230     6347.223        8.364        2.896      330.275       97.205        0.087      338.202       10.689      855.490
04/24/2014  23:08:00     -376.426     -270.600       -6.609      207.799      141.315       98.612    43180.510    19969.952     9724.350       14.391        3.644      463.595      104.830        0.051      338.179       10.652      855.526
04/24/2014  23:09:00     -416.313     -272.228      -12.969      193.608      166.417       94.789    37484.214    27694.568     8984.939       16.086        3.708      497.418      106.722        0.046      338.194       10.675      855.586
04/24/2014  23:10:00     -291.593     -248.776       -0.861      151.665      150.927       80.521    23002.257    22779.019     6483.709        9.958        2.613      383.296       78.752        0.042      338.222       10.723      855.615
04/24/2014  23:11:00     -361.049     -225.982       -4.117      184.414      132.122       80.408    34008.459    17456.113     6465.501       11.967        2.897      425.939       85.083        0.040      338.300       10.855      855.484
04/24/2014  23:12:00     -224.307     -192.056        8.345      115.540      102.028       59.504    13349.604    10409.667     3540.701        5.728        1.365      295.295       61.425        0.043      338.303       10.859      855.399
04/24/2014  23:13:00     -393.955     -174.973       -6.442      115.531       98.407       61.986    13347.511     9683.873     3842.211       10.636        1.344      431.063       50.160        0.014      338.270       10.806      855.378
04/24/2014  23:14:00     -352.623     -170.026        4.382      201.626      139.769       84.244    40653.205    19535.434     7097.001       11.026        3.364      391.474      108.276        0.076      338.263       10.792      855.406
04/24/2014  23:15:00     -408.760     -266.895      -16.342      172.752      135.347       77.651    29843.143    18318.903     6029.752       14.638        2.710      488.178       84.867        0.030      338.274       10.811      855.475
04/24/2014  23:16:00     -354.072     -247.599       -5.228      155.754      146.547       84.881    24259.338    21476.019     7204.725       11.981        2.647      432.056       79.324        0.034      338.253       10.777      855.496
04/24/2014  23:17:00     -394.070     -275.324       -8.081      143.257      135.663       78.475    20522.600    18404.460     6158.393       13.811        2.254      480.723       73.670        0.023      338.211       10.704      855.433
04/24/2014  23:18:00     -348.035     -204.336        0.626      186.497      114.298       76.849    34780.965    13064.118     5905.720       10.831        2.688      403.586       78.495        0.038      338.183       10.658      855.373
04/24/2014  23:19:00     -211.669     -185.444        5.755      132.808      102.339       66.099    17637.934    10473.274     4369.046        5.585        1.624      281.413       65.619        0.054      338.233       10.742      855.363
04/24/2014  23:20:00     -288.992     -180.879       11.448      196.178      133.408       81.943    38485.644    17797.818     6714.695        8.967        3.150      340.931       86.069        0.064      338.233       10.742      855.365
04/24/2014  23:21:00     -228.088     -195.287        7.036      175.731      107.207       71.545    30881.521    11493.250     5118.729        6.884        2.375      300.268       83.916        0.078      338.271       10.806      855.356
04/24/2014  23:22:00     -251.831     -180.057        0.925      174.278      140.649       66.239    30372.952    19782.237     4387.567        7.518        2.727      309.580       68.590        0.049      338.291       10.841      855.387
04/24/2014  23:23:00     -325.323     -177.049        2.924      148.539      148.027       84.018    22063.916    21912.108     7058.982        9.410        2.552      370.380       83.470        0.051      338.306       10.865      855.474
04/24/2014  23:24:00     -363.004     -235.837      -16.227      141.185      131.403       78.359    19933.141    17266.690     6140.108       11.549        2.167      432.886       69.822        0.026      338.386       10.999      855.608
04/24/2014  23:25:00     -357.132     -166.039        0.642      185.707      136.452       83.472    34487.071    18619.194     6967.602       10.758        3.004      393.843       87.467        0.049      338.435       11.079      855.612
04/24/2014  23:26:00     -111.363      -89.776        6.181      103.839       74.473       35.143    10782.640     5546.170     1235.020        1.903        0.878      143.043       36.758        0.066      338.431       11.077      855.519
04/24/2014  23:27:00     -181.393     -144.717       -1.205       92.500       95.909       53.980     8556.197     9198.614     2913.848        3.725        1.033      232.048       53.206        0.053      338.417       11.050      855.481
04/24/2014  23:28:00     -268.739     -118.448      -13.052      137.055      129.730       78.563    18784.067    16829.901     6172.211        6.410        2.089      293.685       69.140        0.055      338.397       11.018      855.553
04/24/2014  23:29:00     -270.236     -114.722       11.114      169.217      127.605       65.217    28634.277    16283.039     4253.225        6.773        2.459      293.579       74.996        0.065      338.363       10.961      855.617
04/24/2014  23:30:00     -300.438     -232.586        9.783      194.249      162.227       91.612    37732.496    26317.488     8392.724       10.843        3.622      379.946      100.812        0.070      338.295       10.847      855.637
04/24/2014  23:31:00     -300.123     -270.319       -6.616      169.743      168.348       79.685    28812.841    28341.172     6349.760       11.333        3.175      403.914       70.717        0.031      338.274       10.811      855.625
04/24/2014  23:32:00     -375.769     -182.936       -6.097      189.019      184.563       83.979    35728.222    34063.455     7052.431       12.576        3.842      417.933       83.723        0.040      338.261       10.791      855.687
04/24/2014  23:33:00     -301.193      -74.325       -1.878      186.551      138.671       81.946    34801.218    19229.762     6715.148        7.848        3.037      310.228       93.902        0.092      338.274       10.812      855.673
04/24/2014  23:34:00     -301.261     -194.148       -4.263      182.794      124.998       80.385    33413.582    15624.386     6461.688        9.197        2.775      358.401       83.420        0.054      338.256       10.781      855.663
04/24/2014  23:35:00     -175.419     -122.886       -9.079      122.667      107.740       50.715    15047.289    11607.870     2571.962        3.759        1.461      214.179       25.738        0.014      338.263       10.794      855.686
04/24/2014  23:36:00     -284.670     -157.879      -28.468      107.468      112.017       53.954    11549.406    12547.867     2911.011        6.689        1.350      325.519       46.478        0.020      338.268       10.801      855.616
04/24/2014  23:37:00     -281.509     -141.008       -4.100      115.258       87.604       50.324    13284.363     7674.518     2532.464        6.131        1.175      314.851       45.789        0.021      338.300       10.855      855.598
04/24/2014  23:38:00     -250.926     -213.461       14.510      196.728      176.942       86.742    38701.806    31308.523     7524.256        9.312        3.877      329.437       91.369        0.077      338.326       10.899      855.630
04/24/2014  23:39:00     -412.658     -247.403       -9.952      224.786      154.182       78.861    50528.773    23772.109     6219.135       15.604        4.026      481.139      103.180        0.046      338.358       10.950      855.693
04/24/2014  23:40:00     -245.330     -247.661        6.067      213.524      115.999       64.596    45592.411    13455.748     4172.645        9.238        3.161      348.601       87.426        0.063      338.369       10.971      855.670
04/24/2014  23:41:00     -220.701     -124.857        1.352       99.601       93.706       50.555     9920.399     8780.807     2555.792        4.277        1.063      253.571       38.678        0.023      338.373       10.975      855.590
04/24/2014  23:42:00     -222.438     -162.025        1.108      165.987       98.288       61.150    27551.555     9660.462     3739.332        5.833        2.048      275.192       71.272        0.067      338.357       10.952      855.562
04/24/2014  23:43:00     -239.527     -159.183        1.766      190.172      139.205       76.002    36165.327    19378.046     5776.328        7.201        3.066      287.598       84.884        0.087      338.366       10.967      855.572
04/24/2014  23:44:00     -261.365     -223.637       11.109      188.578      137.548       88.551    35561.538    18919.405     7841.351        9.037        3.116      343.984       97.073        0.080      338.407       11.035      855.601
04/24/2014  23:45:00     -229.793      -75.140      -11.558      123.055       88.597       65.290    15142.575     7849.362     4262.720        4.291        1.363      241.766       60.554        0.063      338.416       11.049      855.599
04/24/2014  23:46:00     -103.309      -35.805        8.610      120.051       77.657       47.122    14412.357     6030.553     2220.451        1.734        1.133      109.338       46.997        0.185      338.370       10.974      855.476
04/24/2014  23:47:00     -154.061      -90.108       13.501      185.669      137.370       63.767    34472.994    18870.580     4066.208        4.471        2.870      178.478       91.995        0.266      338.370       10.973      855.358
04/24/2014  23:48:00     -259.967     -217.770       -1.022      144.733       96.304       69.113    20947.592     9274.519     4776.635        7.500        1.750      339.127       67.976        0.040      338.390       11.005      855.324
04/24/2014  23:49:00     -202.888     -225.830       -2.697      133.769      123.677       71.795    17894.183    15295.918     5154.572        6.525        1.917      303.583       81.215        0.072      338.360       10.956      855.309
04/24/2014  23:50:00     -290.387     -221.976        2.987      162.605      103.017       77.997    26440.343    10612.469     6083.493        8.836        2.157      365.511       73.814        0.041      338.293       10.842      855.302
04/24/2014  23:51:00     -288.735     -215.634       -5.868      111.328      134.938       65.119    12394.015    18208.202     4240.541        8.236        1.742      360.369       67.552        0.035      338.254       10.778      855.299
04/24/2014  23:52:00     -200.079      -94.185       14.254      158.669       99.464       73.904    25175.926     9893.066     5461.764        4.481        2.027      221.139       75.390        0.116      338.273       10.812      855.287
04/24/2014  23:53:00     -299.099     -203.226      -30.852      154.927      126.987       80.812    24002.277    16125.797     6530.601        8.918        2.333      361.609       82.295        0.052      338.263       10.794      855.287
04/24/2014  23:54:00     -311.024     -201.562      -16.141      223.637      161.556       89.824    50013.432    26100.262     8068.300       11.089        4.209      370.626       95.179        0.066      338.280       10.821      855.304
04/24/2014  23:55:00     -269.827     -156.595        0.436      164.493      145.632       82.168    27058.078    21208.787     6751.520        7.616        2.751      311.975       85.270        0.075      338.295       10.848      855.276
04/24/2014  23:56:00     -262.823     -123.611      -18.102      114.441       94.664       54.712    13096.694     8961.299     2993.437        5.486        1.253      290.440       37.758        0.017      338.338       10.919      855.280
04/24/2014  23:57:00     -136.146     -126.198       10.416      118.880       98.418       69.132    14132.429     9686.100     4779.279        3.158        1.430      185.639       61.842        0.111      338.344       10.929      855.290
04/24/2014  23:58:00     -299.829     -228.246      -12.062      158.994      122.832       77.648    25279.219    15087.740     6029.150        9.426        2.320      376.821       81.207        0.046      338.350       10.939      855.318
04/24/2014  23:59:00     -306.801      -59.718       -2.293      172.731      139.888       74.295    29835.863    19568.669     5519.710        7.630        2.746      312.559       84.975        0.074      338.362       10.960      855.338
